| time (UTC) | temp F | wind direction | speed MPH | gust MPH | rain 1hr in | rain 24hr in | rain mn in | humidity % | barometer mb |
| 20260510180404 | 83 | 297 | 5.0 | 13.0 | 0.00 | 0.79 | 0.00 | 37 | 1013.8 |
| 20260510180304 | 83 | 298 | 5.0 | 13.0 | 0.00 | 0.79 | 0.00 | 36 | 1013.8 |
| 20260510180225 | 83 | 298 | 5.0 | 13.0 | 0.00 | 0.79 | 0.00 | 36 | 1013.9 |
| 20260510180104 | 83 | 296 | 5.0 | 13.0 | 0.00 | 0.79 | 0.00 | 34 | 1013.9 |
| 20260510180004 | 83 | 291 | 5.0 | 13.0 | 0.00 | 0.79 | 0.00 | 35 | 1014.0 |
| 20260510175904 | 82 | 289 | 5.0 | 13.0 | 0.00 | 0.79 | 0.00 | 36 | 1013.9 |
| 20260510175804 | 82 | 285 | 5.0 | 13.0 | 0.00 | 0.79 | 0.00 | 35 | 1014.0 |
| 20260510175704 | 83 | 280 | 5.0 | 10.0 | 0.00 | 0.79 | 0.00 | 34 | 1013.9 |
| 20260510175604 | 83 | 280 | 5.0 | 10.0 | 0.00 | 0.79 | 0.00 | 34 | 1014.0 |
| 20260510175504 | 83 | 281 | 5.0 | 10.0 | 0.00 | 0.79 | 0.00 | 34 | 1014.0 |
| 20260510175425 | 83 | 279 | 5.0 | 10.0 | 0.00 | 0.79 | 0.00 | 34 | 1014.0 |
| 20260510175306 | 82 | 281 | 4.0 | 10.0 | 0.00 | 0.79 | 0.00 | 34 | 1014.0 |
| 20260510175204 | 82 | 280 | 4.0 | 10.0 | 0.00 | 0.79 | 0.00 | 35 | 1014.1 |
| 20260510175125 | 82 | 281 | 5.0 | 10.0 | 0.00 | 0.79 | 0.00 | 35 | 1014.0 |
| 20260510175004 | 82 | 284 | 5.0 | 11.0 | 0.00 | 0.79 | 0.00 | 35 | 1014.1 |
| 20260510174904 | 82 | 287 | 5.0 | 11.0 | 0.00 | 0.79 | 0.00 | 35 | 1014.1 |
| 20260510174805 | 82 | 289 | 5.0 | 11.0 | 0.00 | 0.79 | 0.00 | 34 | 1014.1 |
| 20260510174704 | 83 | 289 | 4.0 | 11.0 | 0.00 | 0.79 | 0.00 | 34 | 1014.1 |
| 20260510174604 | 83 | 292 | 4.0 | 11.0 | 0.00 | 0.79 | 0.00 | 33 | 1014.2 |
| 20260510174504 | 83 | 297 | 4.0 | 11.0 | 0.00 | 0.79 | 0.00 | 34 | 1014.1 |
| 20260510174404 | 83 | 303 | 4.0 | 11.0 | 0.00 | 0.79 | 0.00 | 32 | 1014.2 |
| 20260510174304 | 83 | 303 | 4.0 | 11.0 | 0.00 | 0.79 | 0.00 | 32 | 1014.2 |
| 20260510174225 | 83 | 309 | 4.0 | 11.0 | 0.00 | 0.79 | 0.00 | 32 | 1014.2 |
| 20260510174104 | 83 | 323 | 4.0 | 11.0 | 0.00 | 0.79 | 0.00 | 32 | 1014.2 |
| 20260510174004 | 83 | 334 | 4.0 | 11.0 | 0.00 | 0.79 | 0.00 | 31 | 1014.1 |
| 20260510173904 | 83 | 334 | 4.0 | 11.0 | 0.00 | 0.79 | 0.00 | 31 | 1014.2 |
| 20260510173804 | 83 | 339 | 4.0 | 11.0 | 0.00 | 0.79 | 0.00 | 31 | 1014.1 |
| 20260510173725 | 83 | 339 | 4.0 | 11.0 | 0.00 | 0.79 | 0.00 | 28 | 1014.2 |
| 20260510173604 | 82 | 334 | 4.0 | 11.0 | 0.00 | 0.79 | 0.00 | 29 | 1014.2 |
| 20260510173504 | 82 | 325 | 4.0 | 11.0 | 0.00 | 0.79 | 0.00 | 29 | 1014.2 |
| 20260510173404 | 82 | 321 | 4.0 | 11.0 | 0.00 | 0.79 | 0.00 | 29 | 1014.2 |
| 20260510173304 | 82 | 321 | 4.0 | 11.0 | 0.00 | 0.79 | 0.00 | 29 | 1014.2 |
| 20260510173225 | 82 | 318 | 5.0 | 11.0 | 0.00 | 0.79 | 0.00 | 28 | 1014.3 |
| 20260510173104 | 82 | 313 | 4.0 | 11.0 | 0.00 | 0.79 | 0.00 | 29 | 1014.3 |
| 20260510173004 | 82 | 308 | 5.0 | 12.0 | 0.00 | 0.79 | 0.00 | 27 | 1014.3 |
| 20260510172904 | 82 | 309 | 5.0 | 12.0 | 0.00 | 0.79 | 0.00 | 27 | 1014.3 |
| 20260510172804 | 82 | 307 | 5.0 | 12.0 | 0.00 | 0.79 | 0.00 | 28 | 1014.3 |
| 20260510172725 | 82 | 309 | 5.0 | 12.0 | 0.00 | 0.79 | 0.00 | 28 | 1014.3 |
| 20260510172604 | 82 | 321 | 5.0 | 12.0 | 0.00 | 0.79 | 0.00 | 28 | 1014.4 |
| 20260510172504 | 81 | 326 | 5.0 | 12.0 | 0.00 | 0.79 | 0.00 | 29 | 1014.4 |
| 20260510172405 | 81 | 324 | 5.0 | 12.0 | 0.00 | 0.79 | 0.00 | 29 | 1014.4 |
| 20260510172306 | 81 | 328 | 5.0 | 12.0 | 0.00 | 0.79 | 0.00 | 29 | 1014.5 |
| 20260510172204 | 81 | 331 | 5.0 | 12.0 | 0.00 | 0.79 | 0.00 | 29 | 1014.5 |
| 20260510172104 | 82 | 331 | 5.0 | 12.0 | 0.00 | 0.79 | 0.00 | 29 | 1014.5 |
| 20260510172004 | 82 | 332 | 5.0 | 11.0 | 0.00 | 0.79 | 0.00 | 29 | 1014.6 |
| 20260510171904 | 82 | 330 | 5.0 | 10.0 | 0.00 | 0.79 | 0.00 | 28 | 1014.5 |
| 20260510171804 | 82 | 326 | 5.0 | 10.0 | 0.00 | 0.79 | 0.00 | 28 | 1014.5 |
| 20260510171704 | 82 | 322 | 5.0 | 10.0 | 0.00 | 0.79 | 0.00 | 28 | 1014.6 |
| 20260510171604 | 82 | 310 | 5.0 | 10.0 | 0.00 | 0.79 | 0.00 | 28 | 1014.6 |
| 20260510171504 | 82 | 304 | 5.0 | 10.0 | 0.00 | 0.79 | 0.00 | 27 | 1014.6 |
| 20260510171425 | 82 | 305 | 5.0 | 10.0 | 0.00 | 0.79 | 0.00 | 28 | 1014.7 |
| 20260510171304 | 82 | 303 | 5.0 | 10.0 | 0.00 | 0.79 | 0.00 | 24 | 1014.7 |
| 20260510171204 | 81 | 304 | 5.0 | 10.0 | 0.00 | 0.79 | 0.00 | 24 | 1014.7 |
| 20260510171104 | 81 | 304 | 5.0 | 10.0 | 0.00 | 0.79 | 0.00 | 24 | 1014.7 |
| 20260510171004 | 81 | 303 | 5.0 | 10.0 | 0.00 | 0.79 | 0.00 | 25 | 1014.7 |
| 20260510170904 | 81 | 305 | 5.0 | 10.0 | 0.00 | 0.79 | 0.00 | 24 | 1014.8 |
| 20260510170804 | 81 | 309 | 5.0 | 10.0 | 0.00 | 0.79 | 0.00 | 23 | 1014.8 |
| 20260510170704 | 81 | 314 | 4.0 | 10.0 | 0.00 | 0.79 | 0.00 | 24 | 1014.8 |
| 20260510170604 | 81 | 318 | 4.0 | 10.0 | 0.00 | 0.79 | 0.00 | 23 | 1014.8 |
| 20260510170525 | 81 | 320 | 4.0 | 10.0 | 0.00 | 0.79 | 0.00 | 23 | 1014.9 |
| 20260510170425 | 81 | 327 | 4.0 | 9.0 | 0.00 | 0.79 | 0.00 | 23 | 1014.9 |
| 20260510170325 | 81 | 333 | 4.0 | 9.0 | 0.00 | 0.79 | 0.00 | 24 | 1014.9 |
| 20260510170204 | 81 | 335 | 4.0 | 9.0 | 0.00 | 0.79 | 0.00 | 21 | 1014.9 |
| 20260510170104 | 81 | 339 | 4.0 | 9.0 | 0.00 | 0.79 | 0.00 | 22 | 1014.9 |
| 20260510170004 | 81 | 347 | 4.0 | 9.0 | 0.00 | 0.79 | 0.00 | 23 | 1015.0 |
| 20260510165904 | 81 | 354 | 4.0 | 9.0 | 0.00 | 0.79 | 0.00 | 24 | 1015.0 |
| 20260510165825 | 81 | 353 | 4.0 | 9.0 | 0.00 | 0.79 | 0.00 | 23 | 1015.0 |
| 20260510165704 | 81 | 349 | 4.0 | 9.0 | 0.00 | 0.79 | 0.00 | 21 | 1015.0 |
| 20260510165625 | 81 | 356 | 4.0 | 9.0 | 0.00 | 0.79 | 0.00 | 21 | 1014.9 |
| 20260510165504 | 81 | 355 | 4.0 | 9.0 | 0.00 | 0.79 | 0.00 | 20 | 1015.0 |
| 20260510165404 | 81 | 341 | 4.0 | 9.0 | 0.00 | 0.79 | 0.00 | 21 | 1014.9 |
| 20260510165306 | 81 | 335 | 4.0 | 9.0 | 0.00 | 0.79 | 0.00 | 20 | 1014.9 |
| 20260510165204 | 80 | 330 | 4.0 | 9.0 | 0.00 | 0.79 | 0.00 | 19 | 1015.0 |
| 20260510165104 | 80 | 322 | 4.0 | 9.0 | 0.00 | 0.79 | 0.00 | 20 | 1015.0 |
| 20260510165004 | 80 | 313 | 4.0 | 9.0 | 0.00 | 0.79 | 0.00 | 18 | 1015.0 |
| 20260510164925 | 80 | 308 | 4.0 | 9.0 | 0.00 | 0.79 | 0.00 | 18 | 1015.0 |
| 20260510164804 | 80 | 305 | 4.0 | 9.0 | 0.00 | 0.79 | 0.00 | 17 | 1015.0 |
| 20260510164704 | 80 | 304 | 4.0 | 9.0 | 0.00 | 0.79 | 0.00 | 17 | 1015.0 |
| 20260510164604 | 80 | 298 | 4.0 | 10.0 | 0.00 | 0.79 | 0.00 | 17 | 1015.0 |
| 20260510164504 | 80 | 296 | 4.0 | 10.0 | 0.00 | 0.79 | 0.00 | 17 | 1015.0 |
| 20260510164404 | 80 | 298 | 4.0 | 10.0 | 0.00 | 0.79 | 0.00 | 17 | 1015.1 |
| 20260510164304 | 80 | 293 | 5.0 | 10.0 | 0.00 | 0.79 | 0.00 | 17 | 1015.0 |
| 20260510164204 | 80 | 288 | 5.0 | 10.0 | 0.00 | 0.79 | 0.00 | 19 | 1015.0 |
| 20260510164104 | 80 | 293 | 5.0 | 10.0 | 0.00 | 0.79 | 0.00 | 20 | 1015.0 |
| 20260510164004 | 80 | 295 | 5.0 | 10.0 | 0.00 | 0.79 | 0.00 | 18 | 1015.0 |
| 20260510163904 | 80 | 299 | 5.0 | 10.0 | 0.00 | 0.79 | 0.00 | 15 | 1015.0 |
| 20260510163804 | 80 | 302 | 5.0 | 10.0 | 0.00 | 0.79 | 0.00 | 15 | 1015.0 |
| 20260510163704 | 80 | 300 | 5.0 | 13.0 | 0.00 | 0.79 | 0.00 | 16 | 1014.9 |
| 20260510163604 | 80 | 299 | 4.0 | 13.0 | 0.00 | 0.79 | 0.00 | 16 | 1015.0 |
| 20260510163504 | 80 | 301 | 4.0 | 13.0 | 0.00 | 0.79 | 0.00 | 17 | 1015.0 |
| 20260510163425 | 80 | 302 | 4.0 | 13.0 | 0.00 | 0.79 | 0.00 | 17 | 1015.0 |
| 20260510163304 | 80 | 308 | 4.0 | 13.0 | 0.00 | 0.79 | 0.00 | 18 | 1015.0 |
| 20260510163204 | 80 | 311 | 4.0 | 13.0 | 0.00 | 0.79 | 0.00 | 16 | 1015.0 |
| 20260510163125 | 80 | 311 | 3.0 | 13.0 | 0.00 | 0.79 | 0.00 | 15 | 1015.0 |
| 20260510163004 | 80 | 312 | 4.0 | 13.0 | 0.00 | 0.79 | 0.00 | 14 | 1015.0 |
| 20260510162904 | 80 | 312 | 4.0 | 13.0 | 0.00 | 0.79 | 0.00 | 13 | 1015.0 |
| 20260510162804 | 80 | 308 | 4.0 | 13.0 | 0.00 | 0.79 | 0.00 | 10 | 1015.0 |
| 20260510162704 | 80 | 312 | 4.0 | 11.0 | 0.00 | 0.79 | 0.00 | 5 | 1015.0 |
| 20260510162604 | 79 | 317 | 4.0 | 11.0 | 0.00 | 0.79 | 0.00 | 7 | 1015.1 |
| 20260510162504 | 79 | 320 | 4.0 | 11.0 | 0.00 | 0.79 | 0.00 | 6 | 1015.1 |
| 20260510162404 | 79 | 321 | 4.0 | 11.0 | 0.00 | 0.79 | 0.00 | 6 | 1015.0 |
| 20260510162306 | 79 | 320 | 4.0 | 11.0 | 0.00 | 0.79 | 0.00 | 7 | 1015.0 |
| 20260510162204 | 79 | 318 | 4.0 | 11.0 | 0.00 | 0.79 | 0.00 | 8 | 1015.0 |
| 20260510162104 | 79 | 315 | 4.0 | 11.0 | 0.00 | 0.79 | 0.00 | 11 | 1015.0 |
| 20260510162004 | 79 | 316 | 4.0 | 11.0 | 0.00 | 0.79 | 0.00 | 12 | 1015.0 |
| 20260510161925 | 79 | 316 | 4.0 | 11.0 | 0.00 | 0.79 | 0.00 | 9 | 1015.0 |
| 20260510161805 | 79 | 321 | 4.0 | 10.0 | 0.00 | 0.79 | 0.00 | 9 | 1015.1 |
| 20260510161704 | 79 | 319 | 4.0 | 10.0 | 0.00 | 0.79 | 0.00 | 9 | 1015.1 |
| 20260510161604 | 79 | 321 | 4.0 | 10.0 | 0.00 | 0.79 | 0.00 | 6 | 1015.1 |
| 20260510161504 | 79 | 326 | 4.0 | 10.0 | 0.00 | 0.79 | 0.00 | 2 | 1015.1 |
| 20260510161404 | 79 | 331 | 4.0 | 10.0 | 0.00 | 0.79 | 0.00 | 1 | 1015.1 |
| 20260510161304 | 79 | 341 | 4.0 | 10.0 | 0.00 | 0.79 | 0.00 | 4 | 1015.0 |
| 20260510161225 | 79 | 347 | 4.0 | 10.0 | 0.00 | 0.79 | 0.00 | 7 | 1015.1 |
| 20260510161104 | 79 | 357 | 4.0 | 10.0 | 0.00 | 0.79 | 0.00 | 8 | 1015.1 |
| 20260510161004 | 79 | 3 | 3.0 | 10.0 | 0.00 | 0.79 | 0.00 | 9 | 1015.1 |
| 20260510160904 | 79 | 10 | 3.0 | 7.0 | 0.00 | 0.79 | 0.00 | 4 | 1015.0 |
| 20260510160804 | 79 | 6 | 3.0 | 7.0 | 0.00 | 0.79 | 0.00 | 2 | 1015.0 |
| 20260510160704 | 79 | 4 | 3.0 | 7.0 | 0.00 | 0.79 | 0.00 | 2 | 1015.0 |
| 20260510160604 | 79 | 352 | 3.0 | 7.0 | 0.00 | 0.79 | 0.00 | 2 | 1015.0 |
| 20260510160504 | 79 | 328 | 3.0 | 7.0 | 0.00 | 0.79 | 0.00 | 1 | 1015.0 |
| 20260510160404 | 79 | 302 | 3.0 | 5.0 | 0.00 | 0.79 | 0.00 | 1 | 1014.9 |
| 20260510160304 | 79 | 293 | 3.0 | 5.0 | 0.00 | 0.79 | 0.00 | 1 | 1015.0 |
| 20260510160204 | 79 | 285 | 3.0 | 5.0 | 0.00 | 0.79 | 0.00 | 1 | 1015.0 |
| 20260510160104 | 78 | 280 | 3.0 | 5.0 | 0.00 | 0.79 | 0.00 | 1 | 1015.0 |
| 20260510160004 | 78 | 280 | 3.0 | 7.0 | 0.00 | 0.79 | 0.00 | 1 | 1014.9 |
| 20260510155904 | 78 | 277 | 3.0 | 7.0 | 0.00 | 0.79 | 0.00 | 1 | 1014.9 |
| 20260510155804 | 78 | 277 | 3.0 | 7.0 | 0.00 | 0.79 | 0.00 | 1 | 1014.9 |
| 20260510155704 | 78 | 279 | 3.0 | 7.0 | 0.00 | 0.79 | 0.00 | 1 | 1015.0 |
| 20260510155625 | 78 | 282 | 3.0 | 7.0 | 0.00 | 0.79 | 0.00 | 1 | 1014.9 |
| 20260510155504 | 78 | 288 | 3.0 | 7.0 | 0.00 | 0.79 | 0.00 | 1 | 1015.0 |
| 20260510155404 | 78 | 298 | 3.0 | 7.0 | 0.00 | 0.79 | 0.00 | 1 | 1014.9 |
| 20260510155306 | 78 | 304 | 3.0 | 7.0 | 0.00 | 0.79 | 0.00 | 1 | 1014.9 |
| 20260510155204 | 78 | 309 | 3.0 | 7.0 | 0.00 | 0.79 | 0.00 | 1 | 1014.9 |
| 20260510155104 | 78 | 314 | 3.0 | 7.0 | 0.00 | 0.79 | 0.00 | 1 | 1014.9 |
| 20260510155004 | 78 | 312 | 3.0 | 7.0 | 0.00 | 0.79 | 0.00 | 1 | 1014.8 |
| 20260510154904 | 78 | 310 | 3.0 | 7.0 | 0.00 | 0.79 | 0.00 | 1 | 1014.8 |
| 20260510154804 | 78 | 309 | 3.0 | 8.0 | 0.00 | 0.79 | 0.00 | 1 | 1014.8 |
| 20260510154704 | 78 | 306 | 3.0 | 8.0 | 0.00 | 0.79 | 0.00 | 1 | 1014.8 |
| 20260510154604 | 77 | 299 | 3.0 | 8.0 | 0.00 | 0.79 | 0.00 | 1 | 1014.9 |
| 20260510154504 | 77 | 293 | 3.0 | 8.0 | 0.00 | 0.79 | 0.00 | 1 | 1014.9 |
| 20260510154405 | 77 | 285 | 4.0 | 8.0 | 0.00 | 0.79 | 0.00 | 1 | 1014.9 |
| 20260510154304 | 77 | 282 | 4.0 | 8.0 | 0.00 | 0.79 | 0.00 | 1 | 1015.0 |
| 20260510154204 | 77 | 282 | 4.0 | 8.0 | 0.00 | 0.79 | 0.00 | 1 | 1014.9 |
| 20260510154104 | 77 | 280 | 4.0 | 8.0 | 0.00 | 0.79 | 0.00 | 1 | 1015.0 |
| 20260510154025 | 77 | 281 | 4.0 | 8.0 | 0.00 | 0.79 | 0.00 | 1 | 1015.0 |
| 20260510153925 | 77 | 283 | 4.0 | 8.0 | 0.00 | 0.79 | 0.00 | 1 | 1014.9 |
| 20260510153804 | 76 | 284 | 4.0 | 10.0 | 0.00 | 0.79 | 0.00 | 1 | 1014.9 |
| 20260510153725 | 76 | 287 | 4.0 | 10.0 | 0.00 | 0.79 | 0.00 | 1 | 1014.9 |
| 20260510153604 | 76 | 289 | 4.0 | 10.0 | 0.00 | 0.79 | 0.00 | 1 | 1014.9 |
| 20260510153504 | 76 | 290 | 4.0 | 10.0 | 0.00 | 0.79 | 0.00 | 1 | 1014.9 |
| 20260510153425 | 76 | 291 | 4.0 | 10.0 | 0.00 | 0.79 | 0.00 | 1 | 1014.9 |
| 20260510153304 | 76 | 288 | 4.0 | 10.0 | 0.00 | 0.79 | 0.00 | 1 | 1014.9 |
| 20260510153204 | 76 | 284 | 4.0 | 10.0 | 0.00 | 0.79 | 0.00 | 1 | 1014.9 |
| 20260510153104 | 76 | 281 | 4.0 | 10.0 | 0.00 | 0.79 | 0.00 | 1 | 1014.9 |
| 20260510153004 | 76 | 277 | 4.0 | 10.0 | 0.00 | 0.79 | 0.00 | 1 | 1014.8 |
| 20260510152904 | 76 | 274 | 4.0 | 10.0 | 0.00 | 0.79 | 0.00 | 1 | 1014.8 |
| 20260510152804 | 76 | 272 | 4.0 | 10.0 | 0.00 | 0.79 | 0.00 | 1 | 1014.8 |
| 20260510152704 | 76 | 266 | 3.0 | 6.0 | 0.00 | 0.79 | 0.00 | 1 | 1014.9 |
| 20260510152604 | 76 | 263 | 3.0 | 8.0 | 0.00 | 0.79 | 0.00 | 1 | 1014.9 |
| 20260510152504 | 76 | 261 | 3.0 | 8.0 | 0.00 | 0.79 | 0.00 | 1 | 1014.8 |
| 20260510152404 | 76 | 260 | 3.0 | 8.0 | 0.00 | 0.79 | 0.00 | 1 | 1014.9 |
| 20260510152307 | 76 | 259 | 3.0 | 8.0 | 0.00 | 0.79 | 0.00 | 1 | 1014.9 |
| 20260510152204 | 76 | 257 | 3.0 | 8.0 | 0.00 | 0.79 | 0.00 | 1 | 1014.9 |
| 20260510152125 | 76 | 256 | 3.0 | 8.0 | 0.00 | 0.79 | 0.00 | 1 | 1014.8 |
| 20260510152004 | 76 | 257 | 3.0 | 8.0 | 0.00 | 0.79 | 0.00 | 1 | 1014.8 |
| 20260510151904 | 76 | 260 | 3.0 | 8.0 | 0.00 | 0.79 | 0.00 | 1 | 1014.8 |
| 20260510151804 | 76 | 267 | 4.0 | 8.0 | 0.00 | 0.79 | 0.00 | 1 | 1014.8 |
| 20260510151704 | 76 | 273 | 4.0 | 8.0 | 0.00 | 0.79 | 0.00 | 1 | 1014.8 |
| 20260510151625 | 76 | 279 | 4.0 | 8.0 | 0.00 | 0.79 | 0.00 | 1 | 1014.8 |
| 20260510151504 | 76 | 282 | 4.0 | 8.0 | 0.00 | 0.79 | 0.00 | 1 | 1014.8 |
| 20260510151404 | 76 | 283 | 4.0 | 8.0 | 0.00 | 0.79 | 0.00 | 1 | 1014.7 |
| 20260510151304 | 76 | 285 | 4.0 | 8.0 | 0.00 | 0.79 | 0.00 | 1 | 1014.7 |
| 20260510151204 | 76 | 285 | 4.0 | 8.0 | 0.00 | 0.79 | 0.00 | 1 | 1014.8 |
| 20260510151104 | 76 | 287 | 4.0 | 8.0 | 0.00 | 0.79 | 0.00 | 1 | 1014.7 |
| 20260510151004 | 76 | 288 | 4.0 | 8.0 | 0.00 | 0.79 | 0.00 | 1 | 1014.7 |
| 20260510150904 | 76 | 285 | 4.0 | 8.0 | 0.00 | 0.79 | 0.00 | 1 | 1014.7 |
| 20260510150825 | 76 | 281 | 3.0 | 8.0 | 0.00 | 0.79 | 0.00 | 1 | 1014.8 |
| 20260510150704 | 76 | 270 | 4.0 | 8.0 | 0.00 | 0.79 | 0.00 | 1 | 1014.8 |
| 20260510150625 | 76 | 263 | 4.0 | 9.0 | 0.00 | 0.79 | 0.00 | 1 | 1014.8 |
| 20260510150504 | 76 | 261 | 4.0 | 9.0 | 0.00 | 0.79 | 0.00 | 1 | 1014.8 |
| 20260510150404 | 76 | 260 | 4.0 | 9.0 | 0.00 | 0.79 | 0.00 | 1 | 1014.8 |
| 20260510150304 | 76 | 260 | 4.0 | 9.0 | 0.00 | 0.79 | 0.00 | 1 | 1014.8 |
| 20260510150204 | 76 | 259 | 4.0 | 9.0 | 0.00 | 0.79 | 0.00 | 1 | 1014.8 |
| 20260510150104 | 76 | 259 | 4.0 | 9.0 | 0.00 | 0.79 | 0.00 | 1 | 1014.8 |
| 20260510150004 | 76 | 259 | 4.0 | 9.0 | 0.00 | 0.79 | 0.00 | 1 | 1014.8 |
| 20260510145904 | 76 | 260 | 4.0 | 9.0 | 0.00 | 0.79 | 0.00 | 1 | 1014.8 |
| 20260510145804 | 76 | 260 | 4.0 | 9.0 | 0.00 | 0.79 | 0.00 | 1 | 1014.8 |
| 20260510145704 | 76 | 260 | 4.0 | 9.0 | 0.00 | 0.79 | 0.00 | 1 | 1014.8 |
| 20260510145625 | 76 | 260 | 3.0 | 8.0 | 0.00 | 0.79 | 0.00 | 1 | 1014.8 |
| 20260510145525 | 76 | 261 | 3.0 | 7.0 | 0.00 | 0.79 | 0.00 | 1 | 1014.8 |
| 20260510145404 | 76 | 262 | 3.0 | 7.0 | 0.00 | 0.79 | 0.00 | 1 | 1014.8 |
| 20260510145306 | 76 | 262 | 3.0 | 7.0 | 0.00 | 0.79 | 0.00 | 1 | 1014.8 |
| 20260510145204 | 77 | 262 | 3.0 | 7.0 | 0.00 | 0.79 | 0.00 | 1 | 1014.8 |
| 20260510145104 | 77 | 261 | 3.0 | 6.0 | 0.00 | 0.79 | 0.00 | 1 | 1014.8 |
| 20260510145025 | 77 | 260 | 3.0 | 6.0 | 0.00 | 0.79 | 0.00 | 1 | 1014.8 |
| 20260510144904 | 77 | 260 | 3.0 | 7.0 | 0.00 | 0.79 | 0.00 | 1 | 1014.7 |
| 20260510144804 | 77 | 261 | 3.0 | 7.0 | 0.00 | 0.79 | 0.00 | 1 | 1014.7 |
| 20260510144725 | 77 | 260 | 3.0 | 7.0 | 0.00 | 0.79 | 0.00 | 1 | 1014.7 |
| 20260510144604 | 77 | 263 | 3.0 | 7.0 | 0.00 | 0.79 | 0.00 | 1 | 1014.6 |
| 20260510144504 | 77 | 266 | 3.0 | 7.0 | 0.00 | 0.79 | 0.00 | 1 | 1014.7 |
| 20260510144405 | 77 | 270 | 3.0 | 8.0 | 0.00 | 0.79 | 0.00 | 1 | 1014.6 |
| 20260510144304 | 77 | 276 | 3.0 | 8.0 | 0.00 | 0.79 | 0.00 | 1 | 1014.6 |
| 20260510144204 | 77 | 283 | 3.0 | 8.0 | 0.00 | 0.79 | 0.00 | 1 | 1014.6 |
| 20260510144104 | 77 | 289 | 3.0 | 8.0 | 0.00 | 0.79 | 0.00 | 1 | 1014.6 |
| 20260510144004 | 78 | 295 | 3.0 | 8.0 | 0.00 | 0.79 | 0.00 | 1 | 1014.6 |
| 20260510143904 | 78 | 302 | 3.0 | 8.0 | 0.00 | 0.79 | 0.00 | 1 | 1014.6 |
| 20260510143804 | 78 | 307 | 3.0 | 8.0 | 0.00 | 0.79 | 0.00 | 1 | 1014.5 |
| 20260510143725 | 78 | 311 | 3.0 | 8.0 | 0.00 | 0.79 | 0.00 | 1 | 1014.6 |
| 20260510143604 | 78 | 316 | 3.0 | 8.0 | 0.00 | 0.79 | 0.00 | 1 | 1014.6 |
| 20260510143504 | 78 | 317 | 3.0 | 8.0 | 0.00 | 0.79 | 0.00 | 1 | 1014.5 |
| 20260510143404 | 78 | 319 | 2.0 | 7.0 | 0.00 | 0.79 | 0.00 | 1 | 1014.6 |
| 20260510143304 | 78 | 322 | 2.0 | 7.0 | 0.00 | 0.79 | 0.00 | 1 | 1014.5 |
| 20260510143204 | 78 | 320 | 2.0 | 7.0 | 0.00 | 0.79 | 0.00 | 1 | 1014.5 |
| 20260510143104 | 78 | 319 | 2.0 | 7.0 | 0.00 | 0.79 | 0.00 | 1 | 1014.5 |
| 20260510143004 | 78 | 319 | 2.0 | 7.0 | 0.00 | 0.79 | 0.00 | 1 | 1014.4 |
| 20260510142904 | 78 | 320 | 2.0 | 5.0 | 0.00 | 0.79 | 0.00 | 1 | 1014.4 |
| 20260510142804 | 78 | 323 | 2.0 | 5.0 | 0.00 | 0.79 | 0.00 | 1 | 1014.4 |
| 20260510142704 | 78 | 323 | 2.0 | 5.0 | 0.00 | 0.79 | 0.00 | 1 | 1014.4 |
| 20260510142604 | 78 | 322 | 2.0 | 5.0 | 0.00 | 0.79 | 0.00 | 1 | 1014.4 |
| 20260510142525 | 78 | 322 | 2.0 | 5.0 | 0.00 | 0.79 | 0.00 | 1 | 1014.4 |
| 20260510142404 | 77 | 321 | 2.0 | 5.0 | 0.00 | 0.79 | 0.00 | 1 | 1014.4 |
| 20260510142306 | 77 | 319 | 2.0 | 5.0 | 0.00 | 0.79 | 0.00 | 1 | 1014.4 |
| 20260510142205 | 77 | 319 | 2.0 | 5.0 | 0.00 | 0.79 | 0.00 | 1 | 1014.4 |
| 20260510142104 | 77 | 319 | 2.0 | 5.0 | 0.00 | 0.79 | 0.00 | 1 | 1014.3 |
| 20260510142004 | 77 | 319 | 2.0 | 5.0 | 0.00 | 0.79 | 0.00 | 1 | 1014.3 |
| 20260510141904 | 77 | 319 | 2.0 | 5.0 | 0.00 | 0.79 | 0.00 | 1 | 1014.3 |
| 20260510141825 | 77 | 319 | 2.0 | 5.0 | 0.00 | 0.79 | 0.00 | 1 | 1014.2 |
| 20260510141704 | 77 | 319 | 2.0 | 5.0 | 0.00 | 0.79 | 0.00 | 1 | 1014.2 |
| 20260510141604 | 77 | 319 | 2.0 | 5.0 | 0.00 | 0.79 | 0.00 | 1 | 1014.2 |
| 20260510141504 | 77 | 319 | 2.0 | 5.0 | 0.00 | 0.79 | 0.00 | 1 | 1014.2 |
| 20260510141404 | 77 | 320 | 2.0 | 5.0 | 0.00 | 0.79 | 0.00 | 1 | 1014.2 |
| 20260510141304 | 77 | 320 | 2.0 | 5.0 | 0.00 | 0.79 | 0.00 | 1 | 1014.2 |
| 20260510141204 | 77 | 320 | 2.0 | 5.0 | 0.00 | 0.79 | 0.00 | 1 | 1014.2 |
| 20260510141104 | 77 | 320 | 2.0 | 5.0 | 0.00 | 0.79 | 0.00 | 1 | 1014.1 |
| 20260510141025 | 77 | 318 | 2.0 | 5.0 | 0.00 | 0.79 | 0.00 | 1 | 1014.1 |
| 20260510140925 | 77 | 317 | 2.0 | 5.0 | 0.00 | 0.79 | 0.00 | 1 | 1014.2 |
| 20260510140804 | 77 | 316 | 2.0 | 6.0 | 0.00 | 0.79 | 0.00 | 1 | 1014.1 |
| 20260510140704 | 77 | 313 | 2.0 | 6.0 | 0.00 | 0.79 | 0.00 | 1 | 1014.1 |
| 20260510140604 | 76 | 311 | 2.0 | 6.0 | 0.00 | 0.79 | 0.00 | 1 | 1014.0 |
| 20260510140504 | 76 | 306 | 3.0 | 6.0 | 0.00 | 0.79 | 0.00 | 1 | 1014.1 |
| 20260510140404 | 76 | 302 | 3.0 | 6.0 | 0.00 | 0.79 | 0.00 | 1 | 1014.1 |
| 20260510140325 | 76 | 299 | 3.0 | 6.0 | 0.00 | 0.79 | 0.00 | 1 | 1014.1 |
| 20260510140204 | 76 | 293 | 2.0 | 6.0 | 0.00 | 0.79 | 0.00 | 1 | 1014.1 |
| 20260510140125 | 76 | 292 | 2.0 | 6.0 | 0.00 | 0.79 | 0.00 | 1 | 1014.1 |
| 20260510140004 | 76 | 291 | 2.0 | 6.0 | 0.00 | 0.79 | 0.00 | 1 | 1014.1 |
| 20260510135904 | 76 | 290 | 2.0 | 6.0 | 0.00 | 0.79 | 0.00 | 1 | 1014.1 |
| 20260510135804 | 76 | 285 | 2.0 | 4.0 | 0.00 | 0.79 | 0.00 | 1 | 1014.0 |
| 20260510135704 | 76 | 287 | 2.0 | 4.0 | 0.00 | 0.79 | 0.00 | 1 | 1014.0 |
| 20260510135604 | 76 | 288 | 2.0 | 4.0 | 0.00 | 0.79 | 0.00 | 1 | 1014.0 |
| 20260510135504 | 76 | 292 | 2.0 | 4.0 | 0.00 | 0.79 | 0.00 | 1 | 1013.9 |
| 20260510135425 | 76 | 295 | 2.0 | 4.0 | 0.00 | 0.79 | 0.00 | 1 | 1013.9 |
| 20260510135306 | 76 | 303 | 2.0 | 4.0 | 0.00 | 0.79 | 0.00 | 1 | 1014.0 |
| 20260510135204 | 76 | 309 | 2.0 | 4.0 | 0.00 | 0.79 | 0.00 | 1 | 1014.0 |
| 20260510135104 | 76 | 311 | 2.0 | 5.0 | 0.00 | 0.79 | 0.00 | 1 | 1014.0 |
| 20260510135025 | 76 | 311 | 2.0 | 5.0 | 0.00 | 0.79 | 0.00 | 1 | 1013.9 |
| 20260510134904 | 76 | 312 | 2.0 | 5.0 | 0.00 | 0.79 | 0.00 | 1 | 1014.0 |
| 20260510134804 | 76 | 312 | 2.0 | 5.0 | 0.00 | 0.79 | 0.00 | 1 | 1014.0 |
| 20260510134704 | 75 | 312 | 2.0 | 6.0 | 0.00 | 0.79 | 0.00 | 1 | 1013.9 |
| 20260510134604 | 75 | 313 | 3.0 | 6.0 | 0.00 | 0.79 | 0.00 | 1 | 1013.9 |
| 20260510134525 | 75 | 314 | 2.0 | 6.0 | 0.00 | 0.79 | 0.00 | 1 | 1013.9 |
| 20260510134404 | 75 | 314 | 2.0 | 6.0 | 0.00 | 0.79 | 0.00 | 1 | 1013.9 |
| 20260510134304 | 75 | 315 | 2.0 | 6.0 | 0.00 | 0.79 | 0.00 | 1 | 1013.9 |
| 20260510134204 | 75 | 316 | 2.0 | 6.0 | 0.00 | 0.79 | 0.00 | 1 | 1013.8 |
| 20260510134104 | 75 | 318 | 2.0 | 6.0 | 0.00 | 0.79 | 0.00 | 1 | 1013.9 |
| 20260510134004 | 75 | 319 | 2.0 | 6.0 | 0.00 | 0.79 | 0.00 | 1 | 1013.9 |
| 20260510133904 | 75 | 321 | 2.0 | 6.0 | 0.00 | 0.79 | 0.00 | 1 | 1013.8 |
| 20260510133804 | 75 | 324 | 2.0 | 6.0 | 0.00 | 0.79 | 0.00 | 1 | 1013.8 |
| 20260510133704 | 75 | 327 | 2.0 | 5.0 | 0.00 | 0.79 | 0.00 | 1 | 1013.8 |
| 20260510133625 | 75 | 327 | 1.0 | 5.0 | 0.00 | 0.79 | 0.00 | 1 | 1013.8 |
| 20260510133504 | 75 | 328 | 2.0 | 5.0 | 0.00 | 0.79 | 0.00 | 1 | 1013.8 |
| 20260510133404 | 75 | 328 | 2.0 | 5.0 | 0.00 | 0.79 | 0.00 | 1 | 1013.7 |
| 20260510133304 | 75 | 327 | 2.0 | 5.0 | 0.00 | 0.79 | 0.00 | 1 | 1013.7 |
| 20260510133204 | 75 | 327 | 2.0 | 5.0 | 0.00 | 0.79 | 0.00 | 1 | 1013.6 |
| 20260510133104 | 75 | 327 | 2.0 | 5.0 | 0.00 | 0.79 | 0.00 | 1 | 1013.6 |
| 20260510133004 | 74 | 327 | 2.0 | 5.0 | 0.00 | 0.79 | 0.00 | 1 | 1013.6 |
| 20260510132904 | 74 | 326 | 2.0 | 5.0 | 0.00 | 0.79 | 0.00 | 1 | 1013.6 |
| 20260510132825 | 74 | 326 | 2.0 | 5.0 | 0.00 | 0.79 | 0.00 | 1 | 1013.6 |
| 20260510132725 | 74 | 326 | 2.0 | 5.0 | 0.00 | 0.79 | 0.00 | 1 | 1013.5 |
| 20260510132604 | 74 | 324 | 2.0 | 5.0 | 0.00 | 0.79 | 0.00 | 1 | 1013.5 |
| 20260510132504 | 74 | 322 | 2.0 | 5.0 | 0.00 | 0.79 | 0.00 | 1 | 1013.5 |
| 20260510132404 | 74 | 321 | 2.0 | 5.0 | 0.00 | 0.79 | 0.00 | 1 | 1013.6 |
| 20260510132306 | 74 | 319 | 2.0 | 5.0 | 0.00 | 0.79 | 0.00 | 1 | 1013.6 |
| 20260510132225 | 74 | 317 | 2.0 | 5.0 | 0.00 | 0.79 | 0.00 | 1 | 1013.5 |
| 20260510132104 | 74 | 315 | 2.0 | 5.0 | 0.00 | 0.79 | 0.00 | 1 | 1013.5 |
| 20260510132004 | 74 | 313 | 2.0 | 5.0 | 0.00 | 0.79 | 0.00 | 1 | 1013.5 |
| 20260510131904 | 74 | 312 | 2.0 | 5.0 | 0.00 | 0.79 | 0.00 | 1 | 1013.5 |
| 20260510131825 | 74 | 313 | 2.0 | 5.0 | 0.00 | 0.79 | 0.00 | 1 | 1013.4 |
| 20260510131725 | 74 | 320 | 2.0 | 5.0 | 0.00 | 0.79 | 0.00 | 1 | 1013.4 |
| 20260510131604 | 74 | 331 | 2.0 | 5.0 | 0.00 | 0.79 | 0.00 | 1 | 1013.4 |
| 20260510131504 | 73 | 339 | 2.0 | 5.0 | 0.00 | 0.79 | 0.00 | 1 | 1013.4 |
| 20260510131404 | 73 | 347 | 2.0 | 5.0 | 0.00 | 0.79 | 0.00 | 1 | 1013.3 |
| 20260510131304 | 73 | 357 | 2.0 | 5.0 | 0.00 | 0.79 | 0.00 | 1 | 1013.3 |
| 20260510131204 | 73 | 7 | 2.0 | 5.0 | 0.00 | 0.79 | 0.00 | 1 | 1013.3 |
| 20260510131104 | 73 | 15 | 2.0 | 5.0 | 0.00 | 0.79 | 0.00 | 1 | 1013.3 |
| 20260510131025 | 73 | 21 | 2.0 | 5.0 | 0.00 | 0.79 | 0.00 | 1 | 1013.2 |
| 20260510130904 | 73 | 30 | 2.0 | 5.0 | 0.00 | 0.79 | 0.00 | 1 | 1013.3 |
| 20260510130804 | 73 | 34 | 2.0 | 5.0 | 0.00 | 0.79 | 0.00 | 1 | 1013.3 |
| 20260510130704 | 73 | 34 | 2.0 | 5.0 | 0.00 | 0.79 | 0.00 | 1 | 1013.3 |
| 20260510130604 | 73 | 35 | 2.0 | 5.0 | 0.00 | 0.79 | 0.00 | 1 | 1013.3 |
| 20260510130504 | 73 | 35 | 2.0 | 5.0 | 0.00 | 0.79 | 0.00 | 1 | 1013.2 |
| 20260510130404 | 73 | 35 | 2.0 | 5.0 | 0.00 | 0.79 | 0.00 | 1 | 1013.3 |
| 20260510130304 | 73 | 35 | 2.0 | 5.0 | 0.00 | 0.79 | 0.00 | 1 | 1013.3 |
| 20260510130204 | 73 | 36 | 2.0 | 5.0 | 0.00 | 0.79 | 0.00 | 1 | 1013.3 |
| 20260510130104 | 73 | 36 | 2.0 | 5.0 | 0.00 | 0.79 | 0.00 | 1 | 1013.3 |
| 20260510130004 | 73 | 36 | 2.0 | 5.0 | 0.00 | 0.79 | 0.00 | 1 | 1013.3 |
| 20260510125904 | 73 | 37 | 2.0 | 5.0 | 0.00 | 0.79 | 0.00 | 1 | 1013.2 |
| 20260510125804 | 73 | 37 | 1.0 | 4.0 | 0.00 | 0.79 | 0.00 | 1 | 1013.2 |
| 20260510125704 | 73 | 37 | 1.0 | 4.0 | 0.00 | 0.79 | 0.00 | 1 | 1013.3 |
| 20260510125604 | 73 | 37 | 1.0 | 4.0 | 0.00 | 0.79 | 0.00 | 1 | 1013.2 |
| 20260510125525 | 73 | 37 | 1.0 | 4.0 | 0.00 | 0.79 | 0.00 | 1 | 1013.2 |
| 20260510125425 | 73 | 37 | 1.0 | 4.0 | 0.00 | 0.79 | 0.00 | 1 | 1013.2 |
| 20260510125306 | 73 | 37 | 1.0 | 3.0 | 0.00 | 0.79 | 0.00 | 1 | 1013.2 |
| 20260510125204 | 73 | 37 | 1.0 | 3.0 | 0.00 | 0.79 | 0.00 | 1 | 1013.1 |
| 20260510125104 | 73 | 37 | 1.0 | 3.0 | 0.00 | 0.79 | 0.00 | 1 | 1013.1 |
| 20260510125025 | 73 | 37 | 1.0 | 3.0 | 0.00 | 0.79 | 0.00 | 1 | 1013.1 |
| 20260510124904 | 73 | 37 | 1.0 | 3.0 | 0.00 | 0.79 | 0.00 | 1 | 1013.0 |
| 20260510124804 | 73 | 37 | 1.0 | 3.0 | 0.00 | 0.79 | 0.00 | 1 | 1013.0 |
| 20260510124704 | 73 | 37 | 1.0 | 3.0 | 0.00 | 0.79 | 0.00 | 1 | 1013.1 |
| 20260510124604 | 73 | 37 | 1.0 | 3.0 | 0.00 | 0.79 | 0.00 | 1 | 1013.0 |
| 20260510124504 | 72 | 37 | 1.0 | 3.0 | 0.00 | 0.79 | 0.00 | 1 | 1013.0 |
| 20260510124425 | 72 | 37 | 1.0 | 3.0 | 0.00 | 0.79 | 0.00 | 1 | 1013.0 |
| 20260510124325 | 72 | 37 | 1.0 | 3.0 | 0.00 | 0.79 | 0.00 | 1 | 1013.0 |
| 20260510124204 | 72 | 37 | 1.0 | 3.0 | 0.00 | 0.79 | 0.00 | 1 | 1013.0 |
| 20260510124104 | 72 | 37 | 1.0 | 5.0 | 0.00 | 0.79 | 0.00 | 1 | 1013.0 |
| 20260510124004 | 72 | 38 | 1.0 | 5.0 | 0.00 | 0.79 | 0.00 | 1 | 1013.0 |
| 20260510123904 | 72 | 38 | 1.0 | 5.0 | 0.00 | 0.79 | 0.00 | 1 | 1013.0 |
| 20260510123804 | 72 | 38 | 1.0 | 5.0 | 0.00 | 0.79 | 0.00 | 1 | 1012.9 |
| 20260510123704 | 72 | 39 | 1.0 | 5.0 | 0.00 | 0.79 | 0.00 | 1 | 1012.9 |
| 20260510123604 | 72 | 39 | 2.0 | 5.0 | 0.00 | 0.79 | 0.00 | 1 | 1012.8 |
| 20260510123504 | 71 | 39 | 2.0 | 5.0 | 0.00 | 0.79 | 0.00 | 1 | 1012.8 |
| 20260510123404 | 71 | 39 | 2.0 | 5.0 | 0.00 | 0.79 | 0.00 | 1 | 1012.8 |
| 20260510123304 | 71 | 39 | 2.0 | 5.0 | 0.00 | 0.79 | 0.00 | 1 | 1012.6 |
| 20260510123204 | 71 | 39 | 2.0 | 5.0 | 0.00 | 0.79 | 0.00 | 1 | 1012.6 |
| 20260510123104 | 71 | 39 | 2.0 | 5.0 | 0.00 | 0.79 | 0.00 | 1 | 1012.6 |
| 20260510123004 | 71 | 39 | 2.0 | 5.0 | 0.00 | 0.79 | 0.00 | 1 | 1012.5 |
| 20260510122925 | 71 | 39 | 2.0 | 5.0 | 0.00 | 0.79 | 0.00 | 1 | 1012.5 |
| 20260510122804 | 71 | 39 | 2.0 | 5.0 | 0.00 | 0.79 | 0.00 | 1 | 1012.5 |
| 20260510122725 | 71 | 39 | 2.0 | 5.0 | 0.00 | 0.79 | 0.00 | 1 | 1012.4 |
| 20260510122604 | 71 | 39 | 2.0 | 5.0 | 0.00 | 0.79 | 0.00 | 1 | 1012.4 |
| 20260510122504 | 71 | 40 | 2.0 | 5.0 | 0.00 | 0.79 | 0.00 | 1 | 1012.4 |
| 20260510122425 | 71 | 40 | 2.0 | 5.0 | 0.00 | 0.79 | 0.00 | 1 | 1012.4 |
| 20260510122306 | 71 | 40 | 2.0 | 5.0 | 0.00 | 0.79 | 0.00 | 1 | 1012.4 |
| 20260510122204 | 71 | 40 | 2.0 | 5.0 | 0.00 | 0.79 | 0.00 | 1 | 1012.4 |
| 20260510122125 | 71 | 40 | 2.0 | 5.0 | 0.00 | 0.79 | 0.00 | 1 | 1012.4 |
| 20260510122025 | 70 | 40 | 2.0 | 5.0 | 0.00 | 0.79 | 0.00 | 1 | 1012.3 |
| 20260510121904 | 70 | 41 | 2.0 | 5.0 | 0.00 | 0.79 | 0.00 | 1 | 1012.3 |
| 20260510121804 | 70 | 41 | 2.0 | 5.0 | 0.00 | 0.79 | 0.00 | 1 | 1012.3 |
| 20260510121725 | 70 | 41 | 2.0 | 5.0 | 0.00 | 0.79 | 0.00 | 1 | 1012.3 |
| 20260510121604 | 70 | 41 | 2.0 | 5.0 | 0.00 | 0.79 | 0.00 | 1 | 1012.3 |
| 20260510121504 | 70 | 41 | 2.0 | 5.0 | 0.00 | 0.79 | 0.00 | 1 | 1012.3 |
| 20260510121404 | 70 | 41 | 1.0 | 4.0 | 0.00 | 0.79 | 0.00 | 1 | 1012.3 |
| 20260510121304 | 70 | 41 | 1.0 | 3.0 | 0.00 | 0.79 | 0.00 | 1 | 1012.2 |
| 20260510121204 | 70 | 41 | 1.0 | 3.0 | 0.00 | 0.79 | 0.00 | 1 | 1012.3 |
| 20260510121104 | 70 | 41 | 1.0 | 3.0 | 0.00 | 0.79 | 0.00 | 1 | 1012.2 |
| 20260510121004 | 70 | 41 | 1.0 | 3.0 | 0.00 | 0.79 | 0.00 | 1 | 1012.3 |
| 20260510120904 | 70 | 41 | 1.0 | 5.0 | 0.00 | 0.79 | 0.00 | 1 | 1012.3 |
| 20260510120804 | 70 | 41 | 1.0 | 5.0 | 0.00 | 0.79 | 0.00 | 1 | 1012.2 |
| 20260510120704 | 70 | 42 | 1.0 | 5.0 | 0.00 | 0.79 | 0.00 | 1 | 1012.3 |
| 20260510120604 | 70 | 42 | 1.0 | 5.0 | 0.00 | 0.79 | 0.00 | 1 | 1012.2 |
| 20260510120525 | 70 | 42 | 2.0 | 5.0 | 0.00 | 0.79 | 0.00 | 1 | 1012.2 |
| 20260510120404 | 70 | 42 | 2.0 | 5.0 | 0.00 | 0.79 | 0.00 | 1 | 1012.2 |
| 20260510120304 | 70 | 43 | 2.0 | 5.0 | 0.00 | 0.79 | 0.00 | 1 | 1012.2 |
| 20260510120225 | 70 | 43 | 2.0 | 5.0 | 0.00 | 0.79 | 0.00 | 1 | 1012.2 |
| 20260510120104 | 70 | 43 | 2.0 | 5.0 | 0.00 | 0.79 | 0.00 | 1 | 1012.2 |
| 20260510120025 | 70 | 43 | 2.0 | 5.0 | 0.00 | 0.79 | 0.00 | 1 | 1012.1 |
| 20260510115925 | 70 | 44 | 2.0 | 4.0 | 0.00 | 0.79 | 0.00 | 1 | 1012.1 |
| 20260510115804 | 70 | 44 | 2.0 | 5.0 | 0.00 | 0.79 | 0.00 | 1 | 1012.1 |
| 20260510115704 | 70 | 44 | 2.0 | 5.0 | 0.00 | 0.79 | 0.00 | 1 | 1012.1 |
| 20260510115604 | 70 | 44 | 2.0 | 5.0 | 0.00 | 0.79 | 0.00 | 1 | 1012.1 |
| 20260510115504 | 70 | 44 | 2.0 | 5.0 | 0.00 | 0.79 | 0.00 | 1 | 1012.1 |
| 20260510115404 | 70 | 44 | 2.0 | 5.0 | 0.00 | 0.79 | 0.00 | 1 | 1012.1 |
| 20260510115306 | 70 | 44 | 2.0 | 5.0 | 0.00 | 0.79 | 0.00 | 1 | 1012.1 |
| 20260510115204 | 70 | 44 | 2.0 | 5.0 | 0.00 | 0.79 | 0.00 | 1 | 1012.1 |
| 20260510115104 | 70 | 44 | 2.0 | 5.0 | 0.00 | 0.79 | 0.00 | 1 | 1012.1 |
| 20260510115004 | 70 | 44 | 2.0 | 5.0 | 0.00 | 0.79 | 0.00 | 1 | 1012.1 |
| 20260510114904 | 70 | 44 | 1.0 | 5.0 | 0.00 | 0.79 | 0.00 | 1 | 1012.1 |
| 20260510114804 | 70 | 44 | 1.0 | 4.0 | 0.00 | 0.79 | 0.00 | 1 | 1012.1 |
| 20260510114704 | 70 | 44 | 1.0 | 4.0 | 0.00 | 0.79 | 0.00 | 1 | 1012.1 |
| 20260510114604 | 70 | 44 | 1.0 | 4.0 | 0.00 | 0.79 | 0.00 | 1 | 1012.1 |
| 20260510114504 | 70 | 44 | 1.0 | 4.0 | 0.00 | 0.79 | 0.00 | 1 | 1012.1 |
| 20260510114404 | 70 | 44 | 1.0 | 4.0 | 0.00 | 0.79 | 0.00 | 1 | 1012.1 |
| 20260510114304 | 70 | 44 | 1.0 | 4.0 | 0.00 | 0.79 | 0.00 | 1 | 1012.1 |
| 20260510114204 | 70 | 44 | 1.0 | 4.0 | 0.00 | 0.79 | 0.00 | 1 | 1012.1 |
| 20260510114125 | 70 | 44 | 1.0 | 4.0 | 0.00 | 0.79 | 0.00 | 1 | 1012.1 |
| 20260510114025 | 70 | 44 | 1.0 | 4.0 | 0.00 | 0.79 | 0.00 | 1 | 1012.1 |
| 20260510113904 | 70 | 44 | 1.0 | 4.0 | 0.00 | 0.79 | 0.00 | 1 | 1012.1 |
| 20260510113804 | 70 | 44 | 1.0 | 4.0 | 0.00 | 0.79 | 0.00 | 1 | 1012.1 |
| 20260510113704 | 70 | 44 | 2.0 | 4.0 | 0.00 | 0.79 | 0.00 | 1 | 1012.1 |
| 20260510113604 | 70 | 44 | 2.0 | 4.0 | 0.00 | 0.79 | 0.00 | 1 | 1012.1 |
| 20260510113504 | 70 | 44 | 2.0 | 4.0 | 0.00 | 0.79 | 0.00 | 1 | 1012.1 |
| 20260510113404 | 70 | 44 | 2.0 | 4.0 | 0.00 | 0.79 | 0.00 | 1 | 1012.0 |
| 20260510113304 | 70 | 44 | 2.0 | 4.0 | 0.00 | 0.79 | 0.00 | 1 | 1012.0 |
| 20260510113204 | 70 | 44 | 2.0 | 4.0 | 0.00 | 0.79 | 0.00 | 1 | 1011.9 |
| 20260510113104 | 70 | 44 | 2.0 | 4.0 | 0.00 | 0.79 | 0.00 | 1 | 1012.0 |
| 20260510113004 | 70 | 44 | 2.0 | 4.0 | 0.00 | 0.79 | 0.00 | 1 | 1011.9 |
| 20260510112925 | 70 | 44 | 2.0 | 4.0 | 0.00 | 0.79 | 0.00 | 1 | 1011.9 |
| 20260510112804 | 70 | 44 | 2.0 | 4.0 | 0.00 | 0.79 | 0.00 | 1 | 1011.9 |
| 20260510112704 | 70 | 44 | 2.0 | 5.0 | 0.00 | 0.79 | 0.00 | 1 | 1011.8 |
| 20260510112604 | 70 | 44 | 2.0 | 5.0 | 0.00 | 0.79 | 0.00 | 1 | 1011.8 |
| 20260510112504 | 71 | 45 | 2.0 | 5.0 | 0.00 | 0.79 | 0.00 | 1 | 1011.8 |
| 20260510112404 | 71 | 45 | 2.0 | 5.0 | 0.00 | 0.79 | 0.00 | 1 | 1011.8 |
| 20260510112306 | 71 | 46 | 2.0 | 5.0 | 0.00 | 0.79 | 0.00 | 1 | 1011.9 |
| 20260510112204 | 71 | 46 | 2.0 | 5.0 | 0.00 | 0.79 | 0.00 | 1 | 1011.9 |
| 20260510112104 | 71 | 46 | 2.0 | 5.0 | 0.00 | 0.79 | 0.00 | 1 | 1011.9 |
| 20260510112004 | 71 | 46 | 2.0 | 5.0 | 0.00 | 0.79 | 0.00 | 1 | 1011.9 |
| 20260510111904 | 71 | 47 | 2.0 | 5.0 | 0.00 | 0.79 | 0.00 | 1 | 1011.8 |
| 20260510111804 | 71 | 47 | 2.0 | 5.0 | 0.00 | 0.79 | 0.00 | 1 | 1011.9 |
| 20260510111704 | 71 | 46 | 2.0 | 5.0 | 0.00 | 0.79 | 0.00 | 1 | 1011.9 |
| 20260510111604 | 71 | 45 | 2.0 | 5.0 | 0.00 | 0.79 | 0.00 | 1 | 1011.8 |
| 20260510111504 | 71 | 44 | 3.0 | 6.0 | 0.00 | 0.79 | 0.00 | 1 | 1011.8 |
| 20260510111404 | 71 | 45 | 3.0 | 6.0 | 0.00 | 0.79 | 0.00 | 1 | 1011.8 |
| 20260510111304 | 71 | 46 | 3.0 | 6.0 | 0.00 | 0.79 | 0.00 | 1 | 1011.8 |
| 20260510111225 | 71 | 47 | 3.0 | 6.0 | 0.00 | 0.79 | 0.00 | 1 | 1011.8 |
| 20260510111104 | 71 | 47 | 3.0 | 6.0 | 0.00 | 0.79 | 0.00 | 1 | 1011.7 |
| 20260510111004 | 71 | 47 | 3.0 | 6.0 | 0.00 | 0.79 | 0.00 | 1 | 1011.7 |
| 20260510110904 | 71 | 47 | 3.0 | 6.0 | 0.00 | 0.79 | 0.00 | 1 | 1011.7 |
| 20260510110804 | 71 | 48 | 3.0 | 6.0 | 0.00 | 0.79 | 0.00 | 1 | 1011.7 |
| 20260510110704 | 71 | 51 | 3.0 | 6.0 | 0.00 | 0.79 | 0.00 | 1 | 1011.6 |
| 20260510110604 | 71 | 52 | 3.0 | 6.0 | 0.00 | 0.79 | 0.00 | 1 | 1011.6 |
| 20260510110505 | 71 | 54 | 3.0 | 6.0 | 0.00 | 0.79 | 0.00 | 1 | 1011.6 |
| 20260510110425 | 71 | 54 | 4.0 | 6.0 | 0.00 | 0.79 | 0.00 | 1 | 1011.6 |
| 20260510110304 | 71 | 53 | 4.0 | 6.0 | 0.00 | 0.79 | 0.00 | 1 | 1011.6 |
| 20260510110204 | 71 | 52 | 4.0 | 6.0 | 0.00 | 0.79 | 0.00 | 1 | 1011.6 |
| 20260510110104 | 71 | 52 | 4.0 | 7.0 | 0.00 | 0.79 | 0.00 | 1 | 1011.6 |
| 20260510110005 | 71 | 53 | 4.0 | 7.0 | 0.00 | 0.79 | 0.00 | 1 | 1011.6 |
| 20260510105904 | 71 | 54 | 4.0 | 7.0 | 0.00 | 0.79 | 0.00 | 1 | 1011.6 |
| 20260510105804 | 71 | 52 | 4.0 | 8.0 | 0.00 | 0.79 | 0.00 | 1 | 1011.6 |
| 20260510105704 | 71 | 50 | 4.0 | 9.0 | 0.00 | 0.79 | 0.00 | 1 | 1011.6 |
| 20260510105625 | 71 | 49 | 4.0 | 9.0 | 0.00 | 0.79 | 0.00 | 1 | 1011.6 |
| 20260510105504 | 71 | 48 | 4.0 | 9.0 | 0.00 | 0.79 | 0.00 | 1 | 1011.6 |
| 20260510105404 | 72 | 48 | 4.0 | 9.0 | 0.00 | 0.79 | 0.00 | 1 | 1011.7 |
| 20260510105306 | 72 | 48 | 4.0 | 9.0 | 0.00 | 0.79 | 0.00 | 1 | 1011.7 |
| 20260510105204 | 72 | 47 | 4.0 | 9.0 | 0.00 | 0.79 | 0.00 | 1 | 1011.7 |
| 20260510105104 | 72 | 48 | 5.0 | 9.0 | 0.00 | 0.79 | 0.00 | 1 | 1011.6 |
| 20260510105004 | 72 | 47 | 5.0 | 9.0 | 0.00 | 0.79 | 0.00 | 1 | 1011.6 |
| 20260510104904 | 72 | 46 | 5.0 | 9.0 | 0.00 | 0.79 | 0.00 | 1 | 1011.6 |
| 20260510104804 | 72 | 47 | 4.0 | 9.0 | 0.00 | 0.79 | 0.00 | 1 | 1011.6 |
| 20260510104725 | 72 | 49 | 4.0 | 9.0 | 0.00 | 0.79 | 0.00 | 1 | 1011.5 |
| 20260510104625 | 72 | 48 | 4.0 | 9.0 | 0.00 | 0.79 | 0.00 | 1 | 1011.5 |
| 20260510104504 | 72 | 49 | 4.0 | 9.0 | 0.00 | 0.79 | 0.00 | 1 | 1011.5 |
| 20260510104425 | 72 | 50 | 4.0 | 9.0 | 0.00 | 0.79 | 0.00 | 1 | 1011.4 |
| 20260510104304 | 72 | 50 | 5.0 | 9.0 | 0.00 | 0.79 | 0.00 | 1 | 1011.4 |
| 20260510104204 | 72 | 50 | 5.0 | 9.0 | 0.00 | 0.79 | 0.00 | 1 | 1011.4 |
| 20260510104104 | 72 | 50 | 5.0 | 10.0 | 0.00 | 0.79 | 0.00 | 1 | 1011.4 |
| 20260510104004 | 72 | 50 | 4.0 | 10.0 | 0.00 | 0.79 | 0.00 | 1 | 1011.4 |
| 20260510103904 | 72 | 51 | 4.0 | 10.0 | 0.00 | 0.79 | 0.00 | 1 | 1011.4 |
| 20260510103804 | 72 | 50 | 4.0 | 10.0 | 0.00 | 0.79 | 0.00 | 1 | 1011.4 |
| 20260510103725 | 72 | 50 | 4.0 | 10.0 | 0.00 | 0.79 | 0.00 | 1 | 1011.4 |
| 20260510103604 | 72 | 50 | 5.0 | 11.0 | 0.00 | 0.79 | 0.00 | 1 | 1011.4 |
| 20260510103504 | 72 | 50 | 4.0 | 11.0 | 0.00 | 0.79 | 0.00 | 1 | 1011.4 |
| 20260510103404 | 72 | 49 | 4.0 | 11.0 | 0.00 | 0.79 | 0.00 | 1 | 1011.4 |
| 20260510103304 | 72 | 49 | 4.0 | 11.0 | 0.00 | 0.79 | 0.00 | 1 | 1011.5 |
| 20260510103204 | 72 | 49 | 4.0 | 11.0 | 0.00 | 0.79 | 0.00 | 1 | 1011.5 |
| 20260510103104 | 72 | 51 | 4.0 | 11.0 | 0.00 | 0.79 | 0.00 | 1 | 1011.4 |
| 20260510103004 | 72 | 52 | 4.0 | 11.0 | 0.00 | 0.79 | 0.00 | 1 | 1011.4 |
| 20260510102904 | 72 | 52 | 5.0 | 13.0 | 0.00 | 0.79 | 0.00 | 1 | 1011.4 |
| 20260510102804 | 72 | 51 | 5.0 | 13.0 | 0.00 | 0.79 | 0.00 | 1 | 1011.4 |
| 20260510102705 | 72 | 51 | 5.0 | 13.0 | 0.00 | 0.79 | 0.00 | 1 | 1011.4 |
| 20260510102604 | 72 | 52 | 4.0 | 13.0 | 0.00 | 0.79 | 0.00 | 1 | 1011.3 |
| 20260510102504 | 72 | 52 | 4.0 | 13.0 | 0.00 | 0.79 | 0.00 | 1 | 1011.3 |
| 20260510102404 | 72 | 52 | 5.0 | 13.0 | 0.00 | 0.79 | 0.00 | 1 | 1011.2 |
| 20260510102306 | 72 | 52 | 5.0 | 13.0 | 0.00 | 0.79 | 0.00 | 1 | 1011.2 |
| 20260510102204 | 72 | 53 | 5.0 | 13.0 | 0.00 | 0.79 | 0.00 | 1 | 1011.2 |
| 20260510102104 | 72 | 50 | 6.0 | 13.0 | 0.00 | 0.79 | 0.00 | 1 | 1011.1 |
| 20260510102004 | 72 | 48 | 6.0 | 14.0 | 0.00 | 0.79 | 0.00 | 1 | 1011.1 |
| 20260510101904 | 72 | 47 | 6.0 | 14.0 | 0.00 | 0.79 | 0.00 | 1 | 1011.0 |
| 20260510101804 | 72 | 45 | 6.0 | 14.0 | 0.00 | 0.79 | 0.00 | 1 | 1011.0 |
| 20260510101704 | 72 | 46 | 6.0 | 14.0 | 0.00 | 0.79 | 0.00 | 1 | 1011.0 |
| 20260510101604 | 72 | 44 | 6.0 | 14.0 | 0.00 | 0.79 | 0.00 | 1 | 1011.0 |
| 20260510101504 | 72 | 44 | 6.0 | 14.0 | 0.00 | 0.79 | 0.00 | 1 | 1011.0 |
| 20260510101404 | 72 | 42 | 7.0 | 14.0 | 0.00 | 0.79 | 0.00 | 1 | 1010.9 |
| 20260510101304 | 72 | 40 | 6.0 | 14.0 | 0.00 | 0.79 | 0.00 | 1 | 1010.9 |
| 20260510101204 | 72 | 39 | 6.0 | 14.0 | 0.00 | 0.79 | 0.00 | 1 | 1010.9 |
| 20260510101104 | 72 | 40 | 6.0 | 14.0 | 0.00 | 0.79 | 0.00 | 1 | 1010.9 |
| 20260510101004 | 72 | 39 | 6.0 | 11.0 | 0.00 | 0.79 | 0.00 | 1 | 1010.9 |
| 20260510100904 | 72 | 39 | 6.0 | 11.0 | 0.00 | 0.79 | 0.00 | 1 | 1010.9 |
| 20260510100804 | 72 | 40 | 5.0 | 11.0 | 0.00 | 0.79 | 0.00 | 1 | 1011.0 |
| 20260510100704 | 72 | 38 | 6.0 | 11.0 | 0.00 | 0.79 | 0.00 | 1 | 1010.9 |
| 20260510100604 | 72 | 37 | 6.0 | 11.0 | 0.00 | 0.79 | 0.00 | 1 | 1011.0 |
| 20260510100525 | 72 | 36 | 6.0 | 11.0 | 0.00 | 0.79 | 0.00 | 1 | 1010.9 |
| 20260510100404 | 72 | 37 | 5.0 | 11.0 | 0.00 | 0.79 | 0.00 | 1 | 1011.0 |
| 20260510100304 | 72 | 39 | 5.0 | 11.0 | 0.00 | 0.79 | 0.00 | 1 | 1011.0 |
| 20260510100204 | 72 | 40 | 5.0 | 11.0 | 0.00 | 0.79 | 0.00 | 1 | 1011.0 |
| 20260510100104 | 72 | 40 | 5.0 | 11.0 | 0.00 | 0.79 | 0.00 | 1 | 1011.0 |
| 20260510100004 | 72 | 41 | 5.0 | 11.0 | 0.00 | 0.79 | 0.00 | 1 | 1011.0 |
| 20260510095904 | 72 | 41 | 5.0 | 11.0 | 0.00 | 0.79 | 0.00 | 1 | 1010.9 |
| 20260510095825 | 72 | 41 | 5.0 | 11.0 | 0.00 | 0.79 | 0.00 | 1 | 1010.9 |
| 20260510095725 | 72 | 42 | 5.0 | 11.0 | 0.00 | 0.79 | 0.00 | 1 | 1011.0 |
| 20260510095604 | 72 | 45 | 5.0 | 9.0 | 0.00 | 0.79 | 0.00 | 1 | 1011.0 |
| 20260510095504 | 72 | 45 | 5.0 | 9.0 | 0.00 | 0.79 | 0.00 | 1 | 1011.0 |
| 20260510095404 | 72 | 45 | 5.0 | 9.0 | 0.00 | 0.79 | 0.00 | 1 | 1011.0 |
| 20260510095306 | 72 | 45 | 5.0 | 9.0 | 0.00 | 0.79 | 0.00 | 1 | 1011.0 |
| 20260510095204 | 72 | 46 | 5.0 | 9.0 | 0.00 | 0.79 | 0.00 | 1 | 1011.1 |
| 20260510095104 | 72 | 46 | 5.0 | 9.0 | 0.00 | 0.79 | 0.00 | 1 | 1011.1 |
| 20260510095004 | 72 | 48 | 5.0 | 9.0 | 0.00 | 0.79 | 0.00 | 1 | 1011.1 |
| 20260510094904 | 72 | 47 | 5.0 | 9.0 | 0.00 | 0.79 | 0.00 | 1 | 1011.1 |
| 20260510094804 | 71 | 48 | 5.0 | 8.0 | 0.00 | 0.79 | 0.00 | 1 | 1011.1 |
| 20260510094704 | 71 | 47 | 5.0 | 8.0 | 0.00 | 0.79 | 0.00 | 1 | 1011.1 |
| 20260510094604 | 71 | 46 | 5.0 | 8.0 | 0.00 | 0.79 | 0.00 | 1 | 1011.2 |
| 20260510094504 | 71 | 47 | 4.0 | 8.0 | 0.00 | 0.79 | 0.00 | 1 | 1011.1 |
| 20260510094404 | 71 | 48 | 4.0 | 8.0 | 0.00 | 0.79 | 0.00 | 1 | 1011.1 |
| 20260510094305 | 71 | 48 | 4.0 | 8.0 | 0.00 | 0.79 | 0.00 | 1 | 1011.1 |
| 20260510094204 | 71 | 47 | 4.0 | 8.0 | 0.00 | 0.79 | 0.00 | 1 | 1011.1 |
| 20260510094104 | 71 | 46 | 4.0 | 9.0 | 0.00 | 0.79 | 0.00 | 1 | 1011.1 |
| 20260510094025 | 71 | 46 | 4.0 | 9.0 | 0.00 | 0.79 | 0.00 | 1 | 1011.1 |
| 20260510093904 | 71 | 47 | 4.0 | 9.0 | 0.00 | 0.79 | 0.00 | 1 | 1011.1 |
| 20260510093804 | 71 | 46 | 4.0 | 9.0 | 0.00 | 0.79 | 0.00 | 1 | 1011.0 |
| 20260510093725 | 71 | 46 | 4.0 | 9.0 | 0.00 | 0.79 | 0.00 | 1 | 1011.1 |
| 20260510093604 | 71 | 46 | 4.0 | 9.0 | 0.00 | 0.79 | 0.00 | 1 | 1011.0 |
| 20260510093504 | 71 | 45 | 4.0 | 9.0 | 0.00 | 0.79 | 0.00 | 1 | 1011.1 |
| 20260510093404 | 71 | 43 | 4.0 | 9.0 | 0.00 | 0.79 | 0.00 | 1 | 1011.1 |
| 20260510093304 | 71 | 42 | 3.0 | 9.0 | 0.00 | 0.79 | 0.00 | 1 | 1011.1 |
| 20260510093204 | 71 | 42 | 3.0 | 9.0 | 0.00 | 0.79 | 0.00 | 1 | 1011.1 |
| 20260510093104 | 71 | 42 | 3.0 | 9.0 | 0.00 | 0.79 | 0.00 | 1 | 1011.1 |
| 20260510093004 | 71 | 40 | 3.0 | 9.0 | 0.00 | 0.79 | 0.00 | 1 | 1011.1 |
| 20260510092904 | 71 | 38 | 3.0 | 7.0 | 0.00 | 0.79 | 0.00 | 1 | 1011.1 |
| 20260510092804 | 71 | 38 | 3.0 | 7.0 | 0.00 | 0.79 | 0.00 | 1 | 1011.0 |
| 20260510092704 | 71 | 35 | 3.0 | 8.0 | 0.00 | 0.79 | 0.00 | 1 | 1011.0 |
| 20260510092604 | 71 | 36 | 3.0 | 8.0 | 0.00 | 0.79 | 0.00 | 1 | 1011.0 |
| 20260510092525 | 71 | 37 | 3.0 | 8.0 | 0.00 | 0.79 | 0.00 | 1 | 1010.9 |
| 20260510092404 | 71 | 38 | 3.0 | 8.0 | 0.00 | 0.79 | 0.00 | 1 | 1010.9 |
| 20260510092306 | 71 | 36 | 4.0 | 8.0 | 0.00 | 0.79 | 0.00 | 1 | 1010.9 |
| 20260510092204 | 71 | 36 | 3.0 | 8.0 | 0.00 | 0.79 | 0.00 | 1 | 1010.9 |
| 20260510092125 | 71 | 36 | 4.0 | 8.0 | 0.00 | 0.79 | 0.00 | 1 | 1010.9 |
| 20260510092004 | 71 | 37 | 4.0 | 9.0 | 0.00 | 0.79 | 0.00 | 1 | 1010.8 |
| 20260510091904 | 71 | 38 | 4.0 | 9.0 | 0.00 | 0.79 | 0.00 | 1 | 1010.8 |
| 20260510091825 | 71 | 39 | 4.0 | 9.0 | 0.00 | 0.79 | 0.00 | 1 | 1010.7 |
| 20260510091704 | 71 | 41 | 4.0 | 9.0 | 0.00 | 0.79 | 0.00 | 1 | 1010.7 |
| 20260510091604 | 71 | 39 | 4.0 | 9.0 | 0.00 | 0.79 | 0.00 | 1 | 1010.7 |
| 20260510091504 | 71 | 38 | 4.0 | 9.0 | 0.00 | 0.79 | 0.00 | 1 | 1010.6 |
| 20260510091404 | 71 | 39 | 4.0 | 9.0 | 0.00 | 0.79 | 0.00 | 1 | 1010.7 |
| 20260510091304 | 71 | 42 | 4.0 | 9.0 | 0.00 | 0.79 | 0.00 | 1 | 1010.7 |
| 20260510091204 | 71 | 41 | 4.0 | 9.0 | 0.00 | 0.79 | 0.00 | 1 | 1010.7 |
| 20260510091104 | 71 | 42 | 4.0 | 8.0 | 0.00 | 0.79 | 0.00 | 1 | 1010.6 |
| 20260510091004 | 71 | 40 | 3.0 | 8.0 | 0.00 | 0.79 | 0.00 | 1 | 1010.7 |
| 20260510090925 | 71 | 40 | 3.0 | 8.0 | 0.00 | 0.79 | 0.00 | 1 | 1010.7 |
| 20260510090804 | 71 | 38 | 3.0 | 7.0 | 0.00 | 0.79 | 0.00 | 1 | 1010.7 |
| 20260510090704 | 71 | 38 | 3.0 | 7.0 | 0.00 | 0.79 | 0.00 | 1 | 1010.7 |
| 20260510090604 | 71 | 40 | 3.0 | 7.0 | 0.00 | 0.79 | 0.00 | 1 | 1010.7 |
| 20260510090504 | 71 | 42 | 3.0 | 8.0 | 0.00 | 0.79 | 0.00 | 1 | 1010.7 |
| 20260510090404 | 71 | 41 | 3.0 | 8.0 | 0.00 | 0.79 | 0.00 | 1 | 1010.7 |
| 20260510090304 | 71 | 41 | 3.0 | 8.0 | 0.00 | 0.79 | 0.00 | 1 | 1010.8 |
| 20260510090204 | 71 | 41 | 3.0 | 8.0 | 0.00 | 0.79 | 0.00 | 1 | 1010.8 |
| 20260510090104 | 71 | 42 | 3.0 | 8.0 | 0.00 | 0.79 | 0.00 | 1 | 1010.9 |
| 20260510090004 | 71 | 44 | 3.0 | 8.0 | 0.00 | 0.79 | 0.00 | 1 | 1010.8 |
| 20260510085925 | 71 | 44 | 4.0 | 8.0 | 0.00 | 0.79 | 0.00 | 1 | 1010.8 |
| 20260510085804 | 71 | 44 | 4.0 | 8.0 | 0.00 | 0.79 | 0.00 | 1 | 1010.9 |
| 20260510085704 | 71 | 45 | 4.0 | 8.0 | 0.00 | 0.79 | 0.00 | 1 | 1010.9 |
| 20260510085604 | 71 | 44 | 4.0 | 8.0 | 0.00 | 0.79 | 0.00 | 1 | 1011.0 |
| 20260510085504 | 71 | 41 | 3.0 | 8.0 | 0.00 | 0.79 | 0.00 | 1 | 1011.0 |
| 20260510085404 | 71 | 39 | 3.0 | 8.0 | 0.00 | 0.79 | 0.00 | 1 | 1011.0 |
| 20260510085325 | 71 | 36 | 3.0 | 8.0 | 0.00 | 0.79 | 0.00 | 1 | 1011.0 |
| 20260510085204 | 71 | 34 | 3.0 | 8.0 | 0.00 | 0.79 | 0.00 | 1 | 1011.0 |
| 20260510085104 | 71 | 33 | 3.0 | 8.0 | 0.00 | 0.79 | 0.00 | 1 | 1011.0 |
| 20260510085025 | 71 | 32 | 3.0 | 8.0 | 0.00 | 0.79 | 0.00 | 1 | 1011.0 |
| 20260510084904 | 71 | 31 | 2.0 | 8.0 | 0.00 | 0.79 | 0.00 | 1 | 1011.0 |
| 20260510084804 | 71 | 31 | 2.0 | 7.0 | 0.00 | 0.79 | 0.00 | 1 | 1011.1 |
| 20260510084704 | 71 | 33 | 3.0 | 7.0 | 0.00 | 0.79 | 0.00 | 1 | 1011.1 |
| 20260510084604 | 71 | 33 | 3.0 | 7.0 | 0.00 | 0.79 | 0.00 | 1 | 1011.2 |
| 20260510084504 | 71 | 37 | 3.0 | 7.0 | 0.00 | 0.79 | 0.00 | 1 | 1011.1 |
| 20260510084404 | 71 | 40 | 3.0 | 7.0 | 0.00 | 0.79 | 0.00 | 1 | 1011.2 |
| 20260510084325 | 71 | 42 | 3.0 | 6.0 | 0.00 | 0.79 | 0.00 | 1 | 1011.1 |
| 20260510084204 | 71 | 42 | 3.0 | 7.0 | 0.00 | 0.79 | 0.00 | 1 | 1011.2 |
| 20260510084104 | 71 | 41 | 3.0 | 7.0 | 0.00 | 0.79 | 0.00 | 1 | 1011.2 |
| 20260510084004 | 71 | 41 | 3.0 | 7.0 | 0.00 | 0.79 | 0.00 | 1 | 1011.1 |
| 20260510083904 | 71 | 43 | 3.0 | 7.0 | 0.00 | 0.79 | 0.00 | 1 | 1011.1 |
| 20260510083804 | 71 | 40 | 3.0 | 7.0 | 0.00 | 0.79 | 0.00 | 1 | 1011.1 |
| 20260510083704 | 71 | 33 | 3.0 | 7.0 | 0.00 | 0.79 | 0.00 | 1 | 1011.1 |
| 20260510083625 | 71 | 30 | 3.0 | 7.0 | 0.00 | 0.79 | 0.00 | 1 | 1011.1 |
| 20260510083504 | 71 | 27 | 3.0 | 7.0 | 0.00 | 0.79 | 0.00 | 1 | 1011.2 |
| 20260510083404 | 71 | 27 | 3.0 | 7.0 | 0.00 | 0.79 | 0.00 | 1 | 1011.2 |
| 20260510083304 | 71 | 27 | 3.0 | 8.0 | 0.00 | 0.79 | 0.00 | 1 | 1011.1 |
| 20260510083204 | 71 | 28 | 3.0 | 8.0 | 0.00 | 0.79 | 0.00 | 1 | 1011.2 |
| 20260510083105 | 71 | 30 | 3.0 | 8.0 | 0.00 | 0.79 | 0.00 | 1 | 1011.1 |
| 20260510083004 | 71 | 32 | 3.0 | 8.0 | 0.00 | 0.79 | 0.00 | 1 | 1011.2 |
| 20260510082904 | 71 | 31 | 3.0 | 8.0 | 0.00 | 0.79 | 0.00 | 1 | 1011.2 |
| 20260510082804 | 71 | 33 | 3.0 | 8.0 | 0.00 | 0.79 | 0.00 | 1 | 1011.2 |
| 20260510082704 | 71 | 38 | 3.0 | 8.0 | 0.00 | 0.79 | 0.00 | 1 | 1011.2 |
| 20260510082604 | 71 | 41 | 3.0 | 8.0 | 0.00 | 0.79 | 0.00 | 1 | 1011.2 |
| 20260510082504 | 71 | 39 | 4.0 | 8.0 | 0.00 | 0.79 | 0.00 | 1 | 1011.2 |
| 20260510082425 | 71 | 37 | 3.0 | 8.0 | 0.00 | 0.79 | 0.00 | 1 | 1011.2 |
| 20260510082325 | 71 | 34 | 3.0 | 8.0 | 0.00 | 0.79 | 0.00 | 1 | 1011.2 |
| 20260510082204 | 71 | 29 | 3.0 | 6.0 | 0.00 | 0.79 | 0.00 | 1 | 1011.1 |
| 20260510082104 | 71 | 25 | 3.0 | 6.0 | 0.00 | 0.79 | 0.00 | 1 | 1011.2 |
| 20260510082004 | 72 | 18 | 3.0 | 6.0 | 0.00 | 0.79 | 0.00 | 1 | 1011.2 |
| 20260510081904 | 72 | 9 | 3.0 | 6.0 | 0.00 | 0.79 | 0.00 | 1 | 1011.2 |
| 20260510081825 | 72 | 4 | 3.0 | 6.0 | 0.00 | 0.79 | 0.00 | 1 | 1011.1 |
| 20260510081704 | 72 | 360 | 3.0 | 6.0 | 0.00 | 0.79 | 0.00 | 1 | 1011.2 |
| 20260510081604 | 72 | 3 | 3.0 | 6.0 | 0.00 | 0.79 | 0.00 | 1 | 1011.1 |
| 20260510081504 | 72 | 7 | 3.0 | 6.0 | 0.00 | 0.79 | 0.00 | 1 | 1011.1 |
| 20260510081425 | 72 | 14 | 3.0 | 6.0 | 0.00 | 0.79 | 0.00 | 1 | 1011.2 |
| 20260510081325 | 72 | 21 | 3.0 | 6.0 | 0.00 | 0.79 | 0.00 | 1 | 1011.2 |
| 20260510081225 | 72 | 25 | 3.0 | 6.0 | 0.00 | 0.79 | 0.00 | 1 | 1011.2 |
| 20260510081104 | 72 | 28 | 3.0 | 6.0 | 0.00 | 0.79 | 0.00 | 1 | 1011.1 |
| 20260510081005 | 72 | 34 | 3.0 | 6.0 | 0.00 | 0.79 | 0.00 | 1 | 1011.2 |
| 20260510080904 | 72 | 39 | 3.0 | 6.0 | 0.00 | 0.79 | 0.00 | 1 | 1011.2 |
| 20260510080804 | 72 | 43 | 3.0 | 6.0 | 0.00 | 0.79 | 0.00 | 1 | 1011.2 |
| 20260510080704 | 72 | 44 | 3.0 | 6.0 | 0.00 | 0.79 | 0.00 | 1 | 1011.2 |
| 20260510080604 | 72 | 43 | 3.0 | 6.0 | 0.00 | 0.79 | 0.00 | 1 | 1011.2 |
| 20260510080504 | 72 | 42 | 3.0 | 6.0 | 0.00 | 0.79 | 0.00 | 1 | 1011.2 |
| 20260510080425 | 72 | 42 | 3.0 | 6.0 | 0.00 | 0.79 | 0.00 | 1 | 1011.2 |
| 20260510080304 | 72 | 42 | 3.0 | 6.0 | 0.00 | 0.79 | 0.00 | 1 | 1011.2 |
| 20260510080204 | 72 | 44 | 3.0 | 6.0 | 0.00 | 0.79 | 0.00 | 1 | 1011.2 |
| 20260510080104 | 72 | 45 | 3.0 | 6.0 | 0.00 | 0.79 | 0.00 | 1 | 1011.2 |
| 20260510080025 | 72 | 45 | 3.0 | 6.0 | 0.00 | 0.79 | 0.00 | 1 | 1011.2 |
| 20260510075904 | 72 | 45 | 3.0 | 6.0 | 0.00 | 0.79 | 0.00 | 1 | 1011.3 |
| 20260510075804 | 72 | 44 | 3.0 | 6.0 | 0.00 | 0.79 | 0.00 | 1 | 1011.3 |
| 20260510075704 | 72 | 43 | 3.0 | 5.0 | 0.00 | 0.79 | 0.00 | 1 | 1011.3 |
| 20260510075604 | 72 | 43 | 3.0 | 5.0 | 0.00 | 0.79 | 0.00 | 1 | 1011.3 |
| 20260510075504 | 72 | 40 | 3.0 | 6.0 | 0.00 | 0.79 | 0.00 | 1 | 1011.2 |
| 20260510075404 | 72 | 35 | 3.0 | 6.0 | 0.00 | 0.79 | 0.00 | 1 | 1011.3 |
| 20260510075306 | 72 | 29 | 3.0 | 6.0 | 0.00 | 0.79 | 0.00 | 1 | 1011.3 |
| 20260510075204 | 72 | 23 | 3.0 | 6.0 | 0.00 | 0.79 | 0.00 | 1 | 1011.3 |
| 20260510075104 | 72 | 19 | 3.0 | 6.0 | 0.00 | 0.79 | 0.00 | 1 | 1011.3 |
| 20260510075005 | 72 | 13 | 3.0 | 6.0 | 0.00 | 0.79 | 0.00 | 1 | 1011.3 |
| 20260510074904 | 72 | 6 | 3.0 | 6.0 | 0.00 | 0.79 | 0.00 | 1 | 1011.3 |
| 20260510074804 | 72 | 359 | 2.0 | 6.0 | 0.00 | 0.79 | 0.00 | 1 | 1011.3 |
| 20260510074704 | 72 | 353 | 2.0 | 6.0 | 0.00 | 0.79 | 0.00 | 1 | 1011.3 |
| 20260510074604 | 72 | 347 | 2.0 | 6.0 | 0.00 | 0.79 | 0.00 | 1 | 1011.3 |
| 20260510074504 | 72 | 342 | 2.0 | 5.0 | 0.00 | 0.79 | 0.00 | 1 | 1011.3 |
| 20260510074404 | 72 | 342 | 2.0 | 5.0 | 0.00 | 0.79 | 0.00 | 1 | 1011.3 |
| 20260510074325 | 72 | 342 | 2.0 | 5.0 | 0.00 | 0.79 | 0.00 | 1 | 1011.3 |
| 20260510074204 | 72 | 341 | 2.0 | 4.0 | 0.00 | 0.79 | 0.00 | 1 | 1011.3 |
| 20260510074104 | 72 | 341 | 2.0 | 4.0 | 0.00 | 0.79 | 0.00 | 1 | 1011.3 |
| 20260510074004 | 72 | 341 | 2.0 | 4.0 | 0.00 | 0.79 | 0.00 | 1 | 1011.4 |
| 20260510073904 | 72 | 340 | 2.0 | 4.0 | 0.00 | 0.79 | 0.00 | 1 | 1011.4 |
| 20260510073804 | 72 | 340 | 2.0 | 4.0 | 0.00 | 0.79 | 0.00 | 1 | 1011.4 |
| 20260510073704 | 72 | 340 | 2.0 | 4.0 | 0.00 | 0.79 | 0.00 | 1 | 1011.4 |
| 20260510073604 | 72 | 340 | 2.0 | 4.0 | 0.00 | 0.79 | 0.00 | 1 | 1011.4 |
| 20260510073504 | 72 | 339 | 1.0 | 4.0 | 0.00 | 0.79 | 0.00 | 1 | 1011.5 |
| 20260510073404 | 72 | 339 | 1.0 | 4.0 | 0.00 | 0.79 | 0.00 | 1 | 1011.5 |
| 20260510073304 | 72 | 339 | 1.0 | 4.0 | 0.00 | 0.79 | 0.00 | 1 | 1011.5 |
| 20260510073204 | 72 | 339 | 1.0 | 4.0 | 0.00 | 0.79 | 0.00 | 1 | 1011.5 |
| 20260510073104 | 72 | 338 | 1.0 | 4.0 | 0.00 | 0.79 | 0.00 | 1 | 1011.5 |
| 20260510073004 | 72 | 338 | 1.0 | 4.0 | 0.00 | 0.79 | 0.00 | 1 | 1011.4 |
| 20260510072904 | 72 | 339 | 1.0 | 4.0 | 0.00 | 0.79 | 0.00 | 1 | 1011.4 |
| 20260510072804 | 72 | 339 | 1.0 | 4.0 | 0.00 | 0.79 | 0.00 | 1 | 1011.4 |
| 20260510072704 | 72 | 340 | 1.0 | 4.0 | 0.00 | 0.79 | 0.00 | 1 | 1011.4 |
| 20260510072604 | 72 | 340 | 1.0 | 4.0 | 0.00 | 0.79 | 0.00 | 1 | 1011.4 |
| 20260510072504 | 72 | 341 | 2.0 | 4.0 | 0.00 | 0.79 | 0.00 | 1 | 1011.3 |
| 20260510072404 | 72 | 341 | 2.0 | 4.0 | 0.00 | 0.79 | 0.00 | 1 | 1011.3 |
| 20260510072306 | 72 | 341 | 2.0 | 4.0 | 0.00 | 0.79 | 0.00 | 1 | 1011.3 |
| 20260510072204 | 72 | 342 | 2.0 | 4.0 | 0.00 | 0.79 | 0.00 | 1 | 1011.4 |
| 20260510072104 | 72 | 342 | 2.0 | 4.0 | 0.00 | 0.79 | 0.00 | 1 | 1011.4 |
| 20260510072025 | 72 | 342 | 2.0 | 4.0 | 0.00 | 0.79 | 0.00 | 1 | 1011.4 |
| 20260510071904 | 72 | 342 | 2.0 | 4.0 | 0.00 | 0.79 | 0.00 | 1 | 1011.4 |
| 20260510071804 | 72 | 341 | 2.0 | 4.0 | 0.00 | 0.79 | 0.00 | 1 | 1011.3 |
| 20260510071704 | 72 | 340 | 3.0 | 5.0 | 0.00 | 0.79 | 0.00 | 1 | 1011.2 |
| 20260510071604 | 72 | 338 | 2.0 | 5.0 | 0.00 | 0.79 | 0.00 | 1 | 1011.2 |
| 20260510071504 | 72 | 336 | 3.0 | 5.0 | 0.00 | 0.79 | 0.00 | 1 | 1011.1 |
| 20260510071404 | 72 | 336 | 3.0 | 5.0 | 0.00 | 0.79 | 0.00 | 1 | 1011.1 |
| 20260510071325 | 72 | 336 | 3.0 | 5.0 | 0.00 | 0.79 | 0.00 | 1 | 1011.2 |
| 20260510071204 | 72 | 337 | 3.0 | 5.0 | 0.00 | 0.79 | 0.00 | 1 | 1011.2 |
| 20260510071104 | 72 | 337 | 2.0 | 5.0 | 0.00 | 0.79 | 0.00 | 1 | 1011.2 |
| 20260510071004 | 72 | 338 | 2.0 | 5.0 | 0.00 | 0.79 | 0.00 | 1 | 1011.2 |
| 20260510070904 | 72 | 339 | 2.0 | 5.0 | 0.00 | 0.79 | 0.00 | 1 | 1011.2 |
| 20260510070804 | 72 | 340 | 2.0 | 5.0 | 0.00 | 0.79 | 0.00 | 1 | 1011.2 |
| 20260510070704 | 72 | 341 | 2.0 | 5.0 | 0.00 | 0.79 | 0.00 | 1 | 1011.2 |
| 20260510070604 | 72 | 343 | 2.0 | 5.0 | 0.00 | 0.79 | 0.00 | 1 | 1011.3 |
| 20260510070504 | 72 | 345 | 2.0 | 5.0 | 0.00 | 0.79 | 0.00 | 1 | 1011.2 |
| 20260510070404 | 72 | 345 | 2.0 | 5.0 | 0.00 | 0.79 | 0.00 | 1 | 1011.2 |
| 20260510070304 | 72 | 344 | 2.0 | 5.0 | 0.00 | 0.79 | 0.00 | 1 | 1011.3 |
| 20260510070204 | 72 | 343 | 2.0 | 5.0 | 0.00 | 0.79 | 0.00 | 1 | 1011.2 |
| 20260510070104 | 72 | 342 | 2.0 | 5.0 | 0.00 | 0.79 | 0.00 | 1 | 1011.3 |
| 20260510070004 | 72 | 341 | 2.0 | 5.0 | 0.00 | 0.79 | 0.00 | 1 | 1011.3 |
| 20260510065925 | 72 | 339 | 2.0 | 5.0 | 0.00 | 0.79 | 0.00 | 1 | 1011.2 |
| 20260510065804 | 72 | 334 | 2.0 | 5.0 | 0.00 | 0.79 | 0.00 | 1 | 1011.3 |
| 20260510065704 | 72 | 330 | 2.0 | 5.0 | 0.00 | 0.79 | 0.00 | 1 | 1011.3 |
| 20260510065604 | 72 | 328 | 2.0 | 5.0 | 0.00 | 0.79 | 0.00 | 1 | 1011.3 |
| 20260510065504 | 73 | 326 | 2.0 | 5.0 | 0.00 | 0.79 | 0.00 | 1 | 1011.3 |
| 20260510065404 | 73 | 324 | 2.0 | 5.0 | 0.00 | 0.79 | 0.00 | 2 | 1011.3 |
| 20260510065306 | 73 | 322 | 2.0 | 5.0 | 0.00 | 0.79 | 0.00 | 3 | 1011.4 |
| 20260510065204 | 73 | 320 | 2.0 | 5.0 | 0.00 | 0.79 | 0.00 | 3 | 1011.4 |
| 20260510065104 | 73 | 318 | 2.0 | 5.0 | 0.00 | 0.79 | 0.00 | 4 | 1011.4 |
| 20260510065004 | 73 | 317 | 2.0 | 5.0 | 0.00 | 0.79 | 0.00 | 4 | 1011.5 |
| 20260510064925 | 73 | 317 | 2.0 | 5.0 | 0.00 | 0.79 | 0.00 | 4 | 1011.4 |
| 20260510064804 | 73 | 316 | 3.0 | 5.0 | 0.00 | 0.79 | 0.00 | 5 | 1011.4 |
| 20260510064704 | 73 | 314 | 3.0 | 5.0 | 0.00 | 0.79 | 0.00 | 6 | 1011.4 |
| 20260510064625 | 73 | 312 | 2.0 | 5.0 | 0.00 | 0.79 | 0.00 | 6 | 1011.4 |
| 20260510064504 | 73 | 310 | 3.0 | 5.0 | 0.00 | 0.79 | 0.00 | 6 | 1011.4 |
| 20260510064404 | 73 | 313 | 3.0 | 5.0 | 0.00 | 0.79 | 0.00 | 7 | 1011.4 |
| 20260510064325 | 73 | 316 | 3.0 | 5.0 | 0.00 | 0.79 | 0.00 | 7 | 1011.4 |
| 20260510064204 | 73 | 318 | 3.0 | 5.0 | 0.00 | 0.79 | 0.00 | 8 | 1011.4 |
| 20260510064104 | 73 | 319 | 3.0 | 5.0 | 0.00 | 0.79 | 0.00 | 8 | 1011.4 |
| 20260510064004 | 73 | 321 | 3.0 | 5.0 | 0.00 | 0.79 | 0.00 | 9 | 1011.4 |
| 20260510063925 | 73 | 320 | 3.0 | 5.0 | 0.00 | 0.79 | 0.00 | 9 | 1011.4 |
| 20260510063804 | 73 | 322 | 3.0 | 6.0 | 0.00 | 0.79 | 0.00 | 10 | 1011.4 |
| 20260510063704 | 73 | 324 | 3.0 | 6.0 | 0.00 | 0.79 | 0.00 | 10 | 1011.3 |
| 20260510063604 | 73 | 326 | 3.0 | 6.0 | 0.00 | 0.79 | 0.00 | 10 | 1011.4 |
| 20260510063504 | 73 | 328 | 3.0 | 6.0 | 0.00 | 0.79 | 0.00 | 11 | 1011.3 |
| 20260510063404 | 73 | 327 | 3.0 | 6.0 | 0.00 | 0.79 | 0.00 | 11 | 1011.3 |
| 20260510063304 | 73 | 325 | 3.0 | 6.0 | 0.00 | 0.79 | 0.00 | 11 | 1011.4 |
| 20260510063204 | 73 | 333 | 3.0 | 6.0 | 0.00 | 0.79 | 0.00 | 12 | 1011.3 |
| 20260510063104 | 73 | 334 | 3.0 | 6.0 | 0.00 | 0.79 | 0.00 | 12 | 1011.3 |
| 20260510063004 | 73 | 330 | 3.0 | 6.0 | 0.00 | 0.79 | 0.00 | 12 | 1011.3 |
| 20260510062904 | 73 | 331 | 2.0 | 6.0 | 0.00 | 0.79 | 0.00 | 13 | 1011.3 |
| 20260510062804 | 73 | 331 | 3.0 | 6.0 | 0.00 | 0.79 | 0.00 | 13 | 1011.3 |
| 20260510062704 | 73 | 331 | 3.0 | 6.0 | 0.00 | 0.79 | 0.00 | 13 | 1011.3 |
| 20260510062604 | 73 | 330 | 3.0 | 6.0 | 0.00 | 0.79 | 0.00 | 13 | 1011.3 |
| 20260510062504 | 73 | 329 | 3.0 | 6.0 | 0.00 | 0.79 | 0.00 | 13 | 1011.3 |
| 20260510062425 | 73 | 329 | 3.0 | 6.0 | 0.00 | 0.79 | 0.00 | 14 | 1011.3 |
| 20260510062325 | 73 | 328 | 3.0 | 6.0 | 0.00 | 0.79 | 0.00 | 14 | 1011.3 |
| 20260510062204 | 73 | 319 | 3.0 | 6.0 | 0.00 | 0.79 | 0.00 | 15 | 1011.3 |
| 20260510062104 | 73 | 319 | 3.0 | 6.0 | 0.00 | 0.79 | 0.00 | 15 | 1011.3 |
| 20260510062004 | 73 | 322 | 3.0 | 6.0 | 0.00 | 0.79 | 0.00 | 15 | 1011.3 |
| 20260510061925 | 73 | 323 | 2.0 | 6.0 | 0.00 | 0.79 | 0.00 | 15 | 1011.3 |
| 20260510061804 | 73 | 322 | 2.0 | 6.0 | 0.00 | 0.79 | 0.00 | 15 | 1011.3 |
| 20260510061704 | 73 | 323 | 2.0 | 6.0 | 0.00 | 0.79 | 0.00 | 15 | 1011.3 |
| 20260510061604 | 73 | 324 | 2.0 | 6.0 | 0.00 | 0.79 | 0.00 | 16 | 1011.2 |
| 20260510061525 | 73 | 324 | 2.0 | 6.0 | 0.00 | 0.79 | 0.00 | 16 | 1011.2 |
| 20260510061404 | 73 | 325 | 2.0 | 6.0 | 0.00 | 0.79 | 0.00 | 16 | 1011.2 |
| 20260510061304 | 73 | 326 | 2.0 | 5.0 | 0.00 | 0.79 | 0.00 | 15 | 1011.3 |
| 20260510061204 | 73 | 326 | 2.0 | 6.0 | 0.00 | 0.79 | 0.00 | 15 | 1011.3 |
| 20260510061125 | 73 | 327 | 2.0 | 6.0 | 0.00 | 0.79 | 0.00 | 15 | 1011.3 |
| 20260510061004 | 73 | 327 | 2.0 | 6.0 | 0.00 | 0.79 | 0.00 | 15 | 1011.3 |
| 20260510060904 | 73 | 327 | 2.0 | 6.0 | 0.00 | 0.79 | 0.00 | 15 | 1011.3 |
| 20260510060825 | 73 | 327 | 2.0 | 6.0 | 0.00 | 0.79 | 0.00 | 15 | 1011.3 |
| 20260510060725 | 73 | 327 | 2.0 | 6.0 | 0.00 | 0.79 | 0.00 | 15 | 1011.3 |
| 20260510060604 | 74 | 327 | 2.0 | 6.0 | 0.00 | 0.79 | 0.00 | 14 | 1011.3 |
| 20260510060525 | 74 | 327 | 2.0 | 6.0 | 0.00 | 0.79 | 0.00 | 14 | 1011.3 |
| 20260510060404 | 74 | 327 | 2.0 | 6.0 | 0.00 | 0.79 | 0.00 | 14 | 1011.3 |
| 20260510060304 | 74 | 327 | 2.0 | 6.0 | 0.00 | 0.79 | 0.00 | 14 | 1011.3 |
| 20260510060204 | 74 | 327 | 2.0 | 4.0 | 0.00 | 0.79 | 0.00 | 13 | 1011.3 |
| 20260510060125 | 74 | 327 | 2.0 | 4.0 | 0.00 | 0.79 | 0.00 | 13 | 1011.3 |
| 20260510060004 | 74 | 327 | 2.0 | 5.0 | 0.00 | 0.79 | 0.00 | 13 | 1011.2 |
| 20260510055904 | 74 | 327 | 2.0 | 5.0 | 0.00 | 0.79 | 0.00 | 13 | 1011.3 |
| 20260510055825 | 74 | 326 | 2.0 | 5.0 | 0.00 | 0.79 | 0.00 | 13 | 1011.2 |
| 20260510055704 | 74 | 326 | 2.0 | 5.0 | 0.00 | 0.79 | 0.00 | 13 | 1011.2 |
| 20260510055604 | 74 | 325 | 2.0 | 5.0 | 0.00 | 0.79 | 0.00 | 13 | 1011.2 |
| 20260510055504 | 74 | 325 | 2.0 | 5.0 | 0.00 | 0.79 | 0.00 | 13 | 1011.2 |
| 20260510055404 | 74 | 324 | 2.0 | 5.0 | 0.00 | 0.79 | 0.00 | 13 | 1011.2 |
| 20260510055306 | 74 | 324 | 2.0 | 5.0 | 0.00 | 0.79 | 0.00 | 13 | 1011.2 |
| 20260510055204 | 74 | 324 | 2.0 | 5.0 | 0.00 | 0.79 | 0.00 | 13 | 1011.2 |
| 20260510055104 | 74 | 323 | 2.0 | 5.0 | 0.00 | 0.79 | 0.00 | 13 | 1011.2 |
| 20260510055004 | 74 | 323 | 2.0 | 4.0 | 0.00 | 0.79 | 0.00 | 12 | 1011.1 |
| 20260510054904 | 74 | 322 | 2.0 | 4.0 | 0.00 | 0.79 | 0.00 | 12 | 1011.1 |
| 20260510054804 | 74 | 322 | 2.0 | 4.0 | 0.00 | 0.79 | 0.00 | 11 | 1011.1 |
| 20260510054704 | 74 | 322 | 2.0 | 4.0 | 0.00 | 0.79 | 0.00 | 11 | 1011.1 |
| 20260510054604 | 74 | 322 | 2.0 | 4.0 | 0.00 | 0.79 | 0.00 | 11 | 1011.1 |
| 20260510054504 | 74 | 322 | 2.0 | 4.0 | 0.00 | 0.79 | 0.00 | 11 | 1011.1 |
| 20260510054404 | 74 | 322 | 2.0 | 4.0 | 0.00 | 0.79 | 0.00 | 11 | 1011.1 |
| 20260510054325 | 74 | 321 | 2.0 | 4.0 | 0.00 | 0.79 | 0.00 | 10 | 1011.1 |
| 20260510054225 | 74 | 321 | 2.0 | 4.0 | 0.00 | 0.79 | 0.00 | 10 | 1011.1 |
| 20260510054104 | 74 | 321 | 2.0 | 4.0 | 0.00 | 0.79 | 0.00 | 9 | 1011.1 |
| 20260510054025 | 74 | 321 | 2.0 | 4.0 | 0.00 | 0.79 | 0.00 | 9 | 1011.1 |
| 20260510053904 | 74 | 321 | 2.0 | 4.0 | 0.00 | 0.79 | 0.00 | 9 | 1011.1 |
| 20260510053804 | 74 | 321 | 2.0 | 4.0 | 0.00 | 0.79 | 0.00 | 9 | 1011.1 |
| 20260510053704 | 74 | 321 | 2.0 | 4.0 | 0.00 | 0.79 | 0.00 | 8 | 1011.1 |
| 20260510053604 | 74 | 321 | 2.0 | 4.0 | 0.00 | 0.79 | 0.00 | 8 | 1011.1 |
| 20260510053504 | 74 | 321 | 2.0 | 4.0 | 0.00 | 0.79 | 0.00 | 8 | 1011.1 |
| 20260510053404 | 74 | 320 | 2.0 | 4.0 | 0.00 | 0.79 | 0.00 | 7 | 1011.1 |
| 20260510053304 | 74 | 320 | 2.0 | 4.0 | 0.00 | 0.79 | 0.00 | 7 | 1011.1 |
| 20260510053204 | 74 | 320 | 2.0 | 4.0 | 0.00 | 0.79 | 0.00 | 6 | 1011.1 |
| 20260510053104 | 74 | 320 | 2.0 | 4.0 | 0.00 | 0.79 | 0.00 | 5 | 1011.2 |
| 20260510053004 | 74 | 320 | 2.0 | 4.0 | 0.00 | 0.79 | 0.00 | 4 | 1011.1 |
| 20260510052925 | 74 | 320 | 2.0 | 3.0 | 0.00 | 0.79 | 0.00 | 4 | 1011.1 |
| 20260510052804 | 74 | 320 | 2.0 | 4.0 | 0.00 | 0.79 | 0.00 | 2 | 1011.2 |
| 20260510052704 | 74 | 320 | 2.0 | 4.0 | 0.00 | 0.79 | 0.00 | 1 | 1011.1 |
| 20260510052604 | 74 | 320 | 1.0 | 4.0 | 0.00 | 0.79 | 0.00 | 1 | 1011.1 |
| 20260510052504 | 74 | 319 | 1.0 | 4.0 | 0.00 | 0.79 | 0.00 | 1 | 1011.2 |
| 20260510052404 | 74 | 319 | 1.0 | 4.0 | 0.00 | 0.79 | 0.00 | 1 | 1011.2 |
| 20260510052306 | 74 | 319 | 1.0 | 4.0 | 0.00 | 0.79 | 0.00 | 1 | 1011.2 |
| 20260510052204 | 74 | 319 | 1.0 | 4.0 | 0.00 | 0.79 | 0.00 | 1 | 1011.2 |
| 20260510052104 | 74 | 319 | 1.0 | 4.0 | 0.00 | 0.79 | 0.00 | 1 | 1011.2 |
| 20260510052004 | 74 | 319 | 1.0 | 4.0 | 0.00 | 0.79 | 0.00 | 1 | 1011.2 |
| 20260510051904 | 74 | 319 | 1.0 | 4.0 | 0.00 | 0.79 | 0.00 | 1 | 1011.2 |
| 20260510051804 | 74 | 319 | 0.0 | 2.0 | 0.00 | 0.79 | 0.00 | 1 | 1011.2 |
| 20260510051704 | 74 | 319 | 0.0 | 2.0 | 0.00 | 0.79 | 0.00 | 1 | 1011.2 |
| 20260510051604 | 74 | 319 | 0.0 | 2.0 | 0.00 | 0.79 | 0.00 | 1 | 1011.2 |
| 20260510051504 | 74 | 0 | 0.0 | 1.0 | 0.00 | 0.79 | 0.00 | 1 | 1011.2 |
| 20260510051404 | 74 | 0 | 0.0 | 1.0 | 0.00 | 0.79 | 0.00 | 1 | 1011.2 |
| 20260510051304 | 74 | 0 | 0.0 | 1.0 | 0.00 | 0.79 | 0.00 | 1 | 1011.2 |
| 20260510051204 | 74 | 0 | 0.0 | 1.0 | 0.00 | 0.79 | 0.00 | 1 | 1011.2 |
| 20260510051104 | 74 | 319 | 0.0 | 1.0 | 0.00 | 0.79 | 0.00 | 1 | 1011.2 |
| 20260510051004 | 74 | 319 | 0.0 | 1.0 | 0.00 | 0.79 | 0.00 | 1 | 1011.3 |
| 20260510050904 | 74 | 319 | 0.0 | 1.0 | 0.00 | 0.79 | 0.00 | 1 | 1011.3 |
| 20260510050804 | 74 | 319 | 0.0 | 1.0 | 0.00 | 0.79 | 0.00 | 1 | 1011.3 |
| 20260510050704 | 74 | 319 | 0.0 | 1.0 | 0.00 | 0.79 | 0.00 | 1 | 1011.3 |
| 20260510050604 | 74 | 319 | 0.0 | 1.0 | 0.00 | 0.79 | 0.00 | 1 | 1011.2 |
| 20260510050504 | 74 | 319 | 0.0 | 1.0 | 0.00 | 0.79 | 0.00 | 1 | 1011.3 |
| 20260510050404 | 74 | 319 | 0.0 | 1.0 | 0.00 | 0.79 | 0.00 | 1 | 1011.3 |
| 20260510050304 | 74 | 319 | 0.0 | 1.0 | 0.00 | 0.79 | 0.00 | 1 | 1011.2 |
| 20260510050225 | 74 | 319 | 0.0 | 1.0 | 0.00 | 0.79 | 0.00 | 1 | 1011.2 |
| 20260510050104 | 74 | 319 | 0.0 | 1.0 | 0.00 | 0.79 | 0.00 | 1 | 1011.2 |
| 20260510050004 | 74 | 319 | 0.0 | 1.0 | 0.00 | 0.79 | 0.00 | 1 | 1011.2 |
| 20260510045904 | 74 | 319 | 0.0 | 1.0 | 0.00 | 0.79 | 0.79 | 1 | 1011.2 |
| 20260510045804 | 74 | 319 | 0.0 | 1.0 | 0.00 | 0.79 | 0.79 | 1 | 1011.2 |
| 20260510045704 | 74 | 319 | 0.0 | 1.0 | 0.00 | 0.79 | 0.79 | 1 | 1011.2 |
| 20260510045625 | 74 | 319 | 0.0 | 1.0 | 0.00 | 0.79 | 0.79 | 1 | 1011.2 |
| 20260510045504 | 74 | 319 | 0.0 | 1.0 | 0.00 | 0.79 | 0.79 | 1 | 1011.2 |
| 20260510045404 | 74 | 319 | 0.0 | 1.0 | 0.00 | 0.79 | 0.79 | 1 | 1011.2 |
| 20260510045306 | 74 | 319 | 0.0 | 1.0 | 0.00 | 0.79 | 0.79 | 1 | 1011.2 |
| 20260510045204 | 74 | 0 | 0.0 | 0.0 | 0.00 | 0.79 | 0.79 | 1 | 1011.1 |
| 20260510045104 | 74 | 0 | 0.0 | 0.0 | 0.00 | 0.79 | 0.79 | 1 | 1011.2 |
| 20260510045004 | 74 | 0 | 0.0 | 0.0 | 0.00 | 0.79 | 0.79 | 1 | 1011.1 |
| 20260510044904 | 75 | 0 | 0.0 | 0.0 | 0.00 | 0.79 | 0.79 | 1 | 1011.1 |
| 20260510044804 | 75 | 0 | 0.0 | 0.0 | 0.00 | 0.79 | 0.79 | 1 | 1011.1 |
| 20260510044704 | 75 | 0 | 0.0 | 0.0 | 0.00 | 0.79 | 0.79 | 1 | 1011.1 |
| 20260510044604 | 75 | 0 | 0.0 | 0.0 | 0.00 | 0.79 | 0.79 | 1 | 1011.1 |
| 20260510044504 | 75 | 0 | 0.0 | 0.0 | 0.00 | 0.79 | 0.79 | 1 | 1011.1 |
| 20260510044404 | 75 | 0 | 0.0 | 0.0 | 0.00 | 0.79 | 0.79 | 1 | 1011.1 |
| 20260510044325 | 75 | 0 | 0.0 | 0.0 | 0.00 | 0.79 | 0.79 | 1 | 1011.1 |
| 20260510044204 | 75 | 0 | 0.0 | 0.0 | 0.00 | 0.79 | 0.79 | 1 | 1011.1 |
| 20260510044104 | 75 | 0 | 0.0 | 0.0 | 0.00 | 0.79 | 0.79 | 1 | 1011.1 |
| 20260510044025 | 75 | 0 | 0.0 | 0.0 | 0.00 | 0.79 | 0.79 | 1 | 1011.1 |
| 20260510043925 | 75 | 0 | 0.0 | 0.0 | 0.00 | 0.79 | 0.79 | 1 | 1011.1 |
| 20260510043804 | 75 | 319 | 0.0 | 1.0 | 0.00 | 0.79 | 0.79 | 1 | 1011.1 |
| 20260510043704 | 75 | 319 | 0.0 | 1.0 | 0.00 | 0.79 | 0.79 | 1 | 1011.1 |
| 20260510043604 | 75 | 319 | 0.0 | 1.0 | 0.00 | 0.79 | 0.79 | 1 | 1011.2 |
| 20260510043504 | 75 | 319 | 0.0 | 2.0 | 0.00 | 0.79 | 0.79 | 1 | 1011.1 |
| 20260510043404 | 75 | 319 | 0.0 | 2.0 | 0.00 | 0.79 | 0.79 | 1 | 1011.1 |
| 20260510043304 | 75 | 319 | 0.0 | 2.0 | 0.00 | 0.79 | 0.79 | 1 | 1011.1 |
| 20260510043204 | 75 | 319 | 0.0 | 2.0 | 0.00 | 0.79 | 0.79 | 1 | 1011.1 |
| 20260510043104 | 75 | 319 | 0.0 | 2.0 | 0.00 | 0.79 | 0.79 | 1 | 1011.1 |
| 20260510043004 | 75 | 319 | 0.0 | 2.0 | 0.00 | 0.79 | 0.79 | 1 | 1011.1 |
| 20260510042904 | 75 | 319 | 0.0 | 2.0 | 0.00 | 0.79 | 0.79 | 1 | 1011.1 |
| 20260510042804 | 75 | 319 | 0.0 | 2.0 | 0.00 | 0.79 | 0.79 | 1 | 1011.1 |
| 20260510042725 | 75 | 319 | 0.0 | 2.0 | 0.00 | 0.79 | 0.79 | 1 | 1011.1 |
| 20260510042604 | 75 | 319 | 0.0 | 2.0 | 0.00 | 0.79 | 0.79 | 1 | 1011.1 |
| 20260510042504 | 75 | 319 | 0.0 | 2.0 | 0.00 | 0.79 | 0.79 | 1 | 1011.1 |
| 20260510042404 | 75 | 319 | 0.0 | 2.0 | 0.00 | 0.79 | 0.79 | 1 | 1011.1 |
| 20260510042325 | 75 | 319 | 0.0 | 2.0 | 0.00 | 0.79 | 0.79 | 1 | 1011.1 |
| 20260510042204 | 75 | 319 | 0.0 | 2.0 | 0.00 | 0.79 | 0.79 | 1 | 1011.1 |
| 20260510042125 | 75 | 0 | 0.0 | 0.0 | 0.00 | 0.79 | 0.79 | 1 | 1011.1 |
| 20260510042025 | 75 | 0 | 0.0 | 0.0 | 0.00 | 0.79 | 0.79 | 1 | 1011.0 |
| 20260510041904 | 75 | 0 | 0.0 | 0.0 | 0.00 | 0.79 | 0.79 | 1 | 1011.0 |
| 20260510041825 | 75 | 0 | 0.0 | 0.0 | 0.00 | 0.79 | 0.79 | 1 | 1011.0 |
| 20260510041704 | 75 | 0 | 0.0 | 0.0 | 0.00 | 0.79 | 0.79 | 1 | 1011.0 |
| 20260510041604 | 75 | 0 | 0.0 | 0.0 | 0.00 | 0.79 | 0.79 | 1 | 1011.0 |
| 20260510041504 | 75 | 0 | 0.0 | 0.0 | 0.00 | 0.79 | 0.79 | 1 | 1011.0 |
| 20260510041404 | 76 | 0 | 0.0 | 0.0 | 0.00 | 0.79 | 0.79 | 1 | 1011.0 |
| 20260510041304 | 76 | 0 | 0.0 | 0.0 | 0.00 | 0.79 | 0.79 | 1 | 1011.0 |
| 20260510041204 | 76 | 0 | 0.0 | 0.0 | 0.00 | 0.79 | 0.79 | 1 | 1011.0 |
| 20260510041104 | 76 | 0 | 0.0 | 0.0 | 0.00 | 0.79 | 0.79 | 1 | 1011.0 |
| 20260510041004 | 76 | 0 | 0.0 | 0.0 | 0.00 | 0.79 | 0.79 | 1 | 1011.1 |
| 20260510040904 | 76 | 0 | 0.0 | 0.0 | 0.00 | 0.79 | 0.79 | 1 | 1011.0 |
| 20260510040804 | 76 | 0 | 0.0 | 0.0 | 0.00 | 0.79 | 0.79 | 1 | 1011.1 |
| 20260510040725 | 76 | 0 | 0.0 | 0.0 | 0.00 | 0.79 | 0.79 | 1 | 1011.0 |
| 20260510040604 | 76 | 0 | 0.0 | 0.0 | 0.00 | 0.79 | 0.79 | 1 | 1011.0 |
| 20260510040504 | 76 | 0 | 0.0 | 0.0 | 0.00 | 0.79 | 0.79 | 1 | 1011.0 |
| 20260510040404 | 76 | 0 | 0.0 | 0.0 | 0.00 | 0.79 | 0.79 | 1 | 1011.0 |
| 20260510040304 | 76 | 0 | 0.0 | 0.0 | 0.00 | 0.79 | 0.79 | 1 | 1011.0 |
| 20260510040204 | 76 | 0 | 0.0 | 0.0 | 0.00 | 0.79 | 0.79 | 1 | 1010.9 |
| 20260510040104 | 76 | 0 | 0.0 | 0.0 | 0.00 | 0.79 | 0.79 | 1 | 1010.9 |
| 20260510040004 | 76 | 0 | 0.0 | 0.0 | 0.00 | 0.79 | 0.79 | 1 | 1010.9 |
| 20260510035904 | 76 | 0 | 0.0 | 0.0 | 0.00 | 0.79 | 0.79 | 1 | 1010.9 |
| 20260510035804 | 76 | 0 | 0.0 | 0.0 | 0.00 | 0.79 | 0.79 | 1 | 1011.0 |
| 20260510035725 | 76 | 0 | 0.0 | 0.0 | 0.00 | 0.79 | 0.79 | 1 | 1010.9 |
| 20260510035604 | 76 | 0 | 0.0 | 0.0 | 0.00 | 0.79 | 0.79 | 1 | 1010.9 |
| 20260510035504 | 76 | 0 | 0.0 | 0.0 | 0.00 | 0.79 | 0.79 | 1 | 1010.9 |
| 20260510035404 | 76 | 0 | 0.0 | 1.0 | 0.00 | 0.79 | 0.79 | 1 | 1010.9 |
| 20260510035325 | 76 | 0 | 0.0 | 1.0 | 0.00 | 0.79 | 0.79 | 1 | 1010.9 |
| 20260510035204 | 76 | 0 | 0.0 | 1.0 | 0.00 | 0.79 | 0.79 | 1 | 1010.9 |
| 20260510035125 | 76 | 0 | 0.0 | 1.0 | 0.00 | 0.79 | 0.79 | 1 | 1010.9 |
| 20260510035004 | 77 | 0 | 0.0 | 1.0 | 0.00 | 0.79 | 0.79 | 1 | 1010.9 |
| 20260510034904 | 77 | 0 | 0.0 | 1.0 | 0.00 | 0.79 | 0.79 | 1 | 1010.9 |
| 20260510034804 | 77 | 0 | 0.0 | 1.0 | 0.00 | 0.79 | 0.79 | 1 | 1010.8 |
| 20260510034725 | 77 | 0 | 0.0 | 1.0 | 0.00 | 0.79 | 0.79 | 1 | 1010.9 |
| 20260510034604 | 77 | 0 | 0.0 | 1.0 | 0.00 | 0.79 | 0.79 | 1 | 1010.9 |
| 20260510034504 | 77 | 0 | 0.0 | 1.0 | 0.00 | 0.79 | 0.79 | 1 | 1010.8 |
| 20260510034404 | 77 | 319 | 0.0 | 2.0 | 0.00 | 0.79 | 0.79 | 1 | 1010.8 |
| 20260510034325 | 77 | 319 | 0.0 | 2.0 | 0.00 | 0.79 | 0.79 | 1 | 1010.8 |
| 20260510034204 | 77 | 319 | 0.0 | 2.0 | 0.00 | 0.79 | 0.79 | 1 | 1010.8 |
| 20260510034104 | 77 | 319 | 0.0 | 2.0 | 0.00 | 0.79 | 0.79 | 1 | 1010.8 |
| 20260510034004 | 77 | 319 | 0.0 | 2.0 | 0.00 | 0.79 | 0.79 | 1 | 1010.8 |
| 20260510033904 | 77 | 319 | 0.0 | 2.0 | 0.00 | 0.79 | 0.79 | 1 | 1010.8 |
| 20260510033804 | 77 | 319 | 0.0 | 2.0 | 0.00 | 0.79 | 0.79 | 1 | 1010.7 |
| 20260510033704 | 77 | 319 | 0.0 | 2.0 | 0.00 | 0.79 | 0.79 | 1 | 1010.8 |
| 20260510033604 | 77 | 319 | 0.0 | 2.0 | 0.00 | 0.79 | 0.79 | 1 | 1010.8 |
| 20260510033525 | 77 | 319 | 0.0 | 2.0 | 0.00 | 0.79 | 0.79 | 1 | 1010.8 |
| 20260510033404 | 77 | 319 | 0.0 | 2.0 | 0.00 | 0.79 | 0.79 | 1 | 1010.8 |
| 20260510033304 | 77 | 319 | 0.0 | 2.0 | 0.00 | 0.79 | 0.79 | 1 | 1010.7 |
| 20260510033204 | 77 | 319 | 0.0 | 2.0 | 0.00 | 0.79 | 0.79 | 1 | 1010.8 |
| 20260510033104 | 77 | 319 | 0.0 | 2.0 | 0.00 | 0.79 | 0.79 | 1 | 1010.7 |
| 20260510033004 | 78 | 319 | 0.0 | 2.0 | 0.00 | 0.79 | 0.79 | 1 | 1010.7 |
| 20260510032904 | 78 | 319 | 0.0 | 2.0 | 0.00 | 0.79 | 0.79 | 1 | 1010.7 |
| 20260510032804 | 78 | 319 | 0.0 | 2.0 | 0.00 | 0.79 | 0.79 | 1 | 1010.7 |
| 20260510032704 | 78 | 319 | 0.0 | 2.0 | 0.00 | 0.79 | 0.79 | 1 | 1010.7 |
| 20260510032604 | 78 | 319 | 0.0 | 2.0 | 0.00 | 0.79 | 0.79 | 1 | 1010.6 |
| 20260510032504 | 78 | 319 | 0.0 | 2.0 | 0.00 | 0.79 | 0.79 | 1 | 1010.6 |
| 20260510032404 | 78 | 319 | 0.0 | 2.0 | 0.00 | 0.79 | 0.79 | 1 | 1010.6 |
| 20260510032306 | 78 | 319 | 0.0 | 2.0 | 0.00 | 0.79 | 0.79 | 2 | 1010.6 |
| 20260510032204 | 78 | 319 | 0.0 | 2.0 | 0.00 | 0.79 | 0.79 | 4 | 1010.6 |
| 20260510032125 | 78 | 319 | 0.0 | 2.0 | 0.00 | 0.79 | 0.79 | 4 | 1010.6 |
| 20260510032004 | 78 | 319 | 1.0 | 2.0 | 0.00 | 0.79 | 0.79 | 6 | 1010.6 |
| 20260510031904 | 78 | 319 | 1.0 | 2.0 | 0.00 | 0.79 | 0.79 | 6 | 1010.5 |
| 20260510031825 | 78 | 319 | 1.0 | 2.0 | 0.00 | 0.79 | 0.79 | 6 | 1010.5 |
| 20260510031725 | 78 | 319 | 1.0 | 2.0 | 0.00 | 0.79 | 0.79 | 7 | 1010.5 |
| 20260510031604 | 78 | 319 | 1.0 | 2.0 | 0.00 | 0.79 | 0.79 | 8 | 1010.5 |
| 20260510031504 | 78 | 319 | 0.0 | 2.0 | 0.00 | 0.79 | 0.79 | 9 | 1010.5 |
| 20260510031404 | 78 | 319 | 0.0 | 2.0 | 0.00 | 0.79 | 0.79 | 9 | 1010.5 |
| 20260510031325 | 78 | 319 | 0.0 | 2.0 | 0.00 | 0.79 | 0.79 | 10 | 1010.5 |
| 20260510031225 | 78 | 319 | 1.0 | 2.0 | 0.00 | 0.79 | 0.79 | 10 | 1010.5 |
| 20260510031104 | 78 | 319 | 1.0 | 2.0 | 0.00 | 0.79 | 0.79 | 11 | 1010.5 |
| 20260510031004 | 78 | 319 | 0.0 | 3.0 | 0.00 | 0.79 | 0.79 | 12 | 1010.5 |
| 20260510030925 | 78 | 319 | 0.0 | 3.0 | 0.00 | 0.79 | 0.79 | 12 | 1010.5 |
| 20260510030804 | 78 | 319 | 1.0 | 3.0 | 0.00 | 0.79 | 0.79 | 13 | 1010.4 |
| 20260510030704 | 78 | 319 | 1.0 | 3.0 | 0.00 | 0.79 | 0.79 | 14 | 1010.3 |
| 20260510030604 | 78 | 319 | 1.0 | 3.0 | 0.00 | 0.79 | 0.79 | 14 | 1010.4 |
| 20260510030504 | 79 | 319 | 1.0 | 3.0 | 0.00 | 0.79 | 0.79 | 15 | 1010.4 |
| 20260510030404 | 79 | 319 | 1.0 | 3.0 | 0.00 | 0.79 | 0.79 | 15 | 1010.4 |
| 20260510030304 | 79 | 319 | 1.0 | 3.0 | 0.00 | 0.79 | 0.79 | 16 | 1010.4 |
| 20260510030204 | 79 | 319 | 1.0 | 3.0 | 0.00 | 0.79 | 0.79 | 16 | 1010.3 |
| 20260510030104 | 79 | 319 | 1.0 | 3.0 | 0.00 | 0.79 | 0.79 | 17 | 1010.3 |
| 20260510030004 | 79 | 319 | 1.0 | 3.0 | 0.00 | 0.79 | 0.79 | 17 | 1010.3 |
| 20260510025904 | 79 | 319 | 1.0 | 3.0 | 0.00 | 0.79 | 0.79 | 18 | 1010.3 |
| 20260510025804 | 79 | 319 | 1.0 | 3.0 | 0.00 | 0.79 | 0.79 | 19 | 1010.3 |
| 20260510025704 | 79 | 319 | 1.0 | 3.0 | 0.00 | 0.79 | 0.79 | 19 | 1010.2 |
| 20260510025604 | 79 | 319 | 1.0 | 4.0 | 0.00 | 0.79 | 0.79 | 19 | 1010.2 |
| 20260510025504 | 79 | 319 | 1.0 | 4.0 | 0.00 | 0.79 | 0.79 | 19 | 1010.2 |
| 20260510025404 | 79 | 319 | 1.0 | 4.0 | 0.00 | 0.79 | 0.79 | 19 | 1010.2 |
| 20260510025306 | 79 | 319 | 2.0 | 4.0 | 0.00 | 0.79 | 0.79 | 20 | 1010.2 |
| 20260510025204 | 79 | 319 | 2.0 | 4.0 | 0.00 | 0.79 | 0.79 | 20 | 1010.2 |
| 20260510025104 | 79 | 319 | 2.0 | 4.0 | 0.00 | 0.79 | 0.79 | 21 | 1010.1 |
| 20260510025025 | 79 | 318 | 2.0 | 4.0 | 0.00 | 0.79 | 0.79 | 21 | 1010.1 |
| 20260510024904 | 79 | 318 | 2.0 | 4.0 | 0.00 | 0.79 | 0.79 | 21 | 1010.1 |
| 20260510024804 | 79 | 318 | 2.0 | 4.0 | 0.00 | 0.79 | 0.79 | 21 | 1010.1 |
| 20260510024704 | 79 | 318 | 2.0 | 4.0 | 0.00 | 0.79 | 0.79 | 21 | 1010.1 |
| 20260510024604 | 79 | 317 | 2.0 | 4.0 | 0.00 | 0.79 | 0.79 | 22 | 1010.1 |
| 20260510024525 | 79 | 317 | 2.0 | 4.0 | 0.00 | 0.79 | 0.79 | 22 | 1010.1 |
| 20260510024404 | 79 | 317 | 2.0 | 4.0 | 0.00 | 0.79 | 0.79 | 22 | 1010.1 |
| 20260510024325 | 79 | 317 | 2.0 | 4.0 | 0.00 | 0.79 | 0.79 | 22 | 1010.1 |
| 20260510024204 | 79 | 316 | 2.0 | 4.0 | 0.00 | 0.79 | 0.79 | 23 | 1010.0 |
| 20260510024104 | 80 | 316 | 2.0 | 4.0 | 0.00 | 0.79 | 0.79 | 23 | 1010.0 |
| 20260510024004 | 80 | 316 | 2.0 | 4.0 | 0.00 | 0.79 | 0.79 | 24 | 1010.0 |
| 20260510023904 | 80 | 316 | 2.0 | 4.0 | 0.00 | 0.79 | 0.79 | 24 | 1009.9 |
| 20260510023804 | 80 | 316 | 2.0 | 4.0 | 0.00 | 0.79 | 0.79 | 25 | 1009.9 |
| 20260510023725 | 80 | 316 | 2.0 | 4.0 | 0.00 | 0.79 | 0.79 | 25 | 1009.9 |
| 20260510023604 | 80 | 316 | 2.0 | 4.0 | 0.00 | 0.79 | 0.79 | 25 | 1009.9 |
| 20260510023504 | 80 | 316 | 2.0 | 4.0 | 0.00 | 0.79 | 0.79 | 26 | 1009.8 |
| 20260510023404 | 80 | 316 | 1.0 | 4.0 | 0.00 | 0.79 | 0.79 | 26 | 1009.8 |
| 20260510023304 | 80 | 316 | 1.0 | 4.0 | 0.00 | 0.79 | 0.79 | 27 | 1009.8 |
| 20260510023204 | 80 | 316 | 1.0 | 4.0 | 0.00 | 0.79 | 0.79 | 27 | 1009.8 |
| 20260510023104 | 80 | 316 | 1.0 | 4.0 | 0.00 | 0.79 | 0.79 | 27 | 1009.8 |
| 20260510023025 | 80 | 316 | 1.0 | 4.0 | 0.00 | 0.79 | 0.79 | 28 | 1009.7 |
| 20260510022904 | 80 | 316 | 2.0 | 4.0 | 0.00 | 0.79 | 0.79 | 29 | 1009.7 |
| 20260510022804 | 80 | 316 | 2.0 | 4.0 | 0.00 | 0.79 | 0.79 | 30 | 1009.7 |
| 20260510022725 | 80 | 316 | 2.0 | 4.0 | 0.00 | 0.79 | 0.79 | 30 | 1009.7 |
| 20260510022604 | 80 | 316 | 2.0 | 4.0 | 0.00 | 0.79 | 0.79 | 31 | 1009.6 |
| 20260510022504 | 80 | 317 | 2.0 | 5.0 | 0.00 | 0.79 | 0.79 | 32 | 1009.6 |
| 20260510022404 | 80 | 317 | 2.0 | 5.0 | 0.00 | 0.79 | 0.79 | 33 | 1009.6 |
| 20260510022306 | 80 | 317 | 2.0 | 5.0 | 0.00 | 0.79 | 0.79 | 33 | 1009.6 |
| 20260510022204 | 80 | 317 | 2.0 | 5.0 | 0.00 | 0.79 | 0.79 | 34 | 1009.6 |
| 20260510022104 | 80 | 318 | 2.0 | 5.0 | 0.00 | 0.79 | 0.79 | 35 | 1009.7 |
| 20260510022004 | 80 | 318 | 2.0 | 5.0 | 0.00 | 0.79 | 0.79 | 35 | 1009.7 |
| 20260510021904 | 80 | 318 | 2.0 | 5.0 | 0.00 | 0.79 | 0.79 | 36 | 1009.6 |
| 20260510021804 | 80 | 318 | 2.0 | 5.0 | 0.00 | 0.79 | 0.79 | 37 | 1009.6 |
| 20260510021704 | 81 | 318 | 2.0 | 5.0 | 0.00 | 0.79 | 0.79 | 38 | 1009.6 |
| 20260510021604 | 81 | 318 | 2.0 | 5.0 | 0.00 | 0.79 | 0.79 | 38 | 1009.5 |
| 20260510021504 | 81 | 318 | 2.0 | 4.0 | 0.00 | 0.79 | 0.79 | 39 | 1009.5 |
| 20260510021404 | 81 | 318 | 2.0 | 4.0 | 0.00 | 0.79 | 0.79 | 40 | 1009.6 |
| 20260510021304 | 81 | 318 | 2.0 | 4.0 | 0.00 | 0.79 | 0.79 | 40 | 1009.5 |
| 20260510021204 | 81 | 317 | 2.0 | 4.0 | 0.00 | 0.79 | 0.79 | 42 | 1009.5 |
| 20260510021104 | 81 | 317 | 2.0 | 4.0 | 0.00 | 0.79 | 0.79 | 42 | 1009.5 |
| 20260510021004 | 81 | 317 | 2.0 | 4.0 | 0.00 | 0.79 | 0.79 | 43 | 1009.5 |
| 20260510020904 | 81 | 311 | 2.0 | 6.0 | 0.00 | 0.79 | 0.79 | 43 | 1009.5 |
| 20260510020825 | 81 | 308 | 2.0 | 6.0 | 0.00 | 0.79 | 0.79 | 44 | 1009.5 |
| 20260510020704 | 81 | 303 | 2.0 | 6.0 | 0.00 | 0.79 | 0.79 | 45 | 1009.5 |
| 20260510020604 | 81 | 295 | 2.0 | 6.0 | 0.00 | 0.79 | 0.79 | 46 | 1009.5 |
| 20260510020504 | 81 | 291 | 2.0 | 6.0 | 0.00 | 0.79 | 0.79 | 46 | 1009.4 |
| 20260510020404 | 81 | 287 | 2.0 | 6.0 | 0.00 | 0.79 | 0.79 | 47 | 1009.4 |
| 20260510020304 | 81 | 283 | 2.0 | 6.0 | 0.00 | 0.79 | 0.79 | 47 | 1009.4 |
| 20260510020204 | 81 | 276 | 2.0 | 6.0 | 0.00 | 0.79 | 0.79 | 48 | 1009.4 |
| 20260510020104 | 81 | 271 | 2.0 | 6.0 | 0.00 | 0.79 | 0.79 | 48 | 1009.4 |
| 20260510020025 | 82 | 267 | 2.0 | 6.0 | 0.00 | 0.79 | 0.79 | 49 | 1009.4 |
| 20260510015904 | 82 | 262 | 2.0 | 5.0 | 0.00 | 0.79 | 0.79 | 49 | 1009.3 |
| 20260510015804 | 82 | 262 | 2.0 | 5.0 | 0.00 | 0.79 | 0.79 | 50 | 1009.3 |
| 20260510015704 | 82 | 261 | 2.0 | 5.0 | 0.00 | 0.79 | 0.79 | 50 | 1009.2 |
| 20260510015604 | 82 | 261 | 2.0 | 5.0 | 0.00 | 0.79 | 0.79 | 50 | 1009.3 |
| 20260510015525 | 82 | 261 | 2.0 | 5.0 | 0.00 | 0.79 | 0.79 | 51 | 1009.2 |
| 20260510015404 | 82 | 261 | 2.0 | 5.0 | 0.00 | 0.79 | 0.79 | 51 | 1009.3 |
| 20260510015306 | 82 | 261 | 2.0 | 5.0 | 0.00 | 0.79 | 0.79 | 52 | 1009.2 |
| 20260510015204 | 82 | 261 | 2.0 | 5.0 | 0.00 | 0.79 | 0.79 | 52 | 1009.2 |
| 20260510015125 | 82 | 260 | 2.0 | 5.0 | 0.00 | 0.79 | 0.79 | 52 | 1009.2 |
| 20260510015004 | 82 | 260 | 2.0 | 5.0 | 0.00 | 0.79 | 0.79 | 52 | 1009.2 |
| 20260510014925 | 82 | 260 | 2.0 | 5.0 | 0.00 | 0.79 | 0.79 | 53 | 1009.2 |
| 20260510014825 | 82 | 260 | 2.0 | 5.0 | 0.00 | 0.79 | 0.79 | 53 | 1009.2 |
| 20260510014725 | 82 | 260 | 1.0 | 5.0 | 0.00 | 0.79 | 0.79 | 53 | 1009.2 |
| 20260510014604 | 82 | 259 | 1.0 | 5.0 | 0.00 | 0.79 | 0.79 | 54 | 1009.2 |
| 20260510014525 | 82 | 259 | 1.0 | 5.0 | 0.00 | 0.79 | 0.79 | 54 | 1009.2 |
| 20260510014404 | 82 | 259 | 1.0 | 3.0 | 0.00 | 0.79 | 0.79 | 54 | 1009.2 |
| 20260510014304 | 82 | 259 | 1.0 | 3.0 | 0.00 | 0.79 | 0.79 | 55 | 1009.1 |
| 20260510014204 | 82 | 259 | 1.0 | 2.0 | 0.00 | 0.79 | 0.79 | 55 | 1009.1 |
| 20260510014104 | 82 | 259 | 1.0 | 2.0 | 0.00 | 0.79 | 0.79 | 55 | 1009.1 |
| 20260510014004 | 82 | 259 | 1.0 | 2.0 | 0.00 | 0.79 | 0.79 | 56 | 1009.1 |
| 20260510013904 | 82 | 259 | 1.0 | 2.0 | 0.00 | 0.79 | 0.79 | 56 | 1009.1 |
| 20260510013804 | 82 | 259 | 0.0 | 2.0 | 0.00 | 0.79 | 0.79 | 56 | 1009.1 |
| 20260510013704 | 82 | 259 | 0.0 | 1.0 | 0.00 | 0.79 | 0.79 | 56 | 1009.1 |
| 20260510013604 | 83 | 259 | 1.0 | 1.0 | 0.00 | 0.79 | 0.79 | 56 | 1009.0 |
| 20260510013504 | 83 | 259 | 1.0 | 1.0 | 0.00 | 0.79 | 0.79 | 56 | 1009.0 |
| 20260510013425 | 83 | 259 | 0.0 | 1.0 | 0.00 | 0.79 | 0.79 | 56 | 1009.0 |
| 20260510013304 | 83 | 259 | 0.0 | 1.0 | 0.00 | 0.79 | 0.79 | 56 | 1009.0 |
| 20260510013204 | 83 | 259 | 0.0 | 1.0 | 0.00 | 0.79 | 0.79 | 56 | 1009.0 |
| 20260510013125 | 83 | 259 | 0.0 | 1.0 | 0.00 | 0.79 | 0.79 | 56 | 1009.0 |
| 20260510013004 | 83 | 259 | 0.0 | 1.0 | 0.00 | 0.79 | 0.79 | 56 | 1009.0 |
| 20260510012925 | 83 | 259 | 0.0 | 1.0 | 0.00 | 0.79 | 0.79 | 56 | 1009.0 |
| 20260510012804 | 83 | 259 | 0.0 | 1.0 | 0.00 | 0.79 | 0.79 | 56 | 1009.0 |
| 20260510012704 | 83 | 259 | 0.0 | 2.0 | 0.00 | 0.79 | 0.79 | 56 | 1009.0 |
| 20260510012604 | 83 | 259 | 0.0 | 2.0 | 0.00 | 0.79 | 0.79 | 56 | 1009.0 |
| 20260510012504 | 84 | 259 | 1.0 | 2.0 | 0.00 | 0.79 | 0.79 | 56 | 1008.9 |
| 20260510012404 | 84 | 259 | 1.0 | 2.0 | 0.00 | 0.79 | 0.79 | 56 | 1008.9 |
| 20260510012325 | 84 | 259 | 1.0 | 2.0 | 0.00 | 0.79 | 0.79 | 56 | 1008.9 |
| 20260510012204 | 84 | 259 | 1.0 | 2.0 | 0.00 | 0.79 | 0.79 | 56 | 1009.0 |
| 20260510012125 | 84 | 259 | 1.0 | 2.0 | 0.00 | 0.79 | 0.79 | 56 | 1008.9 |
| 20260510012004 | 84 | 259 | 1.0 | 2.0 | 0.00 | 0.79 | 0.79 | 56 | 1008.9 |
| 20260510011904 | 84 | 259 | 1.0 | 2.0 | 0.00 | 0.79 | 0.79 | 56 | 1008.9 |
| 20260510011804 | 84 | 259 | 1.0 | 2.0 | 0.00 | 0.79 | 0.79 | 56 | 1008.9 |
| 20260510011704 | 84 | 259 | 1.0 | 2.0 | 0.00 | 0.79 | 0.79 | 56 | 1008.9 |
| 20260510011604 | 84 | 259 | 1.0 | 2.0 | 0.00 | 0.79 | 0.79 | 56 | 1008.8 |
| 20260510011504 | 84 | 259 | 1.0 | 3.0 | 0.00 | 0.79 | 0.79 | 56 | 1008.8 |
| 20260510011404 | 84 | 259 | 1.0 | 3.0 | 0.00 | 0.79 | 0.79 | 56 | 1008.9 |
| 20260510011304 | 84 | 259 | 1.0 | 3.0 | 0.00 | 0.79 | 0.79 | 56 | 1008.8 |
| 20260510011204 | 84 | 259 | 1.0 | 3.0 | 0.00 | 0.79 | 0.79 | 56 | 1008.8 |
| 20260510011104 | 84 | 259 | 1.0 | 3.0 | 0.00 | 0.79 | 0.79 | 56 | 1008.8 |
| 20260510011004 | 84 | 259 | 1.0 | 3.0 | 0.00 | 0.79 | 0.79 | 56 | 1008.8 |
| 20260510010925 | 84 | 259 | 1.0 | 3.0 | 0.00 | 0.79 | 0.79 | 56 | 1008.8 |
| 20260510010804 | 84 | 259 | 1.0 | 3.0 | 0.00 | 0.79 | 0.79 | 56 | 1008.8 |
| 20260510010704 | 85 | 259 | 2.0 | 3.0 | 0.00 | 0.79 | 0.79 | 56 | 1008.8 |
| 20260510010604 | 85 | 259 | 2.0 | 3.0 | 0.00 | 0.79 | 0.79 | 56 | 1008.8 |
| 20260510010525 | 85 | 259 | 1.0 | 3.0 | 0.00 | 0.79 | 0.79 | 56 | 1008.8 |
| 20260510010425 | 85 | 259 | 1.0 | 3.0 | 0.00 | 0.79 | 0.79 | 56 | 1008.8 |
| 20260510010304 | 85 | 258 | 2.0 | 3.0 | 0.00 | 0.79 | 0.79 | 56 | 1008.8 |
| 20260510010204 | 85 | 258 | 1.0 | 3.0 | 0.00 | 0.79 | 0.79 | 56 | 1008.8 |
| 20260510010104 | 85 | 258 | 1.0 | 3.0 | 0.00 | 0.79 | 0.79 | 56 | 1008.8 |
| 20260510010004 | 85 | 258 | 1.0 | 3.0 | 0.00 | 0.79 | 0.79 | 56 | 1008.8 |
| 20260510005904 | 85 | 258 | 1.0 | 3.0 | 0.00 | 0.79 | 0.79 | 56 | 1008.8 |
| 20260510005804 | 85 | 258 | 1.0 | 3.0 | 0.00 | 0.79 | 0.79 | 56 | 1008.8 |
| 20260510005704 | 85 | 258 | 1.0 | 3.0 | 0.00 | 0.79 | 0.79 | 56 | 1008.8 |
| 20260510005604 | 85 | 258 | 1.0 | 3.0 | 0.00 | 0.79 | 0.79 | 56 | 1008.8 |
| 20260510005525 | 85 | 258 | 1.0 | 3.0 | 0.00 | 0.79 | 0.79 | 56 | 1008.7 |
| 20260510005404 | 86 | 258 | 1.0 | 3.0 | 0.00 | 0.79 | 0.79 | 55 | 1008.7 |
| 20260510005306 | 86 | 259 | 1.0 | 3.0 | 0.00 | 0.79 | 0.79 | 55 | 1008.8 |
| 20260510005225 | 86 | 259 | 1.0 | 3.0 | 0.00 | 0.79 | 0.79 | 55 | 1008.8 |
| 20260510005104 | 86 | 259 | 1.0 | 3.0 | 0.00 | 0.79 | 0.79 | 55 | 1008.7 |
| 20260510005004 | 86 | 259 | 2.0 | 4.0 | 0.00 | 0.79 | 0.79 | 55 | 1008.7 |
| 20260510004904 | 86 | 258 | 2.0 | 4.0 | 0.00 | 0.79 | 0.79 | 55 | 1008.7 |
| 20260510004804 | 86 | 258 | 2.0 | 5.0 | 0.00 | 0.79 | 0.79 | 55 | 1008.7 |
| 20260510004704 | 86 | 258 | 2.0 | 5.0 | 0.00 | 0.79 | 0.79 | 55 | 1008.8 |
| 20260510004625 | 86 | 258 | 2.0 | 5.0 | 0.00 | 0.79 | 0.79 | 55 | 1008.7 |
| 20260510004504 | 86 | 258 | 2.0 | 5.0 | 0.00 | 0.79 | 0.79 | 55 | 1008.7 |
| 20260510004425 | 86 | 257 | 2.0 | 5.0 | 0.00 | 0.79 | 0.79 | 55 | 1008.7 |
| 20260510004304 | 86 | 257 | 2.0 | 5.0 | 0.00 | 0.79 | 0.79 | 54 | 1008.7 |
| 20260510004225 | 86 | 257 | 2.0 | 5.0 | 0.00 | 0.79 | 0.79 | 54 | 1008.7 |
| 20260510004104 | 86 | 257 | 2.0 | 5.0 | 0.00 | 0.79 | 0.79 | 54 | 1008.7 |
| 20260510004004 | 86 | 257 | 2.0 | 5.0 | 0.00 | 0.79 | 0.79 | 54 | 1008.7 |
| 20260510003904 | 86 | 256 | 2.0 | 5.0 | 0.00 | 0.79 | 0.79 | 54 | 1008.7 |
| 20260510003825 | 86 | 256 | 2.0 | 4.0 | 0.00 | 0.79 | 0.79 | 54 | 1008.7 |
| 20260510003704 | 86 | 256 | 2.0 | 4.0 | 0.00 | 0.79 | 0.79 | 54 | 1008.7 |
| 20260510003604 | 87 | 256 | 2.0 | 4.0 | 0.00 | 0.79 | 0.79 | 54 | 1008.6 |
| 20260510003504 | 87 | 256 | 2.0 | 5.0 | 0.00 | 0.79 | 0.79 | 54 | 1008.7 |
| 20260510003404 | 87 | 256 | 2.0 | 5.0 | 0.00 | 0.79 | 0.79 | 54 | 1008.6 |
| 20260510003325 | 87 | 256 | 2.0 | 5.0 | 0.00 | 0.79 | 0.79 | 54 | 1008.7 |
| 20260510003204 | 87 | 256 | 2.0 | 5.0 | 0.00 | 0.79 | 0.79 | 54 | 1008.6 |
| 20260510003104 | 87 | 256 | 2.0 | 5.0 | 0.00 | 0.79 | 0.79 | 54 | 1008.6 |
| 20260510003004 | 87 | 256 | 2.0 | 5.0 | 0.00 | 0.79 | 0.79 | 54 | 1008.6 |
| 20260510002904 | 87 | 256 | 2.0 | 5.0 | 0.00 | 0.79 | 0.79 | 54 | 1008.6 |
| 20260510002804 | 87 | 256 | 2.0 | 5.0 | 0.00 | 0.79 | 0.79 | 54 | 1008.6 |
| 20260510002704 | 87 | 256 | 2.0 | 5.0 | 0.00 | 0.79 | 0.79 | 54 | 1008.6 |
| 20260510002604 | 87 | 256 | 2.0 | 5.0 | 0.00 | 0.79 | 0.79 | 54 | 1008.6 |
| 20260510002504 | 87 | 256 | 2.0 | 3.0 | 0.00 | 0.79 | 0.79 | 54 | 1008.6 |
| 20260510002404 | 87 | 256 | 1.0 | 3.0 | 0.00 | 0.79 | 0.79 | 54 | 1008.6 |
| 20260510002306 | 87 | 256 | 2.0 | 3.0 | 0.00 | 0.79 | 0.79 | 54 | 1008.6 |
| 20260510002204 | 87 | 256 | 2.0 | 5.0 | 0.00 | 0.79 | 0.79 | 54 | 1008.6 |
| 20260510002104 | 87 | 256 | 2.0 | 5.0 | 0.00 | 0.79 | 0.79 | 54 | 1008.6 |
| 20260510002004 | 87 | 256 | 2.0 | 5.0 | 0.00 | 0.79 | 0.79 | 54 | 1008.5 |
| 20260510001925 | 87 | 256 | 2.0 | 5.0 | 0.00 | 0.79 | 0.79 | 54 | 1008.6 |
| 20260510001804 | 87 | 255 | 2.0 | 5.0 | 0.00 | 0.79 | 0.79 | 54 | 1008.5 |
| 20260510001725 | 87 | 255 | 2.0 | 5.0 | 0.00 | 0.79 | 0.79 | 54 | 1008.5 |
| 20260510001604 | 87 | 254 | 2.0 | 5.0 | 0.00 | 0.79 | 0.79 | 54 | 1008.6 |
| 20260510001525 | 87 | 255 | 2.0 | 5.0 | 0.00 | 0.79 | 0.79 | 54 | 1008.5 |
| 20260510001404 | 87 | 254 | 2.0 | 5.0 | 0.00 | 0.79 | 0.79 | 54 | 1008.5 |
| 20260510001304 | 87 | 254 | 2.0 | 5.0 | 0.00 | 0.79 | 0.79 | 54 | 1008.6 |
| 20260510001225 | 87 | 254 | 2.0 | 5.0 | 0.00 | 0.79 | 0.79 | 54 | 1008.5 |
| 20260510001125 | 87 | 254 | 2.0 | 5.0 | 0.00 | 0.79 | 0.79 | 53 | 1008.5 |
| 20260510001025 | 87 | 254 | 2.0 | 5.0 | 0.00 | 0.79 | 0.79 | 54 | 1008.4 |
| 20260510000925 | 87 | 255 | 2.0 | 5.0 | 0.00 | 0.79 | 0.79 | 54 | 1008.4 |
| 20260510000804 | 87 | 255 | 2.0 | 5.0 | 0.00 | 0.79 | 0.79 | 54 | 1008.5 |
| 20260510000704 | 87 | 255 | 2.0 | 5.0 | 0.00 | 0.79 | 0.79 | 53 | 1008.5 |
| 20260510000604 | 87 | 255 | 2.0 | 4.0 | 0.00 | 0.79 | 0.79 | 53 | 1008.5 |
| 20260510000504 | 87 | 255 | 2.0 | 4.0 | 0.00 | 0.79 | 0.79 | 53 | 1008.4 |
| 20260510000404 | 87 | 255 | 2.0 | 4.0 | 0.00 | 0.79 | 0.79 | 53 | 1008.4 |
| 20260510000304 | 87 | 255 | 2.0 | 4.0 | 0.00 | 0.79 | 0.79 | 53 | 1008.4 |
| 20260510000204 | 87 | 255 | 2.0 | 4.0 | 0.00 | 0.79 | 0.79 | 53 | 1008.4 |
| 20260510000104 | 88 | 255 | 2.0 | 5.0 | 0.00 | 0.79 | 0.79 | 53 | 1008.3 |
| 20260510000004 | 88 | 255 | 2.0 | 5.0 | 0.00 | 0.79 | 0.79 | 53 | 1008.3 |
| 20260509235904 | 88 | 255 | 2.0 | 5.0 | 0.00 | 0.79 | 0.79 | 54 | 1008.4 |
| 20260509235804 | 87 | 255 | 2.0 | 5.0 | 0.00 | 0.79 | 0.79 | 53 | 1008.4 |
| 20260509235725 | 87 | 255 | 2.0 | 5.0 | 0.00 | 0.79 | 0.79 | 53 | 1008.3 |
| 20260509235604 | 87 | 255 | 2.0 | 5.0 | 0.00 | 0.79 | 0.79 | 53 | 1008.3 |
| 20260509235504 | 87 | 255 | 2.0 | 5.0 | 0.00 | 0.79 | 0.79 | 53 | 1008.4 |
| 20260509235404 | 87 | 255 | 2.0 | 5.0 | 0.00 | 0.79 | 0.79 | 53 | 1008.3 |
| 20260509235306 | 87 | 254 | 2.0 | 5.0 | 0.00 | 0.79 | 0.79 | 52 | 1008.3 |
| 20260509235204 | 87 | 254 | 2.0 | 5.0 | 0.00 | 0.79 | 0.79 | 52 | 1008.3 |
| 20260509235104 | 88 | 254 | 2.0 | 5.0 | 0.00 | 0.79 | 0.79 | 52 | 1008.3 |
| 20260509235004 | 88 | 253 | 3.0 | 5.0 | 0.00 | 0.79 | 0.79 | 52 | 1008.3 |
| 20260509234904 | 88 | 252 | 3.0 | 5.0 | 0.00 | 0.79 | 0.79 | 52 | 1008.3 |
| 20260509234804 | 88 | 252 | 3.0 | 5.0 | 0.00 | 0.79 | 0.79 | 52 | 1008.3 |
| 20260509234704 | 88 | 251 | 3.0 | 5.0 | 0.00 | 0.79 | 0.79 | 53 | 1008.3 |
| 20260509234604 | 88 | 251 | 3.0 | 5.0 | 0.00 | 0.79 | 0.79 | 52 | 1008.3 |
| 20260509234504 | 88 | 250 | 3.0 | 5.0 | 0.00 | 0.79 | 0.79 | 52 | 1008.3 |
| 20260509234404 | 88 | 250 | 3.0 | 5.0 | 0.00 | 0.79 | 0.79 | 52 | 1008.3 |
| 20260509234304 | 88 | 249 | 2.0 | 5.0 | 0.00 | 0.79 | 0.79 | 51 | 1008.3 |
| 20260509234204 | 88 | 249 | 3.0 | 5.0 | 0.00 | 0.79 | 0.79 | 51 | 1008.2 |
| 20260509234104 | 88 | 249 | 3.0 | 5.0 | 0.00 | 0.79 | 0.79 | 51 | 1008.3 |
| 20260509234025 | 88 | 249 | 3.0 | 5.0 | 0.00 | 0.79 | 0.79 | 51 | 1008.2 |
| 20260509233904 | 88 | 248 | 3.0 | 4.0 | 0.00 | 0.79 | 0.79 | 52 | 1008.2 |
| 20260509233804 | 88 | 248 | 3.0 | 4.0 | 0.00 | 0.79 | 0.79 | 52 | 1008.2 |
| 20260509233704 | 88 | 248 | 2.0 | 4.0 | 0.00 | 0.79 | 0.79 | 52 | 1008.2 |
| 20260509233604 | 88 | 248 | 2.0 | 4.0 | 0.00 | 0.79 | 0.79 | 52 | 1008.1 |
| 20260509233504 | 88 | 248 | 2.0 | 4.0 | 0.00 | 0.79 | 0.79 | 52 | 1008.2 |
| 20260509233404 | 88 | 247 | 2.0 | 4.0 | 0.00 | 0.79 | 0.79 | 51 | 1008.2 |
| 20260509233304 | 88 | 247 | 2.0 | 4.0 | 0.00 | 0.79 | 0.79 | 51 | 1008.1 |
| 20260509233204 | 88 | 247 | 2.0 | 4.0 | 0.00 | 0.79 | 0.79 | 51 | 1008.2 |
| 20260509233104 | 88 | 247 | 2.0 | 4.0 | 0.00 | 0.79 | 0.79 | 51 | 1008.2 |
| 20260509233004 | 88 | 246 | 2.0 | 4.0 | 0.00 | 0.79 | 0.79 | 52 | 1008.2 |
| 20260509232904 | 88 | 246 | 2.0 | 4.0 | 0.00 | 0.79 | 0.79 | 52 | 1008.1 |
| 20260509232804 | 88 | 246 | 2.0 | 5.0 | 0.00 | 0.79 | 0.79 | 51 | 1008.1 |
| 20260509232704 | 88 | 245 | 2.0 | 5.0 | 0.00 | 0.79 | 0.79 | 51 | 1008.1 |
| 20260509232604 | 88 | 245 | 2.0 | 5.0 | 0.00 | 0.79 | 0.79 | 51 | 1008.1 |
| 20260509232504 | 88 | 244 | 2.0 | 5.0 | 0.00 | 0.79 | 0.79 | 51 | 1008.1 |
| 20260509232425 | 88 | 244 | 2.0 | 5.0 | 0.00 | 0.79 | 0.79 | 51 | 1008.1 |
| 20260509232325 | 88 | 244 | 2.0 | 5.0 | 0.00 | 0.79 | 0.79 | 51 | 1008.1 |
| 20260509232204 | 88 | 243 | 2.0 | 5.0 | 0.00 | 0.79 | 0.79 | 51 | 1008.1 |
| 20260509232104 | 88 | 243 | 3.0 | 5.0 | 0.00 | 0.79 | 0.79 | 51 | 1008.1 |
| 20260509232025 | 88 | 242 | 3.0 | 5.0 | 0.00 | 0.79 | 0.79 | 51 | 1008.1 |
| 20260509231904 | 88 | 242 | 3.0 | 5.0 | 0.00 | 0.79 | 0.79 | 51 | 1008.1 |
| 20260509231804 | 88 | 241 | 3.0 | 5.0 | 0.00 | 0.79 | 0.79 | 51 | 1008.1 |
| 20260509231704 | 88 | 241 | 3.0 | 5.0 | 0.00 | 0.79 | 0.79 | 51 | 1008.1 |
| 20260509231604 | 88 | 240 | 3.0 | 5.0 | 0.00 | 0.79 | 0.79 | 51 | 1008.1 |
| 20260509231525 | 88 | 240 | 3.0 | 5.0 | 0.00 | 0.79 | 0.79 | 51 | 1008.1 |
| 20260509231404 | 88 | 240 | 3.0 | 5.0 | 0.00 | 0.79 | 0.79 | 51 | 1008.1 |
| 20260509231325 | 88 | 239 | 3.0 | 5.0 | 0.00 | 0.79 | 0.79 | 51 | 1008.1 |
| 20260509231204 | 88 | 239 | 3.0 | 5.0 | 0.00 | 0.79 | 0.79 | 51 | 1008.1 |
| 20260509231104 | 88 | 239 | 2.0 | 5.0 | 0.00 | 0.79 | 0.79 | 51 | 1008.1 |
| 20260509231004 | 88 | 238 | 2.0 | 5.0 | 0.00 | 0.79 | 0.79 | 50 | 1008.2 |
| 20260509230904 | 88 | 237 | 2.0 | 5.0 | 0.00 | 0.79 | 0.79 | 50 | 1008.1 |
| 20260509230804 | 88 | 237 | 2.0 | 5.0 | 0.00 | 0.79 | 0.79 | 50 | 1008.2 |
| 20260509230704 | 88 | 236 | 2.0 | 5.0 | 0.00 | 0.79 | 0.79 | 50 | 1008.2 |
| 20260509230604 | 88 | 236 | 2.0 | 5.0 | 0.00 | 0.79 | 0.79 | 50 | 1008.2 |
| 20260509230504 | 88 | 235 | 2.0 | 5.0 | 0.00 | 0.79 | 0.79 | 51 | 1008.2 |
| 20260509230404 | 88 | 234 | 2.0 | 5.0 | 0.00 | 0.79 | 0.79 | 51 | 1008.2 |
| 20260509230304 | 88 | 234 | 2.0 | 4.0 | 0.00 | 0.79 | 0.79 | 51 | 1008.1 |
| 20260509230225 | 88 | 233 | 2.0 | 4.0 | 0.00 | 0.79 | 0.79 | 51 | 1008.1 |
| 20260509230104 | 88 | 233 | 2.0 | 4.0 | 0.00 | 0.79 | 0.79 | 52 | 1008.1 |
| 20260509230025 | 88 | 233 | 2.0 | 4.0 | 0.00 | 0.79 | 0.79 | 51 | 1008.1 |
| 20260509225904 | 88 | 233 | 2.0 | 4.0 | 0.00 | 0.79 | 0.79 | 51 | 1008.1 |
| 20260509225804 | 88 | 233 | 2.0 | 4.0 | 0.00 | 0.79 | 0.79 | 51 | 1008.2 |
| 20260509225704 | 88 | 233 | 2.0 | 4.0 | 0.00 | 0.79 | 0.79 | 51 | 1008.1 |
| 20260509225625 | 88 | 233 | 2.0 | 4.0 | 0.00 | 0.79 | 0.79 | 51 | 1008.1 |
| 20260509225504 | 88 | 234 | 2.0 | 4.0 | 0.00 | 0.79 | 0.79 | 50 | 1008.1 |
| 20260509225404 | 88 | 234 | 2.0 | 4.0 | 0.00 | 0.79 | 0.79 | 51 | 1008.2 |
| 20260509225306 | 88 | 234 | 2.0 | 4.0 | 0.00 | 0.79 | 0.79 | 51 | 1008.2 |
| 20260509225204 | 88 | 235 | 2.0 | 4.0 | 0.00 | 0.79 | 0.79 | 50 | 1008.1 |
| 20260509225104 | 88 | 235 | 2.0 | 4.0 | 0.00 | 0.79 | 0.79 | 51 | 1008.1 |
| 20260509225004 | 89 | 235 | 2.0 | 4.0 | 0.00 | 0.79 | 0.79 | 51 | 1008.1 |
| 20260509224904 | 89 | 236 | 2.0 | 4.0 | 0.00 | 0.79 | 0.79 | 51 | 1008.1 |
| 20260509224804 | 89 | 236 | 2.0 | 4.0 | 0.00 | 0.79 | 0.79 | 51 | 1008.1 |
| 20260509224704 | 89 | 236 | 2.0 | 4.0 | 0.00 | 0.79 | 0.79 | 52 | 1008.1 |
| 20260509224604 | 89 | 236 | 2.0 | 4.0 | 0.00 | 0.79 | 0.79 | 51 | 1008.2 |
| 20260509224504 | 88 | 235 | 2.0 | 5.0 | 0.00 | 0.79 | 0.79 | 51 | 1008.2 |
| 20260509224404 | 88 | 234 | 2.0 | 5.0 | 0.00 | 0.79 | 0.79 | 51 | 1008.2 |
| 20260509224304 | 88 | 233 | 2.0 | 5.0 | 0.00 | 0.79 | 0.79 | 51 | 1008.2 |
| 20260509224204 | 88 | 231 | 2.0 | 5.0 | 0.00 | 0.79 | 0.79 | 51 | 1008.2 |
| 20260509224104 | 88 | 230 | 3.0 | 6.0 | 0.00 | 0.79 | 0.79 | 50 | 1008.2 |
| 20260509224004 | 88 | 228 | 3.0 | 6.0 | 0.00 | 0.79 | 0.79 | 50 | 1008.3 |
| 20260509223904 | 88 | 226 | 3.0 | 6.0 | 0.00 | 0.79 | 0.79 | 50 | 1008.3 |
| 20260509223804 | 88 | 223 | 2.0 | 6.0 | 0.00 | 0.79 | 0.79 | 51 | 1008.3 |
| 20260509223704 | 88 | 221 | 2.0 | 6.0 | 0.00 | 0.79 | 0.79 | 51 | 1008.3 |
| 20260509223604 | 88 | 218 | 2.0 | 6.0 | 0.00 | 0.79 | 0.79 | 51 | 1008.3 |
| 20260509223504 | 88 | 215 | 2.0 | 6.0 | 0.00 | 0.79 | 0.79 | 51 | 1008.3 |
| 20260509223404 | 88 | 214 | 2.0 | 6.0 | 0.00 | 0.79 | 0.79 | 50 | 1008.3 |
| 20260509223325 | 88 | 214 | 2.0 | 6.0 | 0.00 | 0.79 | 0.79 | 51 | 1008.3 |
| 20260509223204 | 88 | 213 | 2.0 | 6.0 | 0.00 | 0.79 | 0.79 | 50 | 1008.3 |
| 20260509223104 | 88 | 219 | 2.0 | 7.0 | 0.00 | 0.79 | 0.79 | 50 | 1008.3 |
| 20260509223004 | 88 | 224 | 2.0 | 7.0 | 0.00 | 0.79 | 0.79 | 50 | 1008.2 |
| 20260509222904 | 88 | 228 | 2.0 | 7.0 | 0.00 | 0.79 | 0.79 | 51 | 1008.3 |
| 20260509222804 | 88 | 235 | 2.0 | 7.0 | 0.00 | 0.79 | 0.79 | 51 | 1008.2 |
| 20260509222704 | 88 | 244 | 2.0 | 7.0 | 0.00 | 0.79 | 0.79 | 50 | 1008.2 |
| 20260509222625 | 88 | 248 | 2.0 | 7.0 | 0.00 | 0.79 | 0.79 | 51 | 1008.2 |
| 20260509222504 | 88 | 268 | 2.0 | 7.0 | 0.00 | 0.79 | 0.79 | 50 | 1008.2 |
| 20260509222404 | 88 | 285 | 2.0 | 7.0 | 0.00 | 0.79 | 0.79 | 50 | 1008.2 |
| 20260509222307 | 88 | 305 | 2.0 | 7.0 | 0.00 | 0.79 | 0.79 | 50 | 1008.2 |
| 20260509222204 | 88 | 325 | 2.0 | 7.0 | 0.00 | 0.79 | 0.79 | 50 | 1008.2 |
| 20260509222104 | 88 | 343 | 2.0 | 5.0 | 0.00 | 0.79 | 0.79 | 51 | 1008.2 |
| 20260509222004 | 88 | 351 | 2.0 | 5.0 | 0.00 | 0.79 | 0.79 | 50 | 1008.2 |
| 20260509221904 | 88 | 357 | 2.0 | 5.0 | 0.00 | 0.79 | 0.79 | 51 | 1008.2 |
| 20260509221804 | 88 | 3 | 2.0 | 5.0 | 0.00 | 0.79 | 0.79 | 51 | 1008.1 |
| 20260509221725 | 88 | 6 | 2.0 | 5.0 | 0.00 | 0.79 | 0.79 | 51 | 1008.2 |
| 20260509221604 | 88 | 8 | 2.0 | 5.0 | 0.00 | 0.79 | 0.79 | 50 | 1008.1 |
| 20260509221504 | 88 | 11 | 2.0 | 5.0 | 0.00 | 0.79 | 0.79 | 50 | 1008.1 |
| 20260509221404 | 88 | 16 | 2.0 | 5.0 | 0.00 | 0.79 | 0.79 | 50 | 1008.1 |
| 20260509221304 | 89 | 20 | 2.0 | 5.0 | 0.00 | 0.79 | 0.79 | 50 | 1008.1 |
| 20260509221225 | 89 | 25 | 2.0 | 5.0 | 0.00 | 0.79 | 0.79 | 51 | 1008.1 |
| 20260509221104 | 89 | 26 | 2.0 | 5.0 | 0.00 | 0.79 | 0.79 | 50 | 1008.1 |
| 20260509221004 | 89 | 27 | 2.0 | 5.0 | 0.00 | 0.79 | 0.79 | 50 | 1008.1 |
| 20260509220925 | 89 | 27 | 2.0 | 5.0 | 0.00 | 0.79 | 0.79 | 50 | 1008.1 |
| 20260509220804 | 89 | 28 | 2.0 | 5.0 | 0.00 | 0.79 | 0.79 | 50 | 1008.1 |
| 20260509220704 | 88 | 28 | 2.0 | 4.0 | 0.00 | 0.79 | 0.79 | 50 | 1008.1 |
| 20260509220604 | 88 | 28 | 2.0 | 4.0 | 0.00 | 0.79 | 0.79 | 49 | 1008.0 |
| 20260509220504 | 88 | 28 | 2.0 | 4.0 | 0.00 | 0.79 | 0.79 | 49 | 1008.1 |
| 20260509220404 | 88 | 28 | 2.0 | 5.0 | 0.00 | 0.79 | 0.79 | 49 | 1008.1 |
| 20260509220325 | 88 | 29 | 2.0 | 5.0 | 0.00 | 0.79 | 0.79 | 49 | 1008.1 |
| 20260509220204 | 88 | 29 | 2.0 | 5.0 | 0.00 | 0.79 | 0.79 | 49 | 1008.2 |
| 20260509220104 | 88 | 31 | 2.0 | 6.0 | 0.00 | 0.79 | 0.79 | 49 | 1008.2 |
| 20260509220004 | 88 | 32 | 2.0 | 6.0 | 0.00 | 0.79 | 0.79 | 49 | 1008.2 |
| 20260509215925 | 88 | 33 | 2.0 | 6.0 | 0.00 | 0.79 | 0.79 | 49 | 1008.2 |
| 20260509215825 | 88 | 36 | 2.0 | 6.0 | 0.00 | 0.79 | 0.79 | 49 | 1008.2 |
| 20260509215704 | 88 | 40 | 2.0 | 6.0 | 0.00 | 0.79 | 0.79 | 49 | 1008.2 |
| 20260509215604 | 88 | 42 | 2.0 | 6.0 | 0.00 | 0.79 | 0.79 | 49 | 1008.3 |
| 20260509215504 | 88 | 46 | 3.0 | 6.0 | 0.00 | 0.79 | 0.79 | 48 | 1008.3 |
| 20260509215425 | 88 | 48 | 3.0 | 6.0 | 0.00 | 0.79 | 0.79 | 49 | 1008.2 |
| 20260509215306 | 88 | 53 | 3.0 | 6.0 | 0.00 | 0.79 | 0.79 | 49 | 1008.2 |
| 20260509215204 | 88 | 56 | 2.0 | 6.0 | 0.00 | 0.79 | 0.79 | 49 | 1008.2 |
| 20260509215104 | 88 | 58 | 2.0 | 5.0 | 0.00 | 0.79 | 0.79 | 49 | 1008.2 |
| 20260509215004 | 88 | 58 | 2.0 | 5.0 | 0.00 | 0.79 | 0.79 | 49 | 1008.3 |
| 20260509214904 | 88 | 58 | 2.0 | 5.0 | 0.00 | 0.79 | 0.79 | 49 | 1008.3 |
| 20260509214804 | 88 | 57 | 2.0 | 5.0 | 0.00 | 0.79 | 0.79 | 49 | 1008.3 |
| 20260509214704 | 88 | 57 | 2.0 | 5.0 | 0.00 | 0.79 | 0.79 | 49 | 1008.3 |
| 20260509214604 | 88 | 57 | 2.0 | 5.0 | 0.00 | 0.79 | 0.79 | 48 | 1008.3 |
| 20260509214504 | 88 | 57 | 2.0 | 5.0 | 0.00 | 0.79 | 0.79 | 47 | 1008.3 |
| 20260509214425 | 88 | 57 | 2.0 | 5.0 | 0.00 | 0.79 | 0.79 | 49 | 1008.3 |
| 20260509214304 | 88 | 57 | 2.0 | 4.0 | 0.00 | 0.79 | 0.79 | 49 | 1008.3 |
| 20260509214204 | 88 | 57 | 2.0 | 4.0 | 0.00 | 0.79 | 0.79 | 48 | 1008.3 |
| 20260509214104 | 88 | 57 | 2.0 | 4.0 | 0.00 | 0.79 | 0.79 | 48 | 1008.3 |
| 20260509214004 | 88 | 57 | 2.0 | 4.0 | 0.00 | 0.79 | 0.79 | 47 | 1008.3 |
| 20260509213904 | 88 | 57 | 2.0 | 3.0 | 0.00 | 0.79 | 0.79 | 48 | 1008.4 |
| 20260509213804 | 88 | 57 | 2.0 | 3.0 | 0.00 | 0.79 | 0.79 | 47 | 1008.4 |
| 20260509213704 | 88 | 57 | 2.0 | 3.0 | 0.00 | 0.79 | 0.79 | 47 | 1008.4 |
| 20260509213604 | 88 | 57 | 2.0 | 4.0 | 0.00 | 0.79 | 0.79 | 48 | 1008.4 |
| 20260509213504 | 88 | 57 | 2.0 | 4.0 | 0.00 | 0.79 | 0.79 | 48 | 1008.4 |
| 20260509213404 | 87 | 56 | 2.0 | 5.0 | 0.00 | 0.79 | 0.79 | 48 | 1008.5 |
| 20260509213304 | 87 | 50 | 2.0 | 6.0 | 0.00 | 0.79 | 0.79 | 49 | 1008.5 |
| 20260509213204 | 87 | 46 | 2.0 | 6.0 | 0.00 | 0.79 | 0.79 | 48 | 1008.5 |
| 20260509213125 | 87 | 37 | 2.0 | 6.0 | 0.00 | 0.79 | 0.79 | 48 | 1008.5 |
| 20260509213004 | 87 | 4 | 2.0 | 6.0 | 0.00 | 0.79 | 0.79 | 47 | 1008.5 |
| 20260509212904 | 88 | 338 | 2.0 | 6.0 | 0.00 | 0.79 | 0.79 | 47 | 1008.5 |
| 20260509212804 | 88 | 318 | 2.0 | 6.0 | 0.00 | 0.79 | 0.79 | 48 | 1008.6 |
| 20260509212704 | 88 | 312 | 2.0 | 6.0 | 0.00 | 0.79 | 0.79 | 47 | 1008.6 |
| 20260509212604 | 88 | 303 | 3.0 | 6.0 | 0.00 | 0.79 | 0.79 | 47 | 1008.6 |
| 20260509212504 | 87 | 302 | 3.0 | 6.0 | 0.00 | 0.79 | 0.79 | 47 | 1008.6 |
| 20260509212404 | 87 | 297 | 3.0 | 6.0 | 0.00 | 0.79 | 0.79 | 47 | 1008.7 |
| 20260509212306 | 87 | 301 | 3.0 | 6.0 | 0.00 | 0.79 | 0.79 | 47 | 1008.6 |
| 20260509212204 | 87 | 308 | 3.0 | 6.0 | 0.00 | 0.79 | 0.79 | 47 | 1008.7 |
| 20260509212104 | 87 | 322 | 3.0 | 6.0 | 0.00 | 0.79 | 0.79 | 46 | 1008.7 |
| 20260509212004 | 87 | 328 | 2.0 | 6.0 | 0.00 | 0.79 | 0.79 | 46 | 1008.7 |
| 20260509211904 | 87 | 331 | 2.0 | 6.0 | 0.00 | 0.79 | 0.79 | 46 | 1008.7 |
| 20260509211804 | 87 | 333 | 2.0 | 6.0 | 0.00 | 0.79 | 0.79 | 46 | 1008.7 |
| 20260509211704 | 87 | 344 | 2.0 | 6.0 | 0.00 | 0.79 | 0.79 | 45 | 1008.7 |
| 20260509211604 | 87 | 352 | 2.0 | 6.0 | 0.00 | 0.79 | 0.79 | 45 | 1008.7 |
| 20260509211504 | 87 | 359 | 2.0 | 6.0 | 0.00 | 0.79 | 0.79 | 45 | 1008.7 |
| 20260509211425 | 87 | 3 | 2.0 | 6.0 | 0.00 | 0.79 | 0.79 | 44 | 1008.7 |
| 20260509211304 | 87 | 10 | 2.0 | 6.0 | 0.00 | 0.79 | 0.79 | 44 | 1008.7 |
| 20260509211204 | 87 | 343 | 2.0 | 6.0 | 0.00 | 0.79 | 0.79 | 43 | 1008.7 |
| 20260509211104 | 87 | 295 | 2.0 | 6.0 | 0.00 | 0.79 | 0.79 | 43 | 1008.7 |
| 20260509211004 | 86 | 287 | 2.0 | 6.0 | 0.00 | 0.79 | 0.79 | 42 | 1008.7 |
| 20260509210904 | 86 | 270 | 2.0 | 6.0 | 0.00 | 0.79 | 0.79 | 42 | 1008.8 |
| 20260509210804 | 86 | 267 | 2.0 | 6.0 | 0.00 | 0.79 | 0.79 | 42 | 1008.8 |
| 20260509210704 | 86 | 258 | 2.0 | 6.0 | 0.00 | 0.79 | 0.79 | 42 | 1008.8 |
| 20260509210604 | 86 | 255 | 1.0 | 6.0 | 0.00 | 0.79 | 0.79 | 42 | 1008.9 |
| 20260509210504 | 85 | 246 | 1.0 | 6.0 | 0.00 | 0.79 | 0.79 | 42 | 1008.9 |
| 20260509210404 | 85 | 245 | 1.0 | 6.0 | 0.00 | 0.79 | 0.79 | 42 | 1009.0 |
| 20260509210304 | 84 | 243 | 1.0 | 6.0 | 0.00 | 0.79 | 0.79 | 42 | 1009.0 |
| 20260509210225 | 84 | 242 | 1.0 | 6.0 | 0.00 | 0.79 | 0.79 | 41 | 1009.0 |
| 20260509210104 | 84 | 241 | 1.0 | 6.0 | 0.00 | 0.79 | 0.79 | 40 | 1009.0 |
| 20260509210004 | 83 | 240 | 1.0 | 6.0 | 0.01 | 0.79 | 0.79 | 32 | 1008.9 |
| 20260509205904 | 83 | 237 | 1.0 | 6.0 | 0.01 | 0.79 | 0.79 | 32 | 1009.0 |
| 20260509205804 | 82 | 232 | 1.0 | 6.0 | 0.01 | 0.79 | 0.79 | 17 | 1008.9 |
| 20260509205725 | 82 | 231 | 1.0 | 6.0 | 0.01 | 0.79 | 0.79 | 17 | 1008.9 |
| 20260509205604 | 81 | 231 | 1.0 | 6.0 | 0.01 | 0.79 | 0.79 | 17 | 1008.9 |
| 20260509205504 | 81 | 231 | 1.0 | 6.0 | 0.02 | 0.79 | 0.79 | 4 | 1008.9 |
| 20260509205404 | 80 | 231 | 1.0 | 6.0 | 0.03 | 0.79 | 0.79 | 1 | 1008.9 |
| 20260509205325 | 80 | 230 | 1.0 | 6.0 | 0.03 | 0.79 | 0.79 | 1 | 1008.9 |
| 20260509205204 | 78 | 229 | 1.0 | 6.0 | 0.03 | 0.79 | 0.79 | 1 | 1008.9 |
| 20260509205104 | 77 | 228 | 1.0 | 6.0 | 0.05 | 0.79 | 0.79 | 1 | 1008.9 |
| 20260509205003 | 76 | 226 | 1.0 | 6.0 | 0.08 | 0.79 | 0.79 | 1 | 1009.0 |
| 20260509204904 | 76 | 217 | 0.0 | 6.0 | 0.12 | 0.79 | 0.79 | 1 | 1009.0 |
| 20260509204804 | 75 | 207 | 0.0 | 2.0 | 0.15 | 0.79 | 0.79 | 1 | 1009.0 |
| 20260509204704 | 74 | 0 | 0.0 | 0.0 | 0.16 | 0.79 | 0.79 | 1 | 1009.0 |
| 20260509204604 | 73 | 0 | 0.0 | 0.0 | 0.17 | 0.79 | 0.79 | 1 | 1009.0 |
| 20260509204504 | 73 | 0 | 0.0 | 0.0 | 0.18 | 0.79 | 0.79 | 1 | 1009.1 |
| 20260509204404 | 73 | 0 | 0.0 | 0.0 | 0.19 | 0.79 | 0.79 | 1 | 1009.1 |
| 20260509204304 | 73 | 0 | 0.0 | 0.0 | 0.25 | 0.79 | 0.79 | 1 | 1009.1 |
| 20260509204225 | 73 | 0 | 0.0 | 0.0 | 0.27 | 0.79 | 0.79 | 1 | 1009.1 |
| 20260509204125 | 74 | 0 | 0.0 | 0.0 | 0.29 | 0.79 | 0.79 | 1 | 1009.1 |
| 20260509204004 | 74 | 0 | 0.0 | 0.0 | 0.32 | 0.79 | 0.79 | 1 | 1009.1 |
| 20260509203904 | 74 | 0 | 0.0 | 0.0 | 0.35 | 0.79 | 0.79 | 1 | 1009.1 |
| 20260509203804 | 74 | 0 | 0.0 | 0.0 | 0.39 | 0.79 | 0.79 | 1 | 1009.1 |
| 20260509203704 | 74 | 0 | 0.0 | 0.0 | 0.43 | 0.79 | 0.79 | 1 | 1009.1 |
| 20260509203625 | 73 | 0 | 0.0 | 0.0 | 0.47 | 0.79 | 0.79 | 1 | 1009.1 |
| 20260509203504 | 74 | 0 | 0.0 | 0.0 | 0.51 | 0.79 | 0.79 | 1 | 1009.1 |
| 20260509203404 | 74 | 0 | 0.0 | 0.0 | 0.53 | 0.79 | 0.79 | 1 | 1009.2 |
| 20260509203304 | 74 | 0 | 0.0 | 0.0 | 0.59 | 0.79 | 0.79 | 1 | 1009.2 |
| 20260509203204 | 74 | 0 | 0.0 | 0.0 | 0.64 | 0.79 | 0.79 | 1 | 1009.2 |
| 20260509203104 | 74 | 0 | 0.0 | 0.0 | 0.65 | 0.79 | 0.79 | 1 | 1009.2 |
| 20260509203004 | 74 | 0 | 0.0 | 0.0 | 0.66 | 0.79 | 0.79 | 1 | 1009.2 |
| 20260509202904 | 74 | 0 | 0.0 | 0.0 | 0.68 | 0.79 | 0.79 | 1 | 1009.2 |
| 20260509202804 | 74 | 124 | 0.0 | 2.0 | 0.69 | 0.79 | 0.79 | 1 | 1009.2 |
| 20260509202704 | 74 | 121 | 1.0 | 4.0 | 0.72 | 0.79 | 0.79 | 1 | 1009.2 |
| 20260509202604 | 74 | 113 | 1.0 | 5.0 | 0.74 | 0.79 | 0.79 | 1 | 1009.2 |
| 20260509202503 | 74 | 107 | 1.0 | 5.0 | 0.74 | 0.79 | 0.79 | 1 | 1009.2 |
| 20260509202404 | 73 | 102 | 1.0 | 5.0 | 0.75 | 0.79 | 0.79 | 1 | 1009.2 |
| 20260509202306 | 72 | 102 | 1.0 | 5.0 | 0.75 | 0.79 | 0.79 | 1 | 1009.2 |
| 20260509202204 | 72 | 102 | 1.0 | 5.0 | 0.76 | 0.79 | 0.79 | 1 | 1009.1 |
| 20260509202104 | 71 | 100 | 2.0 | 5.0 | 0.77 | 0.79 | 0.79 | 1 | 1009.1 |
| 20260509202004 | 71 | 97 | 2.0 | 5.0 | 0.78 | 0.79 | 0.79 | 1 | 1009.1 |
| 20260509201904 | 71 | 95 | 2.0 | 5.0 | 0.78 | 0.79 | 0.79 | 1 | 1009.2 |
| 20260509201804 | 71 | 92 | 2.0 | 5.0 | 0.79 | 0.79 | 0.79 | 1 | 1009.2 |
| 20260509201725 | 72 | 88 | 2.0 | 5.0 | 0.79 | 0.79 | 0.79 | 1 | 1009.2 |
| 20260509201604 | 71 | 82 | 2.0 | 4.0 | 0.79 | 0.79 | 0.79 | 1 | 1009.2 |
| 20260509201504 | 71 | 81 | 2.0 | 3.0 | 0.79 | 0.79 | 0.79 | 1 | 1009.2 |
| 20260509201404 | 71 | 80 | 2.0 | 3.0 | 0.79 | 0.79 | 0.79 | 1 | 1009.3 |
| 20260509201304 | 70 | 79 | 2.0 | 3.0 | 0.79 | 0.79 | 0.79 | 1 | 1009.3 |
| 20260509201204 | 70 | 79 | 2.0 | 4.0 | 0.79 | 0.79 | 0.79 | 1 | 1009.4 |
| 20260509201125 | 69 | 78 | 2.0 | 4.0 | 0.79 | 0.79 | 0.79 | 1 | 1009.4 |
| 20260509201004 | 69 | 76 | 2.0 | 5.0 | 0.79 | 0.79 | 0.79 | 1 | 1009.5 |
| 20260509200904 | 68 | 74 | 2.0 | 5.0 | 0.79 | 0.79 | 0.79 | 1 | 1009.5 |
| 20260509200804 | 68 | 72 | 2.0 | 5.0 | 0.79 | 0.79 | 0.79 | 1 | 1009.6 |
| 20260509200725 | 68 | 70 | 2.0 | 5.0 | 0.79 | 0.79 | 0.79 | 1 | 1009.7 |
| 20260509200625 | 67 | 67 | 3.0 | 6.0 | 0.79 | 0.79 | 0.79 | 1 | 1009.8 |
| 20260509200504 | 67 | 56 | 3.0 | 7.0 | 0.79 | 0.79 | 0.79 | 1 | 1009.9 |
| 20260509200404 | 67 | 39 | 3.0 | 9.0 | 0.79 | 0.79 | 0.79 | 1 | 1010.0 |
| 20260509200304 | 67 | 25 | 3.0 | 9.0 | 0.79 | 0.79 | 0.79 | 1 | 1010.1 |
| 20260509200204 | 67 | 10 | 3.0 | 9.0 | 0.79 | 0.79 | 0.79 | 1 | 1010.1 |
| 20260509200104 | 67 | 343 | 4.0 | 9.0 | 0.79 | 0.79 | 0.79 | 1 | 1010.1 |
| 20260509200025 | 67 | 327 | 4.0 | 9.0 | 0.78 | 0.78 | 0.78 | 1 | 1010.2 |
| 20260509195904 | 67 | 314 | 4.0 | 9.0 | 0.78 | 0.78 | 0.78 | 1 | 1010.2 |
| 20260509195804 | 67 | 315 | 4.0 | 9.0 | 0.78 | 0.78 | 0.78 | 1 | 1010.3 |
| 20260509195704 | 67 | 314 | 4.0 | 9.0 | 0.78 | 0.78 | 0.78 | 1 | 1010.3 |
| 20260509195625 | 67 | 313 | 4.0 | 9.0 | 0.78 | 0.78 | 0.78 | 1 | 1010.4 |
| 20260509195504 | 67 | 310 | 3.0 | 9.0 | 0.77 | 0.77 | 0.77 | 1 | 1010.5 |
| 20260509195425 | 67 | 317 | 3.0 | 9.0 | 0.76 | 0.76 | 0.77 | 1 | 1010.7 |
| 20260509195306 | 67 | 344 | 3.0 | 8.0 | 0.76 | 0.76 | 0.76 | 1 | 1010.8 |
| 20260509195204 | 67 | 26 | 3.0 | 8.0 | 0.76 | 0.76 | 0.76 | 1 | 1011.0 |
| 20260509195125 | 67 | 37 | 2.0 | 6.0 | 0.74 | 0.74 | 0.75 | 1 | 1011.1 |
| 20260509195004 | 67 | 53 | 2.0 | 4.0 | 0.71 | 0.71 | 0.71 | 1 | 1011.3 |
| 20260509194925 | 67 | 55 | 3.0 | 6.0 | 0.67 | 0.67 | 0.69 | 1 | 1011.3 |
| 20260509194804 | 67 | 52 | 3.0 | 10.0 | 0.64 | 0.64 | 0.64 | 1 | 1011.3 |
| 20260509194704 | 67 | 49 | 4.0 | 13.0 | 0.63 | 0.63 | 0.63 | 1 | 1011.3 |
| 20260509194604 | 67 | 49 | 5.0 | 16.0 | 0.62 | 0.62 | 0.62 | 1 | 1011.3 |
| 20260509194504 | 67 | 52 | 6.0 | 17.0 | 0.61 | 0.61 | 0.62 | 1 | 1011.3 |
| 20260509194404 | 68 | 52 | 7.0 | 17.0 | 0.60 | 0.60 | 0.60 | 1 | 1011.2 |
| 20260509194304 | 68 | 54 | 7.0 | 17.0 | 0.54 | 0.54 | 0.54 | 1 | 1011.2 |
| 20260509194204 | 68 | 54 | 7.0 | 17.0 | 0.52 | 0.52 | 0.52 | 1 | 1011.0 |
| 20260509194125 | 68 | 55 | 8.0 | 17.0 | 0.50 | 0.50 | 0.51 | 1 | 1011.0 |
| 20260509194004 | 68 | 56 | 8.0 | 17.0 | 0.47 | 0.47 | 0.47 | 1 | 1011.1 |
| 20260509193904 | 69 | 57 | 8.0 | 17.0 | 0.44 | 0.44 | 0.44 | 1 | 1011.1 |
| 20260509193804 | 70 | 60 | 8.0 | 17.0 | 0.40 | 0.40 | 0.40 | 1 | 1011.2 |
| 20260509193704 | 71 | 62 | 7.0 | 17.0 | 0.36 | 0.36 | 0.36 | 1 | 1011.4 |
| 20260509193604 | 72 | 65 | 6.0 | 17.0 | 0.32 | 0.32 | 0.33 | 1 | 1011.4 |
| 20260509193504 | 73 | 66 | 6.0 | 15.0 | 0.28 | 0.28 | 0.30 | 33 | 1011.4 |
| 20260509193404 | 75 | 67 | 5.0 | 15.0 | 0.26 | 0.26 | 0.26 | 33 | 1011.2 |
| 20260509193304 | 76 | 66 | 5.0 | 9.0 | 0.20 | 0.20 | 0.20 | 33 | 1011.1 |
| 20260509193204 | 76 | 67 | 5.0 | 9.0 | 0.15 | 0.15 | 0.16 | 37 | 1011.0 |
| 20260509193104 | 76 | 70 | 5.0 | 9.0 | 0.14 | 0.14 | 0.14 | 36 | 1010.9 |
| 20260509193004 | 77 | 68 | 6.0 | 15.0 | 0.13 | 0.13 | 0.13 | 36 | 1010.8 |
| 20260509192904 | 77 | 66 | 6.0 | 17.0 | 0.11 | 0.11 | 0.11 | 37 | 1010.7 |
| 20260509192804 | 78 | 65 | 7.0 | 19.0 | 0.10 | 0.10 | 0.10 | 38 | 1010.6 |
| 20260509192704 | 78 | 59 | 7.0 | 19.0 | 0.07 | 0.07 | 0.07 | 40 | 1010.6 |
| 20260509192625 | 78 | 57 | 7.0 | 19.0 | 0.05 | 0.05 | 0.06 | 40 | 1010.4 |
| 20260509192504 | 79 | 55 | 7.0 | 19.0 | 0.05 | 0.05 | 0.05 | 40 | 1010.4 |
| 20260509192404 | 80 | 56 | 7.0 | 19.0 | 0.04 | 0.04 | 0.04 | 40 | 1010.3 |
| 20260509192306 | 80 | 57 | 6.0 | 19.0 | 0.04 | 0.04 | 0.04 | 42 | 1010.2 |
| 20260509192204 | 81 | 55 | 6.0 | 19.0 | 0.03 | 0.03 | 0.03 | 42 | 1010.2 |
| 20260509192104 | 81 | 51 | 6.0 | 19.0 | 0.02 | 0.02 | 0.02 | 42 | 1010.3 |
| 20260509192004 | 82 | 43 | 5.0 | 19.0 | 0.01 | 0.01 | 0.01 | 40 | 1010.2 |
| 20260509191904 | 83 | 32 | 5.0 | 19.0 | 0.01 | 0.01 | 0.01 | 40 | 1010.1 |
| 20260509191804 | 83 | 12 | 4.0 | 12.0 | 0.00 | 0.00 | 0.00 | 39 | 1010.1 |
| 20260509191704 | 84 | 2 | 4.0 | 10.0 | 0.00 | 0.00 | 0.00 | 36 | 1010.0 |
| 20260509191604 | 84 | 353 | 4.0 | 10.0 | 0.00 | 0.00 | 0.00 | 36 | 1009.9 |
| 20260509191504 | 84 | 341 | 4.0 | 10.0 | 0.00 | 0.00 | 0.00 | 37 | 1009.7 |
| 20260509191404 | 84 | 332 | 4.0 | 10.0 | 0.00 | 0.00 | 0.00 | 38 | 1009.6 |
| 20260509191304 | 84 | 325 | 4.0 | 10.0 | 0.00 | 0.00 | 0.00 | 38 | 1009.6 |
| 20260509191204 | 84 | 319 | 4.0 | 10.0 | 0.00 | 0.00 | 0.00 | 39 | 1009.6 |
| 20260509191104 | 84 | 315 | 4.0 | 10.0 | 0.00 | 0.00 | 0.00 | 40 | 1009.5 |
| 20260509191004 | 84 | 313 | 3.0 | 10.0 | 0.00 | 0.00 | 0.00 | 41 | 1009.6 |
| 20260509190904 | 85 | 311 | 3.0 | 10.0 | 0.00 | 0.00 | 0.00 | 42 | 1009.5 |
| 20260509190804 | 85 | 304 | 3.0 | 10.0 | 0.00 | 0.00 | 0.00 | 42 | 1009.6 |
| 20260509190704 | 85 | 304 | 3.0 | 10.0 | 0.00 | 0.00 | 0.00 | 42 | 1009.6 |
| 20260509190604 | 85 | 299 | 3.0 | 7.0 | 0.00 | 0.00 | 0.00 | 42 | 1009.7 |
| 20260509190504 | 85 | 297 | 3.0 | 7.0 | 0.00 | 0.00 | 0.00 | 42 | 1009.7 |
| 20260509190404 | 86 | 302 | 3.0 | 7.0 | 0.00 | 0.00 | 0.00 | 42 | 1009.6 |
| 20260509190304 | 86 | 316 | 3.0 | 7.0 | 0.00 | 0.00 | 0.00 | 42 | 1009.6 |
| 20260509190204 | 86 | 329 | 3.0 | 7.0 | 0.00 | 0.00 | 0.00 | 43 | 1009.6 |
| 20260509190104 | 86 | 340 | 3.0 | 7.0 | 0.00 | 0.00 | 0.00 | 43 | 1009.6 |
| 20260509190004 | 86 | 349 | 3.0 | 7.0 | 0.00 | 0.00 | 0.00 | 43 | 1009.5 |
| 20260509185904 | 86 | 353 | 3.0 | 7.0 | 0.00 | 0.00 | 0.00 | 44 | 1009.5 |
| 20260509185825 | 86 | 348 | 3.0 | 7.0 | 0.00 | 0.00 | 0.00 | 44 | 1009.5 |
| 20260509185704 | 87 | 349 | 3.0 | 8.0 | 0.00 | 0.00 | 0.00 | 44 | 1009.6 |
| 20260509185604 | 87 | 360 | 3.0 | 8.0 | 0.00 | 0.00 | 0.00 | 44 | 1009.6 |
| 20260509185504 | 87 | 13 | 3.0 | 8.0 | 0.00 | 0.00 | 0.00 | 44 | 1009.6 |
| 20260509185404 | 87 | 21 | 4.0 | 8.0 | 0.00 | 0.00 | 0.00 | 44 | 1009.7 |
| 20260509185306 | 87 | 20 | 3.0 | 8.0 | 0.00 | 0.00 | 0.00 | 44 | 1009.7 |
| 20260509185204 | 87 | 13 | 3.0 | 8.0 | 0.00 | 0.00 | 0.00 | 44 | 1009.7 |
| 20260509185104 | 87 | 5 | 4.0 | 8.0 | 0.00 | 0.00 | 0.00 | 44 | 1009.8 |
| 20260509185025 | 87 | 5 | 4.0 | 8.0 | 0.00 | 0.00 | 0.00 | 44 | 1009.8 |
| 20260509184904 | 87 | 11 | 4.0 | 9.0 | 0.00 | 0.00 | 0.00 | 44 | 1009.9 |
| 20260509184804 | 88 | 19 | 4.0 | 12.0 | 0.00 | 0.00 | 0.00 | 44 | 1009.9 |
| 20260509184704 | 88 | 27 | 4.0 | 12.0 | 0.00 | 0.00 | 0.00 | 44 | 1009.9 |
| 20260509184604 | 88 | 29 | 5.0 | 12.0 | 0.00 | 0.00 | 0.00 | 44 | 1009.9 |
| 20260509184504 | 88 | 29 | 5.0 | 12.0 | 0.00 | 0.00 | 0.00 | 44 | 1009.9 |
| 20260509184404 | 88 | 25 | 5.0 | 12.0 | 0.00 | 0.00 | 0.00 | 44 | 1009.9 |
| 20260509184304 | 88 | 26 | 5.0 | 12.0 | 0.00 | 0.00 | 0.00 | 44 | 1009.9 |
| 20260509184204 | 88 | 34 | 5.0 | 12.0 | 0.00 | 0.00 | 0.00 | 43 | 1010.0 |
| 20260509184104 | 88 | 38 | 6.0 | 12.0 | 0.00 | 0.00 | 0.00 | 43 | 1010.0 |
| 20260509184004 | 88 | 41 | 5.0 | 12.0 | 0.00 | 0.00 | 0.00 | 43 | 1010.0 |
| 20260509183925 | 88 | 40 | 5.0 | 12.0 | 0.00 | 0.00 | 0.00 | 43 | 1010.0 |
| 20260509183804 | 88 | 42 | 6.0 | 12.0 | 0.00 | 0.00 | 0.00 | 43 | 1009.9 |
| 20260509183704 | 89 | 41 | 6.0 | 12.0 | 0.00 | 0.00 | 0.00 | 43 | 1009.9 |
| 20260509183625 | 89 | 40 | 5.0 | 12.0 | 0.00 | 0.00 | 0.00 | 43 | 1009.9 |
| 20260509183504 | 88 | 42 | 5.0 | 12.0 | 0.00 | 0.00 | 0.00 | 43 | 1010.0 |
| 20260509183404 | 88 | 46 | 5.0 | 11.0 | 0.00 | 0.00 | 0.00 | 43 | 1010.1 |
| 20260509183325 | 88 | 45 | 6.0 | 11.0 | 0.00 | 0.00 | 0.00 | 43 | 1010.1 |
| 20260509183204 | 88 | 43 | 6.0 | 11.0 | 0.00 | 0.00 | 0.00 | 43 | 1010.2 |
| 20260509183125 | 89 | 43 | 5.0 | 11.0 | 0.00 | 0.00 | 0.00 | 42 | 1010.2 |
| 20260509183004 | 89 | 40 | 5.0 | 11.0 | 0.00 | 0.00 | 0.00 | 43 | 1010.2 |
| 20260509182925 | 89 | 41 | 5.0 | 11.0 | 0.00 | 0.00 | 0.00 | 42 | 1010.2 |
| 20260509182804 | 88 | 42 | 4.0 | 11.0 | 0.00 | 0.00 | 0.00 | 43 | 1010.2 |
| 20260509182704 | 88 | 45 | 4.0 | 11.0 | 0.00 | 0.00 | 0.00 | 43 | 1010.2 |
| 20260509182604 | 88 | 48 | 4.0 | 9.0 | 0.00 | 0.00 | 0.00 | 42 | 1010.2 |
| 20260509182504 | 88 | 47 | 4.0 | 9.0 | 0.00 | 0.00 | 0.00 | 43 | 1010.2 |
| 20260509182404 | 89 | 43 | 4.0 | 9.0 | 0.00 | 0.00 | 0.00 | 43 | 1010.3 |
| 20260509182306 | 89 | 41 | 4.0 | 9.0 | 0.00 | 0.00 | 0.00 | 42 | 1010.3 |
| 20260509182204 | 89 | 40 | 4.0 | 9.0 | 0.00 | 0.00 | 0.00 | 42 | 1010.4 |
| 20260509182104 | 89 | 38 | 4.0 | 9.0 | 0.00 | 0.00 | 0.00 | 42 | 1010.3 |
| 20260509182003 | 89 | 35 | 3.0 | 9.0 | 0.00 | 0.00 | 0.00 | 42 | 1010.4 |
| 20260509181904 | 89 | 31 | 3.0 | 9.0 | 0.00 | 0.00 | 0.00 | 41 | 1010.4 |
| 20260509181804 | 89 | 27 | 3.0 | 9.0 | 0.00 | 0.00 | 0.00 | 42 | 1010.5 |
| 20260509181704 | 89 | 20 | 3.0 | 9.0 | 0.00 | 0.00 | 0.00 | 42 | 1010.5 |
| 20260509181604 | 89 | 14 | 3.0 | 9.0 | 0.00 | 0.00 | 0.00 | 42 | 1010.5 |
| 20260509181504 | 89 | 10 | 3.0 | 9.0 | 0.00 | 0.00 | 0.00 | 42 | 1010.5 |
| 20260509181404 | 89 | 3 | 3.0 | 9.0 | 0.00 | 0.00 | 0.00 | 42 | 1010.4 |
| 20260509181325 | 89 | 7 | 3.0 | 9.0 | 0.00 | 0.00 | 0.00 | 42 | 1010.5 |
| 20260509181225 | 89 | 5 | 3.0 | 9.0 | 0.00 | 0.00 | 0.00 | 42 | 1010.4 |
| 20260509181104 | 89 | 7 | 3.0 | 7.0 | 0.00 | 0.00 | 0.00 | 42 | 1010.4 |
| 20260509181004 | 89 | 14 | 3.0 | 7.0 | 0.00 | 0.00 | 0.00 | 42 | 1010.4 |
| 20260509180904 | 89 | 22 | 3.0 | 7.0 | 0.00 | 0.00 | 0.00 | 42 | 1010.4 |
| 20260509180825 | 88 | 27 | 3.0 | 7.0 | 0.00 | 0.00 | 0.00 | 41 | 1010.5 |
| 20260509180704 | 88 | 34 | 3.0 | 7.0 | 0.00 | 0.00 | 0.00 | 41 | 1010.5 |
| 20260509180604 | 88 | 40 | 4.0 | 7.0 | 0.00 | 0.00 | 0.00 | 41 | 1010.5 |
| 20260509180504 | 88 | 47 | 4.0 | 7.0 | 0.00 | 0.00 | 0.00 | 41 | 1010.5 |